<?xml version="1.0" encoding="UTF-8" standalone="no" ?>
<gpx xmlns="http://www.topografix.com/GPX/1/1" xmlns:xsi="http://www.w3.org/2001/XMLSchema-instance" xsi:schemaLocation="http://www.topografix.com/GPX/1/1 http://www.topografix.com/GPX/1/1/gpx.xsd" version="1.1" creator="VisuGPX - https://www.visugpx.com">
  <metadata>
    <name>Du bois de Cise au Tréport</name>
    <desc><![CDATA[Randonnée de 17km par les falaises et  Mers les Bains]]></desc>
  </metadata>
  <trk>
    <name><![CDATA[Du  Bois de Cise au Tréport  par le GR21 _R]]></name>
    <trkseg>
      <trkpt lat="50.08842" lon="1.42546">
        <ele>51.09</ele>
        <time>2013-11-10T09:13:35Z</time>
      </trkpt>
      <trkpt lat="50.0884" lon="1.42546">
        <ele>42.44</ele>
        <time>2013-11-10T09:13:53Z</time>
      </trkpt>
      <trkpt lat="50.0884" lon="1.42546">
        <ele>42.44</ele>
        <time>2013-11-10T09:13:54Z</time>
      </trkpt>
      <trkpt lat="50.08845" lon="1.42543">
        <ele>42.44</ele>
        <time>2013-11-10T09:14:28Z</time>
      </trkpt>
      <trkpt lat="50.08844" lon="1.42545">
        <ele>42.92</ele>
        <time>2013-11-10T09:15:00Z</time>
      </trkpt>
      <trkpt lat="50.08841" lon="1.42544">
        <ele>42.92</ele>
        <time>2013-11-10T09:15:29Z</time>
      </trkpt>
      <trkpt lat="50.08841" lon="1.42541">
        <ele>42.92</ele>
        <time>2013-11-10T09:15:51Z</time>
      </trkpt>
      <trkpt lat="50.08838" lon="1.42547">
        <ele>42.92</ele>
        <time>2013-11-10T09:16:07Z</time>
      </trkpt>
      <trkpt lat="50.08829" lon="1.42545">
        <ele>44.36</ele>
        <time>2013-11-10T09:16:19Z</time>
      </trkpt>
      <trkpt lat="50.08829" lon="1.42542">
        <ele>43.4</ele>
        <time>2013-11-10T09:16:20Z</time>
      </trkpt>
      <trkpt lat="50.08833" lon="1.42524">
        <ele>44.36</ele>
        <time>2013-11-10T09:16:28Z</time>
      </trkpt>
      <trkpt lat="50.08835" lon="1.42514">
        <ele>42.92</ele>
        <time>2013-11-10T09:16:39Z</time>
      </trkpt>
      <trkpt lat="50.08829" lon="1.42536">
        <ele>42.92</ele>
        <time>2013-11-10T09:16:51Z</time>
      </trkpt>
      <trkpt lat="50.08825" lon="1.42551">
        <ele>44.36</ele>
        <time>2013-11-10T09:17:02Z</time>
      </trkpt>
      <trkpt lat="50.08821" lon="1.42545">
        <ele>44.36</ele>
        <time>2013-11-10T09:17:05Z</time>
      </trkpt>
      <trkpt lat="50.08809" lon="1.42525">
        <ele>47.24</ele>
        <time>2013-11-10T09:17:23Z</time>
      </trkpt>
      <trkpt lat="50.08794" lon="1.42503">
        <ele>50.13</ele>
        <time>2013-11-10T09:17:40Z</time>
      </trkpt>
      <trkpt lat="50.08783" lon="1.42474">
        <ele>53.01</ele>
        <time>2013-11-10T09:18:00Z</time>
      </trkpt>
      <trkpt lat="50.08768" lon="1.42458">
        <ele>55.89</ele>
        <time>2013-11-10T09:18:16Z</time>
      </trkpt>
      <trkpt lat="50.0877" lon="1.42459">
        <ele>59.26</ele>
        <time>2013-11-10T09:18:26Z</time>
      </trkpt>
      <trkpt lat="50.08767" lon="1.4245">
        <ele>61.66</ele>
        <time>2013-11-10T09:18:35Z</time>
      </trkpt>
      <trkpt lat="50.0877" lon="1.4243">
        <ele>61.18</ele>
        <time>2013-11-10T09:18:49Z</time>
      </trkpt>
      <trkpt lat="50.08778" lon="1.42411">
        <ele>61.18</ele>
        <time>2013-11-10T09:19:07Z</time>
      </trkpt>
      <trkpt lat="50.0878" lon="1.4241">
        <ele>61.18</ele>
        <time>2013-11-10T09:19:08Z</time>
      </trkpt>
      <trkpt lat="50.08802" lon="1.42388">
        <ele>61.66</ele>
        <time>2013-11-10T09:19:29Z</time>
      </trkpt>
      <trkpt lat="50.08812" lon="1.42368">
        <ele>61.18</ele>
        <time>2013-11-10T09:19:42Z</time>
      </trkpt>
      <trkpt lat="50.08823" lon="1.42342">
        <ele>61.66</ele>
        <time>2013-11-10T09:19:58Z</time>
      </trkpt>
      <trkpt lat="50.08834" lon="1.42307">
        <ele>64.07</ele>
        <time>2013-11-10T09:20:16Z</time>
      </trkpt>
      <trkpt lat="50.08835" lon="1.423">
        <ele>60.7</ele>
        <time>2013-11-10T09:20:19Z</time>
      </trkpt>
      <trkpt lat="50.08837" lon="1.42294">
        <ele>66.47</ele>
        <time>2013-11-10T09:20:22Z</time>
      </trkpt>
      <trkpt lat="50.08838" lon="1.42285">
        <ele>62.14</ele>
        <time>2013-11-10T09:20:27Z</time>
      </trkpt>
      <trkpt lat="50.08839" lon="1.42278">
        <ele>65.51</ele>
        <time>2013-11-10T09:20:31Z</time>
      </trkpt>
      <trkpt lat="50.08849" lon="1.4225">
        <ele>64.55</ele>
        <time>2013-11-10T09:20:47Z</time>
      </trkpt>
      <trkpt lat="50.08854" lon="1.42227">
        <ele>67.91</ele>
        <time>2013-11-10T09:20:59Z</time>
      </trkpt>
      <trkpt lat="50.08867" lon="1.42206">
        <ele>66.47</ele>
        <time>2013-11-10T09:21:15Z</time>
      </trkpt>
      <trkpt lat="50.08882" lon="1.42184">
        <ele>66.95</ele>
        <time>2013-11-10T09:21:32Z</time>
      </trkpt>
      <trkpt lat="50.08884" lon="1.4217">
        <ele>68.39</ele>
        <time>2013-11-10T09:21:39Z</time>
      </trkpt>
      <trkpt lat="50.08883" lon="1.42169">
        <ele>69.83</ele>
        <time>2013-11-10T09:21:41Z</time>
      </trkpt>
      <trkpt lat="50.08879" lon="1.42147">
        <ele>70.31</ele>
        <time>2013-11-10T09:21:56Z</time>
      </trkpt>
      <trkpt lat="50.08879" lon="1.42141">
        <ele>72.24</ele>
        <time>2013-11-10T09:22:01Z</time>
      </trkpt>
      <trkpt lat="50.08876" lon="1.42138">
        <ele>72.72</ele>
        <time>2013-11-10T09:22:04Z</time>
      </trkpt>
      <trkpt lat="50.08874" lon="1.42132">
        <ele>75.12</ele>
        <time>2013-11-10T09:22:10Z</time>
      </trkpt>
      <trkpt lat="50.08875" lon="1.42124">
        <ele>75.12</ele>
        <time>2013-11-10T09:22:17Z</time>
      </trkpt>
      <trkpt lat="50.08877" lon="1.42124">
        <ele>72.72</ele>
        <time>2013-11-10T09:22:30Z</time>
      </trkpt>
      <trkpt lat="50.0888" lon="1.42124">
        <ele>77.04</ele>
        <time>2013-11-10T09:22:43Z</time>
      </trkpt>
      <trkpt lat="50.08877" lon="1.42125">
        <ele>75.6</ele>
        <time>2013-11-10T09:23:10Z</time>
      </trkpt>
      <trkpt lat="50.08872" lon="1.42122">
        <ele>73.68</ele>
        <time>2013-11-10T09:23:19Z</time>
      </trkpt>
      <trkpt lat="50.08867" lon="1.421">
        <ele>73.2</ele>
        <time>2013-11-10T09:23:35Z</time>
      </trkpt>
      <trkpt lat="50.08867" lon="1.42088">
        <ele>75.6</ele>
        <time>2013-11-10T09:23:49Z</time>
      </trkpt>
      <trkpt lat="50.08867" lon="1.42088">
        <ele>76.08</ele>
        <time>2013-11-10T09:23:50Z</time>
      </trkpt>
      <trkpt lat="50.08865" lon="1.42088">
        <ele>75.6</ele>
        <time>2013-11-10T09:24:03Z</time>
      </trkpt>
      <trkpt lat="50.08861" lon="1.42083">
        <ele>78</ele>
        <time>2013-11-10T09:24:16Z</time>
      </trkpt>
      <trkpt lat="50.08855" lon="1.42071">
        <ele>80.89</ele>
        <time>2013-11-10T09:24:28Z</time>
      </trkpt>
      <trkpt lat="50.08843" lon="1.42043">
        <ele>81.85</ele>
        <time>2013-11-10T09:24:47Z</time>
      </trkpt>
      <trkpt lat="50.08842" lon="1.4204">
        <ele>82.81</ele>
        <time>2013-11-10T09:24:49Z</time>
      </trkpt>
      <trkpt lat="50.08842" lon="1.42036">
        <ele>81.85</ele>
        <time>2013-11-10T09:25:00Z</time>
      </trkpt>
      <trkpt lat="50.08838" lon="1.42025">
        <ele>85.69</ele>
        <time>2013-11-10T09:25:07Z</time>
      </trkpt>
      <trkpt lat="50.08838" lon="1.42023">
        <ele>85.21</ele>
        <time>2013-11-10T09:25:08Z</time>
      </trkpt>
      <trkpt lat="50.08836" lon="1.42017">
        <ele>83.77</ele>
        <time>2013-11-10T09:25:12Z</time>
      </trkpt>
      <trkpt lat="50.08835" lon="1.42016">
        <ele>83.77</ele>
        <time>2013-11-10T09:25:13Z</time>
      </trkpt>
      <trkpt lat="50.08824" lon="1.42005">
        <ele>83.77</ele>
        <time>2013-11-10T09:25:23Z</time>
      </trkpt>
      <trkpt lat="50.08817" lon="1.41989">
        <ele>84.25</ele>
        <time>2013-11-10T09:25:34Z</time>
      </trkpt>
      <trkpt lat="50.08813" lon="1.41978">
        <ele>83.77</ele>
        <time>2013-11-10T09:25:41Z</time>
      </trkpt>
      <trkpt lat="50.0881" lon="1.41975">
        <ele>98.19</ele>
        <time>2013-11-10T09:25:44Z</time>
      </trkpt>
      <trkpt lat="50.08809" lon="1.41976">
        <ele>97.71</ele>
        <time>2013-11-10T09:25:45Z</time>
      </trkpt>
      <trkpt lat="50.08809" lon="1.41975">
        <ele>88.1</ele>
        <time>2013-11-10T09:25:47Z</time>
      </trkpt>
      <trkpt lat="50.08808" lon="1.41975">
        <ele>81.37</ele>
        <time>2013-11-10T09:25:48Z</time>
      </trkpt>
      <trkpt lat="50.08808" lon="1.41974">
        <ele>90.02</ele>
        <time>2013-11-10T09:25:49Z</time>
      </trkpt>
      <trkpt lat="50.08806" lon="1.4197">
        <ele>94.83</ele>
        <time>2013-11-10T09:25:58Z</time>
      </trkpt>
      <trkpt lat="50.08801" lon="1.41964">
        <ele>89.06</ele>
        <time>2013-11-10T09:26:03Z</time>
      </trkpt>
      <trkpt lat="50.088" lon="1.41963">
        <ele>87.62</ele>
        <time>2013-11-10T09:26:04Z</time>
      </trkpt>
      <trkpt lat="50.08795" lon="1.41956">
        <ele>82.81</ele>
        <time>2013-11-10T09:26:08Z</time>
      </trkpt>
      <trkpt lat="50.08794" lon="1.41955">
        <ele>85.21</ele>
        <time>2013-11-10T09:26:09Z</time>
      </trkpt>
      <trkpt lat="50.08783" lon="1.41936">
        <ele>87.14</ele>
        <time>2013-11-10T09:26:21Z</time>
      </trkpt>
      <trkpt lat="50.08782" lon="1.41933">
        <ele>83.77</ele>
        <time>2013-11-10T09:26:23Z</time>
      </trkpt>
      <trkpt lat="50.08779" lon="1.41928">
        <ele>85.69</ele>
        <time>2013-11-10T09:26:26Z</time>
      </trkpt>
      <trkpt lat="50.08762" lon="1.41896">
        <ele>84.73</ele>
        <time>2013-11-10T09:26:47Z</time>
      </trkpt>
      <trkpt lat="50.08761" lon="1.41894">
        <ele>88.1</ele>
        <time>2013-11-10T09:26:49Z</time>
      </trkpt>
      <trkpt lat="50.08761" lon="1.41892">
        <ele>87.14</ele>
        <time>2013-11-10T09:26:50Z</time>
      </trkpt>
      <trkpt lat="50.08758" lon="1.41887">
        <ele>84.25</ele>
        <time>2013-11-10T09:26:53Z</time>
      </trkpt>
      <trkpt lat="50.08748" lon="1.41869">
        <ele>82.33</ele>
        <time>2013-11-10T09:27:05Z</time>
      </trkpt>
      <trkpt lat="50.08747" lon="1.41866">
        <ele>82.81</ele>
        <time>2013-11-10T09:27:14Z</time>
      </trkpt>
      <trkpt lat="50.08741" lon="1.41848">
        <ele>79.45</ele>
        <time>2013-11-10T09:27:27Z</time>
      </trkpt>
      <trkpt lat="50.08738" lon="1.41844">
        <ele>87.14</ele>
        <time>2013-11-10T09:27:30Z</time>
      </trkpt>
      <trkpt lat="50.08737" lon="1.41843">
        <ele>87.14</ele>
        <time>2013-11-10T09:27:31Z</time>
      </trkpt>
      <trkpt lat="50.08733" lon="1.41833">
        <ele>83.77</ele>
        <time>2013-11-10T09:27:37Z</time>
      </trkpt>
      <trkpt lat="50.08731" lon="1.4183">
        <ele>80.89</ele>
        <time>2013-11-10T09:27:39Z</time>
      </trkpt>
      <trkpt lat="50.08726" lon="1.41821">
        <ele>79.45</ele>
        <time>2013-11-10T09:27:47Z</time>
      </trkpt>
      <trkpt lat="50.08721" lon="1.41806">
        <ele>78.97</ele>
        <time>2013-11-10T09:27:56Z</time>
      </trkpt>
      <trkpt lat="50.08722" lon="1.41802">
        <ele>80.89</ele>
        <time>2013-11-10T09:28:14Z</time>
      </trkpt>
      <trkpt lat="50.08722" lon="1.418">
        <ele>78.97</ele>
        <time>2013-11-10T09:28:16Z</time>
      </trkpt>
      <trkpt lat="50.08721" lon="1.41797">
        <ele>77.52</ele>
        <time>2013-11-10T09:28:18Z</time>
      </trkpt>
      <trkpt lat="50.08719" lon="1.41794">
        <ele>76.56</ele>
        <time>2013-11-10T09:28:20Z</time>
      </trkpt>
      <trkpt lat="50.08714" lon="1.41789">
        <ele>75.12</ele>
        <time>2013-11-10T09:28:25Z</time>
      </trkpt>
      <trkpt lat="50.08705" lon="1.41774">
        <ele>72.24</ele>
        <time>2013-11-10T09:28:36Z</time>
      </trkpt>
      <trkpt lat="50.08704" lon="1.41771">
        <ele>73.2</ele>
        <time>2013-11-10T09:28:38Z</time>
      </trkpt>
      <trkpt lat="50.08702" lon="1.41768">
        <ele>70.79</ele>
        <time>2013-11-10T09:28:41Z</time>
      </trkpt>
      <trkpt lat="50.08703" lon="1.41768">
        <ele>73.68</ele>
        <time>2013-11-10T09:28:52Z</time>
      </trkpt>
      <trkpt lat="50.08713" lon="1.41779">
        <ele>72.72</ele>
        <time>2013-11-10T09:29:08Z</time>
      </trkpt>
      <trkpt lat="50.08714" lon="1.41778">
        <ele>73.68</ele>
        <time>2013-11-10T09:29:31Z</time>
      </trkpt>
      <trkpt lat="50.08719" lon="1.41791">
        <ele>75.12</ele>
        <time>2013-11-10T09:29:41Z</time>
      </trkpt>
      <trkpt lat="50.08721" lon="1.41795">
        <ele>77.04</ele>
        <time>2013-11-10T09:29:44Z</time>
      </trkpt>
      <trkpt lat="50.08723" lon="1.41806">
        <ele>80.41</ele>
        <time>2013-11-10T09:29:54Z</time>
      </trkpt>
      <trkpt lat="50.08724" lon="1.41807">
        <ele>78.48</ele>
        <time>2013-11-10T09:30:03Z</time>
      </trkpt>
      <trkpt lat="50.08719" lon="1.41819">
        <ele>78.97</ele>
        <time>2013-11-10T09:30:11Z</time>
      </trkpt>
      <trkpt lat="50.08714" lon="1.41822">
        <ele>82.81</ele>
        <time>2013-11-10T09:30:19Z</time>
      </trkpt>
      <trkpt lat="50.0871" lon="1.41828">
        <ele>79.93</ele>
        <time>2013-11-10T09:30:24Z</time>
      </trkpt>
      <trkpt lat="50.08695" lon="1.41843">
        <ele>77.52</ele>
        <time>2013-11-10T09:30:39Z</time>
      </trkpt>
      <trkpt lat="50.08686" lon="1.41851">
        <ele>78.48</ele>
        <time>2013-11-10T09:30:47Z</time>
      </trkpt>
      <trkpt lat="50.08676" lon="1.41857">
        <ele>79.93</ele>
        <time>2013-11-10T09:30:59Z</time>
      </trkpt>
      <trkpt lat="50.08675" lon="1.41858">
        <ele>79.93</ele>
        <time>2013-11-10T09:31:00Z</time>
      </trkpt>
      <trkpt lat="50.0867" lon="1.41862">
        <ele>75.6</ele>
        <time>2013-11-10T09:31:04Z</time>
      </trkpt>
      <trkpt lat="50.08667" lon="1.41864">
        <ele>78</ele>
        <time>2013-11-10T09:31:08Z</time>
      </trkpt>
      <trkpt lat="50.08663" lon="1.41865">
        <ele>76.56</ele>
        <time>2013-11-10T09:31:12Z</time>
      </trkpt>
      <trkpt lat="50.08662" lon="1.41865">
        <ele>73.2</ele>
        <time>2013-11-10T09:31:14Z</time>
      </trkpt>
      <trkpt lat="50.08663" lon="1.41865">
        <ele>73.68</ele>
        <time>2013-11-10T09:31:15Z</time>
      </trkpt>
      <trkpt lat="50.08662" lon="1.41866">
        <ele>77.04</ele>
        <time>2013-11-10T09:31:18Z</time>
      </trkpt>
      <trkpt lat="50.08661" lon="1.41865">
        <ele>75.12</ele>
        <time>2013-11-10T09:31:21Z</time>
      </trkpt>
      <trkpt lat="50.0866" lon="1.41861">
        <ele>78</ele>
        <time>2013-11-10T09:31:24Z</time>
      </trkpt>
      <trkpt lat="50.08659" lon="1.4186">
        <ele>77.04</ele>
        <time>2013-11-10T09:31:25Z</time>
      </trkpt>
      <trkpt lat="50.08656" lon="1.41861">
        <ele>73.68</ele>
        <time>2013-11-10T09:31:27Z</time>
      </trkpt>
      <trkpt lat="50.08656" lon="1.41864">
        <ele>75.6</ele>
        <time>2013-11-10T09:31:34Z</time>
      </trkpt>
      <trkpt lat="50.08657" lon="1.41861">
        <ele>76.56</ele>
        <time>2013-11-10T09:31:36Z</time>
      </trkpt>
      <trkpt lat="50.08657" lon="1.41858">
        <ele>72.72</ele>
        <time>2013-11-10T09:31:41Z</time>
      </trkpt>
      <trkpt lat="50.08657" lon="1.41857">
        <ele>74.16</ele>
        <time>2013-11-10T09:31:42Z</time>
      </trkpt>
      <trkpt lat="50.08655" lon="1.4185">
        <ele>72.72</ele>
        <time>2013-11-10T09:31:46Z</time>
      </trkpt>
      <trkpt lat="50.08651" lon="1.41841">
        <ele>69.83</ele>
        <time>2013-11-10T09:31:52Z</time>
      </trkpt>
      <trkpt lat="50.0865" lon="1.41838">
        <ele>69.83</ele>
        <time>2013-11-10T09:31:54Z</time>
      </trkpt>
      <trkpt lat="50.08646" lon="1.41833">
        <ele>65.99</ele>
        <time>2013-11-10T09:31:59Z</time>
      </trkpt>
      <trkpt lat="50.08631" lon="1.41818">
        <ele>62.62</ele>
        <time>2013-11-10T09:32:14Z</time>
      </trkpt>
      <trkpt lat="50.08625" lon="1.41812">
        <ele>61.66</ele>
        <time>2013-11-10T09:32:20Z</time>
      </trkpt>
      <trkpt lat="50.0862" lon="1.41805">
        <ele>58.3</ele>
        <time>2013-11-10T09:32:26Z</time>
      </trkpt>
      <trkpt lat="50.08618" lon="1.41803">
        <ele>58.3</ele>
        <time>2013-11-10T09:32:28Z</time>
      </trkpt>
      <trkpt lat="50.08615" lon="1.4179">
        <ele>55.41</ele>
        <time>2013-11-10T09:32:35Z</time>
      </trkpt>
      <trkpt lat="50.08615" lon="1.41788">
        <ele>55.41</ele>
        <time>2013-11-10T09:32:36Z</time>
      </trkpt>
      <trkpt lat="50.08615" lon="1.41784">
        <ele>56.37</ele>
        <time>2013-11-10T09:32:38Z</time>
      </trkpt>
      <trkpt lat="50.08611" lon="1.4178">
        <ele>54.93</ele>
        <time>2013-11-10T09:32:42Z</time>
      </trkpt>
      <trkpt lat="50.08608" lon="1.41775">
        <ele>52.05</ele>
        <time>2013-11-10T09:32:46Z</time>
      </trkpt>
      <trkpt lat="50.08602" lon="1.41762">
        <ele>52.53</ele>
        <time>2013-11-10T09:33:02Z</time>
      </trkpt>
      <trkpt lat="50.08602" lon="1.41762">
        <ele>53.49</ele>
        <time>2013-11-10T09:33:12Z</time>
      </trkpt>
      <trkpt lat="50.08602" lon="1.41761">
        <ele>52.53</ele>
        <time>2013-11-10T09:33:21Z</time>
      </trkpt>
      <trkpt lat="50.086" lon="1.41759">
        <ele>51.09</ele>
        <time>2013-11-10T09:33:23Z</time>
      </trkpt>
      <trkpt lat="50.0859" lon="1.4175">
        <ele>48.2</ele>
        <time>2013-11-10T09:33:33Z</time>
      </trkpt>
      <trkpt lat="50.08589" lon="1.41748">
        <ele>47.24</ele>
        <time>2013-11-10T09:33:35Z</time>
      </trkpt>
      <trkpt lat="50.08579" lon="1.4174">
        <ele>46.28</ele>
        <time>2013-11-10T09:33:45Z</time>
      </trkpt>
      <trkpt lat="50.08561" lon="1.41726">
        <ele>42.92</ele>
        <time>2013-11-10T09:34:02Z</time>
      </trkpt>
      <trkpt lat="50.08554" lon="1.41713">
        <ele>46.28</ele>
        <time>2013-11-10T09:34:12Z</time>
      </trkpt>
      <trkpt lat="50.08554" lon="1.41712">
        <ele>46.28</ele>
        <time>2013-11-10T09:34:13Z</time>
      </trkpt>
      <trkpt lat="50.08551" lon="1.41704">
        <ele>47.72</ele>
        <time>2013-11-10T09:34:26Z</time>
      </trkpt>
      <trkpt lat="50.0855" lon="1.41698">
        <ele>49.65</ele>
        <time>2013-11-10T09:34:30Z</time>
      </trkpt>
      <trkpt lat="50.08547" lon="1.41683">
        <ele>53.49</ele>
        <time>2013-11-10T09:34:43Z</time>
      </trkpt>
      <trkpt lat="50.08546" lon="1.41671">
        <ele>57.34</ele>
        <time>2013-11-10T09:34:54Z</time>
      </trkpt>
      <trkpt lat="50.08547" lon="1.41664">
        <ele>58.78</ele>
        <time>2013-11-10T09:35:06Z</time>
      </trkpt>
      <trkpt lat="50.08545" lon="1.41663">
        <ele>62.14</ele>
        <time>2013-11-10T09:35:11Z</time>
      </trkpt>
      <trkpt lat="50.08545" lon="1.4166">
        <ele>58.78</ele>
        <time>2013-11-10T09:35:14Z</time>
      </trkpt>
      <trkpt lat="50.08545" lon="1.41659">
        <ele>57.82</ele>
        <time>2013-11-10T09:35:16Z</time>
      </trkpt>
      <trkpt lat="50.08545" lon="1.41657">
        <ele>58.3</ele>
        <time>2013-11-10T09:35:21Z</time>
      </trkpt>
      <trkpt lat="50.08539" lon="1.41644">
        <ele>62.62</ele>
        <time>2013-11-10T09:35:34Z</time>
      </trkpt>
      <trkpt lat="50.08538" lon="1.41643">
        <ele>63.58</ele>
        <time>2013-11-10T09:35:35Z</time>
      </trkpt>
      <trkpt lat="50.08537" lon="1.41641">
        <ele>61.18</ele>
        <time>2013-11-10T09:35:37Z</time>
      </trkpt>
      <trkpt lat="50.08535" lon="1.41636">
        <ele>64.07</ele>
        <time>2013-11-10T09:35:41Z</time>
      </trkpt>
      <trkpt lat="50.08534" lon="1.41632">
        <ele>63.58</ele>
        <time>2013-11-10T09:35:44Z</time>
      </trkpt>
      <trkpt lat="50.08533" lon="1.41628">
        <ele>63.1</ele>
        <time>2013-11-10T09:35:47Z</time>
      </trkpt>
      <trkpt lat="50.0853" lon="1.41624">
        <ele>62.14</ele>
        <time>2013-11-10T09:35:51Z</time>
      </trkpt>
      <trkpt lat="50.08529" lon="1.41621">
        <ele>65.51</ele>
        <time>2013-11-10T09:35:54Z</time>
      </trkpt>
      <trkpt lat="50.08519" lon="1.41609">
        <ele>68.39</ele>
        <time>2013-11-10T09:36:07Z</time>
      </trkpt>
      <trkpt lat="50.08518" lon="1.41607">
        <ele>66.95</ele>
        <time>2013-11-10T09:36:09Z</time>
      </trkpt>
      <trkpt lat="50.08511" lon="1.41592">
        <ele>65.03</ele>
        <time>2013-11-10T09:36:20Z</time>
      </trkpt>
      <trkpt lat="50.0851" lon="1.41589">
        <ele>66.95</ele>
        <time>2013-11-10T09:36:22Z</time>
      </trkpt>
      <trkpt lat="50.08502" lon="1.41578">
        <ele>65.99</ele>
        <time>2013-11-10T09:36:34Z</time>
      </trkpt>
      <trkpt lat="50.08495" lon="1.41572">
        <ele>68.39</ele>
        <time>2013-11-10T09:36:40Z</time>
      </trkpt>
      <trkpt lat="50.08477" lon="1.41565">
        <ele>69.35</ele>
        <time>2013-11-10T09:36:56Z</time>
      </trkpt>
      <trkpt lat="50.08463" lon="1.41559">
        <ele>66.95</ele>
        <time>2013-11-10T09:37:09Z</time>
      </trkpt>
      <trkpt lat="50.08459" lon="1.41556">
        <ele>65.51</ele>
        <time>2013-11-10T09:37:14Z</time>
      </trkpt>
      <trkpt lat="50.0845" lon="1.41543">
        <ele>65.99</ele>
        <time>2013-11-10T09:37:30Z</time>
      </trkpt>
      <trkpt lat="50.08449" lon="1.41541">
        <ele>65.03</ele>
        <time>2013-11-10T09:37:32Z</time>
      </trkpt>
      <trkpt lat="50.08448" lon="1.41539">
        <ele>65.99</ele>
        <time>2013-11-10T09:37:33Z</time>
      </trkpt>
      <trkpt lat="50.08445" lon="1.41527">
        <ele>59.74</ele>
        <time>2013-11-10T09:37:40Z</time>
      </trkpt>
      <trkpt lat="50.08444" lon="1.41527">
        <ele>61.66</ele>
        <time>2013-11-10T09:37:41Z</time>
      </trkpt>
      <trkpt lat="50.08443" lon="1.41527">
        <ele>65.03</ele>
        <time>2013-11-10T09:37:43Z</time>
      </trkpt>
      <trkpt lat="50.08442" lon="1.41525">
        <ele>66.47</ele>
        <time>2013-11-10T09:37:45Z</time>
      </trkpt>
      <trkpt lat="50.08437" lon="1.41504">
        <ele>65.99</ele>
        <time>2013-11-10T09:37:59Z</time>
      </trkpt>
      <trkpt lat="50.08434" lon="1.41495">
        <ele>65.51</ele>
        <time>2013-11-10T09:38:05Z</time>
      </trkpt>
      <trkpt lat="50.08434" lon="1.41483">
        <ele>70.31</ele>
        <time>2013-11-10T09:38:14Z</time>
      </trkpt>
      <trkpt lat="50.08434" lon="1.41482">
        <ele>69.35</ele>
        <time>2013-11-10T09:38:15Z</time>
      </trkpt>
      <trkpt lat="50.08434" lon="1.41474">
        <ele>68.39</ele>
        <time>2013-11-10T09:38:20Z</time>
      </trkpt>
      <trkpt lat="50.08431" lon="1.41468">
        <ele>72.72</ele>
        <time>2013-11-10T09:38:24Z</time>
      </trkpt>
      <trkpt lat="50.08431" lon="1.41466">
        <ele>76.08</ele>
        <time>2013-11-10T09:38:25Z</time>
      </trkpt>
      <trkpt lat="50.0843" lon="1.41465">
        <ele>74.64</ele>
        <time>2013-11-10T09:38:26Z</time>
      </trkpt>
      <trkpt lat="50.08429" lon="1.41461">
        <ele>69.83</ele>
        <time>2013-11-10T09:38:29Z</time>
      </trkpt>
      <trkpt lat="50.08429" lon="1.4146">
        <ele>70.31</ele>
        <time>2013-11-10T09:38:30Z</time>
      </trkpt>
      <trkpt lat="50.08425" lon="1.41454">
        <ele>71.27</ele>
        <time>2013-11-10T09:38:35Z</time>
      </trkpt>
      <trkpt lat="50.08418" lon="1.41438">
        <ele>75.12</ele>
        <time>2013-11-10T09:38:45Z</time>
      </trkpt>
      <trkpt lat="50.08418" lon="1.41437">
        <ele>75.12</ele>
        <time>2013-11-10T09:38:46Z</time>
      </trkpt>
      <trkpt lat="50.08416" lon="1.41432">
        <ele>79.45</ele>
        <time>2013-11-10T09:38:50Z</time>
      </trkpt>
      <trkpt lat="50.08416" lon="1.41431">
        <ele>72.24</ele>
        <time>2013-11-10T09:38:51Z</time>
      </trkpt>
      <trkpt lat="50.08416" lon="1.4143">
        <ele>75.12</ele>
        <time>2013-11-10T09:38:52Z</time>
      </trkpt>
      <trkpt lat="50.08415" lon="1.41431">
        <ele>68.39</ele>
        <time>2013-11-10T09:38:54Z</time>
      </trkpt>
      <trkpt lat="50.08414" lon="1.41431">
        <ele>72.24</ele>
        <time>2013-11-10T09:38:55Z</time>
      </trkpt>
      <trkpt lat="50.08413" lon="1.41429">
        <ele>75.12</ele>
        <time>2013-11-10T09:38:57Z</time>
      </trkpt>
      <trkpt lat="50.08406" lon="1.41423">
        <ele>75.12</ele>
        <time>2013-11-10T09:39:05Z</time>
      </trkpt>
      <trkpt lat="50.08404" lon="1.4142">
        <ele>74.16</ele>
        <time>2013-11-10T09:39:07Z</time>
      </trkpt>
      <trkpt lat="50.08402" lon="1.41417">
        <ele>76.08</ele>
        <time>2013-11-10T09:39:09Z</time>
      </trkpt>
      <trkpt lat="50.08398" lon="1.41412">
        <ele>72.24</ele>
        <time>2013-11-10T09:39:18Z</time>
      </trkpt>
      <trkpt lat="50.08397" lon="1.41411">
        <ele>73.2</ele>
        <time>2013-11-10T09:39:19Z</time>
      </trkpt>
      <trkpt lat="50.08388" lon="1.41389">
        <ele>73.68</ele>
        <time>2013-11-10T09:39:32Z</time>
      </trkpt>
      <trkpt lat="50.08384" lon="1.41385">
        <ele>72.72</ele>
        <time>2013-11-10T09:39:36Z</time>
      </trkpt>
      <trkpt lat="50.08376" lon="1.41376">
        <ele>71.27</ele>
        <time>2013-11-10T09:39:54Z</time>
      </trkpt>
      <trkpt lat="50.08374" lon="1.41374">
        <ele>70.79</ele>
        <time>2013-11-10T09:39:56Z</time>
      </trkpt>
      <trkpt lat="50.08374" lon="1.41367">
        <ele>72.72</ele>
        <time>2013-11-10T09:40:01Z</time>
      </trkpt>
      <trkpt lat="50.08374" lon="1.41366">
        <ele>70.79</ele>
        <time>2013-11-10T09:40:08Z</time>
      </trkpt>
      <trkpt lat="50.08375" lon="1.41367">
        <ele>71.76</ele>
        <time>2013-11-10T09:40:27Z</time>
      </trkpt>
      <trkpt lat="50.08375" lon="1.41366">
        <ele>70.79</ele>
        <time>2013-11-10T09:40:31Z</time>
      </trkpt>
      <trkpt lat="50.08371" lon="1.41352">
        <ele>73.68</ele>
        <time>2013-11-10T09:40:39Z</time>
      </trkpt>
      <trkpt lat="50.08368" lon="1.41344">
        <ele>70.79</ele>
        <time>2013-11-10T09:40:44Z</time>
      </trkpt>
      <trkpt lat="50.08364" lon="1.4133">
        <ele>69.35</ele>
        <time>2013-11-10T09:40:52Z</time>
      </trkpt>
      <trkpt lat="50.08364" lon="1.41324">
        <ele>68.39</ele>
        <time>2013-11-10T09:40:56Z</time>
      </trkpt>
      <trkpt lat="50.08364" lon="1.41321">
        <ele>69.83</ele>
        <time>2013-11-10T09:40:59Z</time>
      </trkpt>
      <trkpt lat="50.08366" lon="1.41303">
        <ele>67.43</ele>
        <time>2013-11-10T09:41:10Z</time>
      </trkpt>
      <trkpt lat="50.08364" lon="1.41294">
        <ele>68.39</ele>
        <time>2013-11-10T09:41:15Z</time>
      </trkpt>
      <trkpt lat="50.08363" lon="1.41293">
        <ele>66.95</ele>
        <time>2013-11-10T09:41:17Z</time>
      </trkpt>
      <trkpt lat="50.08361" lon="1.41278">
        <ele>67.43</ele>
        <time>2013-11-10T09:41:24Z</time>
      </trkpt>
      <trkpt lat="50.0836" lon="1.41274">
        <ele>65.51</ele>
        <time>2013-11-10T09:41:27Z</time>
      </trkpt>
      <trkpt lat="50.08355" lon="1.41259">
        <ele>68.87</ele>
        <time>2013-11-10T09:41:36Z</time>
      </trkpt>
      <trkpt lat="50.0835" lon="1.41242">
        <ele>69.83</ele>
        <time>2013-11-10T09:41:48Z</time>
      </trkpt>
      <trkpt lat="50.08349" lon="1.41239">
        <ele>69.83</ele>
        <time>2013-11-10T09:41:51Z</time>
      </trkpt>
      <trkpt lat="50.08349" lon="1.41233">
        <ele>70.31</ele>
        <time>2013-11-10T09:41:55Z</time>
      </trkpt>
      <trkpt lat="50.08347" lon="1.41225">
        <ele>70.79</ele>
        <time>2013-11-10T09:42:00Z</time>
      </trkpt>
      <trkpt lat="50.08345" lon="1.4122">
        <ele>71.76</ele>
        <time>2013-11-10T09:42:05Z</time>
      </trkpt>
      <trkpt lat="50.08342" lon="1.41202">
        <ele>70.79</ele>
        <time>2013-11-10T09:42:17Z</time>
      </trkpt>
      <trkpt lat="50.08336" lon="1.41186">
        <ele>72.72</ele>
        <time>2013-11-10T09:42:28Z</time>
      </trkpt>
      <trkpt lat="50.08337" lon="1.41185">
        <ele>72.72</ele>
        <time>2013-11-10T09:42:29Z</time>
      </trkpt>
      <trkpt lat="50.08335" lon="1.41178">
        <ele>72.24</ele>
        <time>2013-11-10T09:42:32Z</time>
      </trkpt>
      <trkpt lat="50.08337" lon="1.4117">
        <ele>71.27</ele>
        <time>2013-11-10T09:42:39Z</time>
      </trkpt>
      <trkpt lat="50.08335" lon="1.41154">
        <ele>72.24</ele>
        <time>2013-11-10T09:42:51Z</time>
      </trkpt>
      <trkpt lat="50.08331" lon="1.41151">
        <ele>72.24</ele>
        <time>2013-11-10T09:42:58Z</time>
      </trkpt>
      <trkpt lat="50.0833" lon="1.41143">
        <ele>72.72</ele>
        <time>2013-11-10T09:43:02Z</time>
      </trkpt>
      <trkpt lat="50.08319" lon="1.41121">
        <ele>74.16</ele>
        <time>2013-11-10T09:43:14Z</time>
      </trkpt>
      <trkpt lat="50.08306" lon="1.41098">
        <ele>73.2</ele>
        <time>2013-11-10T09:43:29Z</time>
      </trkpt>
      <trkpt lat="50.08303" lon="1.41091">
        <ele>72.24</ele>
        <time>2013-11-10T09:43:33Z</time>
      </trkpt>
      <trkpt lat="50.08302" lon="1.41088">
        <ele>76.08</ele>
        <time>2013-11-10T09:43:37Z</time>
      </trkpt>
      <trkpt lat="50.08301" lon="1.41087">
        <ele>71.76</ele>
        <time>2013-11-10T09:43:39Z</time>
      </trkpt>
      <trkpt lat="50.08301" lon="1.41085">
        <ele>76.08</ele>
        <time>2013-11-10T09:43:40Z</time>
      </trkpt>
      <trkpt lat="50.08299" lon="1.4108">
        <ele>80.41</ele>
        <time>2013-11-10T09:43:42Z</time>
      </trkpt>
      <trkpt lat="50.08298" lon="1.41077">
        <ele>76.56</ele>
        <time>2013-11-10T09:43:43Z</time>
      </trkpt>
      <trkpt lat="50.08294" lon="1.41063">
        <ele>76.08</ele>
        <time>2013-11-10T09:43:51Z</time>
      </trkpt>
      <trkpt lat="50.08294" lon="1.41061">
        <ele>75.6</ele>
        <time>2013-11-10T09:43:52Z</time>
      </trkpt>
      <trkpt lat="50.08286" lon="1.41042">
        <ele>79.45</ele>
        <time>2013-11-10T09:44:04Z</time>
      </trkpt>
      <trkpt lat="50.08285" lon="1.41041">
        <ele>78.48</ele>
        <time>2013-11-10T09:44:05Z</time>
      </trkpt>
      <trkpt lat="50.08283" lon="1.41032">
        <ele>74.64</ele>
        <time>2013-11-10T09:44:12Z</time>
      </trkpt>
      <trkpt lat="50.08282" lon="1.4103">
        <ele>75.12</ele>
        <time>2013-11-10T09:44:13Z</time>
      </trkpt>
      <trkpt lat="50.08275" lon="1.41011">
        <ele>77.52</ele>
        <time>2013-11-10T09:44:26Z</time>
      </trkpt>
      <trkpt lat="50.0827" lon="1.40997">
        <ele>76.08</ele>
        <time>2013-11-10T09:44:35Z</time>
      </trkpt>
      <trkpt lat="50.08269" lon="1.40993">
        <ele>77.52</ele>
        <time>2013-11-10T09:44:38Z</time>
      </trkpt>
      <trkpt lat="50.08268" lon="1.40992">
        <ele>76.56</ele>
        <time>2013-11-10T09:44:40Z</time>
      </trkpt>
      <trkpt lat="50.08258" lon="1.40972">
        <ele>78.48</ele>
        <time>2013-11-10T09:44:55Z</time>
      </trkpt>
      <trkpt lat="50.08246" lon="1.4095">
        <ele>76.56</ele>
        <time>2013-11-10T09:45:09Z</time>
      </trkpt>
      <trkpt lat="50.08245" lon="1.40947">
        <ele>75.6</ele>
        <time>2013-11-10T09:45:11Z</time>
      </trkpt>
      <trkpt lat="50.08234" lon="1.4093">
        <ele>76.08</ele>
        <time>2013-11-10T09:45:23Z</time>
      </trkpt>
      <trkpt lat="50.08234" lon="1.4093">
        <ele>76.08</ele>
        <time>2013-11-10T09:45:24Z</time>
      </trkpt>
      <trkpt lat="50.08226" lon="1.40917">
        <ele>74.64</ele>
        <time>2013-11-10T09:45:34Z</time>
      </trkpt>
      <trkpt lat="50.08221" lon="1.40907">
        <ele>78.48</ele>
        <time>2013-11-10T09:45:40Z</time>
      </trkpt>
      <trkpt lat="50.08211" lon="1.4089">
        <ele>77.04</ele>
        <time>2013-11-10T09:45:51Z</time>
      </trkpt>
      <trkpt lat="50.0821" lon="1.40885">
        <ele>75.6</ele>
        <time>2013-11-10T09:45:55Z</time>
      </trkpt>
      <trkpt lat="50.08208" lon="1.40883">
        <ele>75.6</ele>
        <time>2013-11-10T09:45:58Z</time>
      </trkpt>
      <trkpt lat="50.082" lon="1.40871">
        <ele>77.52</ele>
        <time>2013-11-10T09:46:04Z</time>
      </trkpt>
      <trkpt lat="50.08196" lon="1.40865">
        <ele>78.48</ele>
        <time>2013-11-10T09:46:09Z</time>
      </trkpt>
      <trkpt lat="50.08184" lon="1.40844">
        <ele>78</ele>
        <time>2013-11-10T09:46:25Z</time>
      </trkpt>
      <trkpt lat="50.08177" lon="1.40834">
        <ele>76.08</ele>
        <time>2013-11-10T09:46:33Z</time>
      </trkpt>
      <trkpt lat="50.08172" lon="1.40828">
        <ele>75.12</ele>
        <time>2013-11-10T09:46:38Z</time>
      </trkpt>
      <trkpt lat="50.08171" lon="1.40826">
        <ele>72.24</ele>
        <time>2013-11-10T09:46:40Z</time>
      </trkpt>
      <trkpt lat="50.0817" lon="1.40824">
        <ele>76.08</ele>
        <time>2013-11-10T09:46:41Z</time>
      </trkpt>
      <trkpt lat="50.08169" lon="1.40823">
        <ele>75.6</ele>
        <time>2013-11-10T09:46:42Z</time>
      </trkpt>
      <trkpt lat="50.08167" lon="1.40818">
        <ele>73.68</ele>
        <time>2013-11-10T09:46:45Z</time>
      </trkpt>
      <trkpt lat="50.08164" lon="1.40814">
        <ele>75.6</ele>
        <time>2013-11-10T09:46:48Z</time>
      </trkpt>
      <trkpt lat="50.08152" lon="1.40795">
        <ele>73.68</ele>
        <time>2013-11-10T09:47:02Z</time>
      </trkpt>
      <trkpt lat="50.08149" lon="1.40786">
        <ele>72.72</ele>
        <time>2013-11-10T09:47:07Z</time>
      </trkpt>
      <trkpt lat="50.08151" lon="1.4078">
        <ele>70.79</ele>
        <time>2013-11-10T09:47:17Z</time>
      </trkpt>
      <trkpt lat="50.08151" lon="1.4078">
        <ele>70.79</ele>
        <time>2013-11-10T09:47:36Z</time>
      </trkpt>
      <trkpt lat="50.08151" lon="1.40779">
        <ele>72.24</ele>
        <time>2013-11-10T09:47:43Z</time>
      </trkpt>
      <trkpt lat="50.08152" lon="1.40778">
        <ele>72.72</ele>
        <time>2013-11-10T09:48:01Z</time>
      </trkpt>
      <trkpt lat="50.08152" lon="1.40777">
        <ele>71.27</ele>
        <time>2013-11-10T09:48:02Z</time>
      </trkpt>
      <trkpt lat="50.08146" lon="1.4076">
        <ele>70.79</ele>
        <time>2013-11-10T09:48:20Z</time>
      </trkpt>
      <trkpt lat="50.08146" lon="1.4076">
        <ele>71.76</ele>
        <time>2013-11-10T09:48:35Z</time>
      </trkpt>
      <trkpt lat="50.08146" lon="1.4076">
        <ele>67.91</ele>
        <time>2013-11-10T09:48:41Z</time>
      </trkpt>
      <trkpt lat="50.08147" lon="1.40761">
        <ele>71.76</ele>
        <time>2013-11-10T09:48:46Z</time>
      </trkpt>
      <trkpt lat="50.08145" lon="1.40761">
        <ele>69.83</ele>
        <time>2013-11-10T09:49:00Z</time>
      </trkpt>
      <trkpt lat="50.08144" lon="1.40752">
        <ele>70.31</ele>
        <time>2013-11-10T09:49:14Z</time>
      </trkpt>
      <trkpt lat="50.08138" lon="1.40743">
        <ele>65.99</ele>
        <time>2013-11-10T09:49:21Z</time>
      </trkpt>
      <trkpt lat="50.08135" lon="1.40737">
        <ele>73.2</ele>
        <time>2013-11-10T09:49:25Z</time>
      </trkpt>
      <trkpt lat="50.08133" lon="1.40735">
        <ele>74.16</ele>
        <time>2013-11-10T09:49:27Z</time>
      </trkpt>
      <trkpt lat="50.08132" lon="1.40734">
        <ele>69.83</ele>
        <time>2013-11-10T09:49:28Z</time>
      </trkpt>
      <trkpt lat="50.08131" lon="1.40732">
        <ele>63.58</ele>
        <time>2013-11-10T09:49:30Z</time>
      </trkpt>
      <trkpt lat="50.0813" lon="1.4073">
        <ele>65.03</ele>
        <time>2013-11-10T09:49:31Z</time>
      </trkpt>
      <trkpt lat="50.08129" lon="1.40729">
        <ele>68.39</ele>
        <time>2013-11-10T09:49:32Z</time>
      </trkpt>
      <trkpt lat="50.08128" lon="1.40727">
        <ele>67.91</ele>
        <time>2013-11-10T09:49:33Z</time>
      </trkpt>
      <trkpt lat="50.0812" lon="1.40716">
        <ele>64.55</ele>
        <time>2013-11-10T09:49:41Z</time>
      </trkpt>
      <trkpt lat="50.08116" lon="1.40711">
        <ele>61.18</ele>
        <time>2013-11-10T09:49:45Z</time>
      </trkpt>
      <trkpt lat="50.08113" lon="1.40707">
        <ele>63.1</ele>
        <time>2013-11-10T09:49:48Z</time>
      </trkpt>
      <trkpt lat="50.08109" lon="1.40701">
        <ele>66.95</ele>
        <time>2013-11-10T09:49:52Z</time>
      </trkpt>
      <trkpt lat="50.08108" lon="1.40699">
        <ele>64.55</ele>
        <time>2013-11-10T09:49:53Z</time>
      </trkpt>
      <trkpt lat="50.08103" lon="1.40691">
        <ele>62.14</ele>
        <time>2013-11-10T09:49:59Z</time>
      </trkpt>
      <trkpt lat="50.08098" lon="1.40685">
        <ele>62.62</ele>
        <time>2013-11-10T09:50:04Z</time>
      </trkpt>
      <trkpt lat="50.08097" lon="1.40683">
        <ele>69.83</ele>
        <time>2013-11-10T09:50:05Z</time>
      </trkpt>
      <trkpt lat="50.08096" lon="1.40682">
        <ele>67.43</ele>
        <time>2013-11-10T09:50:06Z</time>
      </trkpt>
      <trkpt lat="50.08096" lon="1.4068">
        <ele>63.1</ele>
        <time>2013-11-10T09:50:07Z</time>
      </trkpt>
      <trkpt lat="50.08093" lon="1.40676">
        <ele>58.3</ele>
        <time>2013-11-10T09:50:10Z</time>
      </trkpt>
      <trkpt lat="50.08092" lon="1.40675">
        <ele>58.78</ele>
        <time>2013-11-10T09:50:11Z</time>
      </trkpt>
      <trkpt lat="50.08091" lon="1.40674">
        <ele>62.14</ele>
        <time>2013-11-10T09:50:12Z</time>
      </trkpt>
      <trkpt lat="50.0809" lon="1.40672">
        <ele>62.14</ele>
        <time>2013-11-10T09:50:13Z</time>
      </trkpt>
      <trkpt lat="50.08089" lon="1.4067">
        <ele>65.03</ele>
        <time>2013-11-10T09:50:15Z</time>
      </trkpt>
      <trkpt lat="50.08086" lon="1.40667">
        <ele>61.18</ele>
        <time>2013-11-10T09:50:18Z</time>
      </trkpt>
      <trkpt lat="50.08084" lon="1.40664">
        <ele>60.22</ele>
        <time>2013-11-10T09:50:20Z</time>
      </trkpt>
      <trkpt lat="50.0808" lon="1.40659">
        <ele>59.26</ele>
        <time>2013-11-10T09:50:24Z</time>
      </trkpt>
      <trkpt lat="50.08073" lon="1.40648">
        <ele>57.34</ele>
        <time>2013-11-10T09:50:33Z</time>
      </trkpt>
      <trkpt lat="50.08059" lon="1.40631">
        <ele>56.37</ele>
        <time>2013-11-10T09:50:49Z</time>
      </trkpt>
      <trkpt lat="50.08049" lon="1.40622">
        <ele>53.49</ele>
        <time>2013-11-10T09:50:58Z</time>
      </trkpt>
      <trkpt lat="50.08043" lon="1.40615">
        <ele>56.37</ele>
        <time>2013-11-10T09:51:04Z</time>
      </trkpt>
      <trkpt lat="50.08042" lon="1.40614">
        <ele>55.89</ele>
        <time>2013-11-10T09:51:05Z</time>
      </trkpt>
      <trkpt lat="50.0804" lon="1.40611">
        <ele>53.49</ele>
        <time>2013-11-10T09:51:07Z</time>
      </trkpt>
      <trkpt lat="50.08037" lon="1.40601">
        <ele>53.97</ele>
        <time>2013-11-10T09:51:18Z</time>
      </trkpt>
      <trkpt lat="50.08033" lon="1.40597">
        <ele>56.37</ele>
        <time>2013-11-10T09:51:22Z</time>
      </trkpt>
      <trkpt lat="50.08031" lon="1.40594">
        <ele>54.45</ele>
        <time>2013-11-10T09:51:24Z</time>
      </trkpt>
      <trkpt lat="50.08026" lon="1.40578">
        <ele>58.3</ele>
        <time>2013-11-10T09:51:33Z</time>
      </trkpt>
      <trkpt lat="50.08024" lon="1.40572">
        <ele>56.37</ele>
        <time>2013-11-10T09:51:37Z</time>
      </trkpt>
      <trkpt lat="50.08021" lon="1.40567">
        <ele>57.82</ele>
        <time>2013-11-10T09:51:42Z</time>
      </trkpt>
      <trkpt lat="50.08017" lon="1.40557">
        <ele>58.78</ele>
        <time>2013-11-10T09:51:53Z</time>
      </trkpt>
      <trkpt lat="50.08016" lon="1.40553">
        <ele>60.22</ele>
        <time>2013-11-10T09:51:58Z</time>
      </trkpt>
      <trkpt lat="50.0802" lon="1.40543">
        <ele>61.66</ele>
        <time>2013-11-10T09:52:14Z</time>
      </trkpt>
      <trkpt lat="50.08022" lon="1.40534">
        <ele>63.58</ele>
        <time>2013-11-10T09:52:27Z</time>
      </trkpt>
      <trkpt lat="50.08017" lon="1.40524">
        <ele>66.95</ele>
        <time>2013-11-10T09:52:40Z</time>
      </trkpt>
      <trkpt lat="50.08012" lon="1.40512">
        <ele>68.87</ele>
        <time>2013-11-10T09:52:54Z</time>
      </trkpt>
      <trkpt lat="50.08006" lon="1.40499">
        <ele>70.79</ele>
        <time>2013-11-10T09:53:08Z</time>
      </trkpt>
      <trkpt lat="50.08001" lon="1.40493">
        <ele>71.76</ele>
        <time>2013-11-10T09:53:14Z</time>
      </trkpt>
      <trkpt lat="50.07988" lon="1.40468">
        <ele>73.68</ele>
        <time>2013-11-10T09:53:33Z</time>
      </trkpt>
      <trkpt lat="50.07985" lon="1.40462">
        <ele>77.04</ele>
        <time>2013-11-10T09:53:38Z</time>
      </trkpt>
      <trkpt lat="50.07984" lon="1.40459">
        <ele>77.52</ele>
        <time>2013-11-10T09:53:40Z</time>
      </trkpt>
      <trkpt lat="50.07981" lon="1.40445">
        <ele>76.08</ele>
        <time>2013-11-10T09:53:51Z</time>
      </trkpt>
      <trkpt lat="50.07977" lon="1.40427">
        <ele>75.6</ele>
        <time>2013-11-10T09:54:02Z</time>
      </trkpt>
      <trkpt lat="50.07973" lon="1.40391">
        <ele>76.08</ele>
        <time>2013-11-10T09:54:23Z</time>
      </trkpt>
      <trkpt lat="50.07974" lon="1.40387">
        <ele>74.64</ele>
        <time>2013-11-10T09:54:26Z</time>
      </trkpt>
      <trkpt lat="50.07986" lon="1.40372">
        <ele>77.04</ele>
        <time>2013-11-10T09:54:38Z</time>
      </trkpt>
      <trkpt lat="50.07989" lon="1.40369">
        <ele>75.6</ele>
        <time>2013-11-10T09:54:41Z</time>
      </trkpt>
      <trkpt lat="50.0799" lon="1.40366">
        <ele>73.68</ele>
        <time>2013-11-10T09:54:45Z</time>
      </trkpt>
      <trkpt lat="50.07991" lon="1.40364">
        <ele>73.68</ele>
        <time>2013-11-10T09:54:47Z</time>
      </trkpt>
      <trkpt lat="50.07993" lon="1.4035">
        <ele>71.27</ele>
        <time>2013-11-10T09:54:55Z</time>
      </trkpt>
      <trkpt lat="50.0799" lon="1.40345">
        <ele>69.83</ele>
        <time>2013-11-10T09:54:58Z</time>
      </trkpt>
      <trkpt lat="50.07986" lon="1.40339">
        <ele>70.31</ele>
        <time>2013-11-10T09:55:02Z</time>
      </trkpt>
      <trkpt lat="50.07979" lon="1.40329">
        <ele>73.68</ele>
        <time>2013-11-10T09:55:09Z</time>
      </trkpt>
      <trkpt lat="50.07978" lon="1.40328">
        <ele>69.83</ele>
        <time>2013-11-10T09:55:10Z</time>
      </trkpt>
      <trkpt lat="50.07974" lon="1.40323">
        <ele>70.79</ele>
        <time>2013-11-10T09:55:15Z</time>
      </trkpt>
      <trkpt lat="50.07971" lon="1.40319">
        <ele>68.87</ele>
        <time>2013-11-10T09:55:18Z</time>
      </trkpt>
      <trkpt lat="50.07958" lon="1.40297">
        <ele>69.35</ele>
        <time>2013-11-10T09:55:33Z</time>
      </trkpt>
      <trkpt lat="50.07957" lon="1.4029">
        <ele>65.51</ele>
        <time>2013-11-10T09:55:38Z</time>
      </trkpt>
      <trkpt lat="50.07956" lon="1.40289">
        <ele>66.95</ele>
        <time>2013-11-10T09:55:39Z</time>
      </trkpt>
      <trkpt lat="50.07955" lon="1.40285">
        <ele>69.83</ele>
        <time>2013-11-10T09:55:41Z</time>
      </trkpt>
      <trkpt lat="50.07949" lon="1.40264">
        <ele>67.91</ele>
        <time>2013-11-10T09:55:51Z</time>
      </trkpt>
      <trkpt lat="50.07947" lon="1.40251">
        <ele>70.79</ele>
        <time>2013-11-10T09:56:02Z</time>
      </trkpt>
      <trkpt lat="50.07947" lon="1.4025">
        <ele>66.95</ele>
        <time>2013-11-10T09:56:06Z</time>
      </trkpt>
      <trkpt lat="50.07946" lon="1.4025">
        <ele>67.43</ele>
        <time>2013-11-10T09:56:07Z</time>
      </trkpt>
      <trkpt lat="50.07944" lon="1.40249">
        <ele>68.87</ele>
        <time>2013-11-10T09:56:17Z</time>
      </trkpt>
      <trkpt lat="50.07945" lon="1.40247">
        <ele>67.43</ele>
        <time>2013-11-10T09:56:30Z</time>
      </trkpt>
      <trkpt lat="50.07944" lon="1.40245">
        <ele>64.55</ele>
        <time>2013-11-10T09:56:39Z</time>
      </trkpt>
      <trkpt lat="50.07944" lon="1.40244">
        <ele>64.07</ele>
        <time>2013-11-10T09:56:41Z</time>
      </trkpt>
      <trkpt lat="50.07943" lon="1.40243">
        <ele>64.07</ele>
        <time>2013-11-10T09:56:53Z</time>
      </trkpt>
      <trkpt lat="50.07942" lon="1.40241">
        <ele>62.62</ele>
        <time>2013-11-10T09:57:00Z</time>
      </trkpt>
      <trkpt lat="50.07945" lon="1.4023">
        <ele>59.74</ele>
        <time>2013-11-10T09:57:10Z</time>
      </trkpt>
      <trkpt lat="50.07944" lon="1.40212">
        <ele>56.37</ele>
        <time>2013-11-10T09:57:23Z</time>
      </trkpt>
      <trkpt lat="50.07941" lon="1.4021">
        <ele>55.41</ele>
        <time>2013-11-10T09:57:25Z</time>
      </trkpt>
      <trkpt lat="50.07937" lon="1.40208">
        <ele>55.89</ele>
        <time>2013-11-10T09:57:28Z</time>
      </trkpt>
      <trkpt lat="50.07935" lon="1.402">
        <ele>59.26</ele>
        <time>2013-11-10T09:57:33Z</time>
      </trkpt>
      <trkpt lat="50.07935" lon="1.40201">
        <ele>59.26</ele>
        <time>2013-11-10T09:57:34Z</time>
      </trkpt>
      <trkpt lat="50.07934" lon="1.40197">
        <ele>60.7</ele>
        <time>2013-11-10T09:57:37Z</time>
      </trkpt>
      <trkpt lat="50.07934" lon="1.40194">
        <ele>58.3</ele>
        <time>2013-11-10T09:57:39Z</time>
      </trkpt>
      <trkpt lat="50.07928" lon="1.40175">
        <ele>65.03</ele>
        <time>2013-11-10T09:57:48Z</time>
      </trkpt>
      <trkpt lat="50.07927" lon="1.40172">
        <ele>62.62</ele>
        <time>2013-11-10T09:57:49Z</time>
      </trkpt>
      <trkpt lat="50.07926" lon="1.40167">
        <ele>63.1</ele>
        <time>2013-11-10T09:57:52Z</time>
      </trkpt>
      <trkpt lat="50.07926" lon="1.40165">
        <ele>61.18</ele>
        <time>2013-11-10T09:57:53Z</time>
      </trkpt>
      <trkpt lat="50.07926" lon="1.40163">
        <ele>60.7</ele>
        <time>2013-11-10T09:57:54Z</time>
      </trkpt>
      <trkpt lat="50.07926" lon="1.40161">
        <ele>60.22</ele>
        <time>2013-11-10T09:57:55Z</time>
      </trkpt>
      <trkpt lat="50.07926" lon="1.40153">
        <ele>58.3</ele>
        <time>2013-11-10T09:58:00Z</time>
      </trkpt>
      <trkpt lat="50.07926" lon="1.4015">
        <ele>58.78</ele>
        <time>2013-11-10T09:58:02Z</time>
      </trkpt>
      <trkpt lat="50.07926" lon="1.40148">
        <ele>58.3</ele>
        <time>2013-11-10T09:58:03Z</time>
      </trkpt>
      <trkpt lat="50.07926" lon="1.40146">
        <ele>58.78</ele>
        <time>2013-11-10T09:58:04Z</time>
      </trkpt>
      <trkpt lat="50.07932" lon="1.40141">
        <ele>59.26</ele>
        <time>2013-11-10T09:58:17Z</time>
      </trkpt>
      <trkpt lat="50.07929" lon="1.40145">
        <ele>61.18</ele>
        <time>2013-11-10T09:58:32Z</time>
      </trkpt>
      <trkpt lat="50.07928" lon="1.40145">
        <ele>61.66</ele>
        <time>2013-11-10T09:58:33Z</time>
      </trkpt>
      <trkpt lat="50.07927" lon="1.40146">
        <ele>62.14</ele>
        <time>2013-11-10T09:58:34Z</time>
      </trkpt>
      <trkpt lat="50.07922" lon="1.40142">
        <ele>65.51</ele>
        <time>2013-11-10T09:58:38Z</time>
      </trkpt>
      <trkpt lat="50.07921" lon="1.40141">
        <ele>64.07</ele>
        <time>2013-11-10T09:58:39Z</time>
      </trkpt>
      <trkpt lat="50.07919" lon="1.4014">
        <ele>64.07</ele>
        <time>2013-11-10T09:58:40Z</time>
      </trkpt>
      <trkpt lat="50.07918" lon="1.40139">
        <ele>64.55</ele>
        <time>2013-11-10T09:58:41Z</time>
      </trkpt>
      <trkpt lat="50.07917" lon="1.40137">
        <ele>65.99</ele>
        <time>2013-11-10T09:58:42Z</time>
      </trkpt>
      <trkpt lat="50.07914" lon="1.40134">
        <ele>69.35</ele>
        <time>2013-11-10T09:58:48Z</time>
      </trkpt>
      <trkpt lat="50.07911" lon="1.40132">
        <ele>72.72</ele>
        <time>2013-11-10T09:58:52Z</time>
      </trkpt>
      <trkpt lat="50.0791" lon="1.40131">
        <ele>67.91</ele>
        <time>2013-11-10T09:58:53Z</time>
      </trkpt>
      <trkpt lat="50.07908" lon="1.40131">
        <ele>72.72</ele>
        <time>2013-11-10T09:58:55Z</time>
      </trkpt>
      <trkpt lat="50.07908" lon="1.4013">
        <ele>72.72</ele>
        <time>2013-11-10T09:58:56Z</time>
      </trkpt>
      <trkpt lat="50.07906" lon="1.40122">
        <ele>69.35</ele>
        <time>2013-11-10T09:59:03Z</time>
      </trkpt>
      <trkpt lat="50.079" lon="1.40107">
        <ele>72.72</ele>
        <time>2013-11-10T09:59:17Z</time>
      </trkpt>
      <trkpt lat="50.079" lon="1.40102">
        <ele>73.2</ele>
        <time>2013-11-10T09:59:30Z</time>
      </trkpt>
      <trkpt lat="50.07896" lon="1.40105">
        <ele>73.2</ele>
        <time>2013-11-10T09:59:44Z</time>
      </trkpt>
      <trkpt lat="50.07898" lon="1.40096">
        <ele>74.16</ele>
        <time>2013-11-10T10:00:01Z</time>
      </trkpt>
      <trkpt lat="50.07898" lon="1.40092">
        <ele>75.6</ele>
        <time>2013-11-10T10:00:04Z</time>
      </trkpt>
      <trkpt lat="50.07902" lon="1.40092">
        <ele>76.08</ele>
        <time>2013-11-10T10:00:18Z</time>
      </trkpt>
      <trkpt lat="50.07902" lon="1.40093">
        <ele>73.2</ele>
        <time>2013-11-10T10:00:47Z</time>
      </trkpt>
      <trkpt lat="50.07901" lon="1.40094">
        <ele>71.76</ele>
        <time>2013-11-10T10:00:53Z</time>
      </trkpt>
      <trkpt lat="50.079" lon="1.40094">
        <ele>73.2</ele>
        <time>2013-11-10T10:00:54Z</time>
      </trkpt>
      <trkpt lat="50.07899" lon="1.40094">
        <ele>73.2</ele>
        <time>2013-11-10T10:00:55Z</time>
      </trkpt>
      <trkpt lat="50.07883" lon="1.40074">
        <ele>73.68</ele>
        <time>2013-11-10T10:01:12Z</time>
      </trkpt>
      <trkpt lat="50.0788" lon="1.40071">
        <ele>72.72</ele>
        <time>2013-11-10T10:01:15Z</time>
      </trkpt>
      <trkpt lat="50.07862" lon="1.40041">
        <ele>74.64</ele>
        <time>2013-11-10T10:01:37Z</time>
      </trkpt>
      <trkpt lat="50.07852" lon="1.40019">
        <ele>74.64</ele>
        <time>2013-11-10T10:01:54Z</time>
      </trkpt>
      <trkpt lat="50.07847" lon="1.40012">
        <ele>76.08</ele>
        <time>2013-11-10T10:02:06Z</time>
      </trkpt>
      <trkpt lat="50.07846" lon="1.40011">
        <ele>76.08</ele>
        <time>2013-11-10T10:02:07Z</time>
      </trkpt>
      <trkpt lat="50.07841" lon="1.4">
        <ele>76.08</ele>
        <time>2013-11-10T10:02:20Z</time>
      </trkpt>
      <trkpt lat="50.07843" lon="1.39999">
        <ele>81.37</ele>
        <time>2013-11-10T10:02:34Z</time>
      </trkpt>
      <trkpt lat="50.07845" lon="1.40001">
        <ele>77.52</ele>
        <time>2013-11-10T10:02:37Z</time>
      </trkpt>
      <trkpt lat="50.07846" lon="1.40004">
        <ele>74.16</ele>
        <time>2013-11-10T10:02:47Z</time>
      </trkpt>
      <trkpt lat="50.07845" lon="1.40005">
        <ele>76.08</ele>
        <time>2013-11-10T10:03:04Z</time>
      </trkpt>
      <trkpt lat="50.07846" lon="1.40003">
        <ele>73.68</ele>
        <time>2013-11-10T10:03:38Z</time>
      </trkpt>
      <trkpt lat="50.07837" lon="1.3999">
        <ele>73.68</ele>
        <time>2013-11-10T10:03:56Z</time>
      </trkpt>
      <trkpt lat="50.07818" lon="1.3996">
        <ele>73.2</ele>
        <time>2013-11-10T10:04:17Z</time>
      </trkpt>
      <trkpt lat="50.07805" lon="1.39942">
        <ele>76.08</ele>
        <time>2013-11-10T10:04:32Z</time>
      </trkpt>
      <trkpt lat="50.07799" lon="1.39929">
        <ele>73.2</ele>
        <time>2013-11-10T10:04:42Z</time>
      </trkpt>
      <trkpt lat="50.07797" lon="1.39926">
        <ele>74.64</ele>
        <time>2013-11-10T10:04:45Z</time>
      </trkpt>
      <trkpt lat="50.07788" lon="1.39905">
        <ele>73.2</ele>
        <time>2013-11-10T10:04:59Z</time>
      </trkpt>
      <trkpt lat="50.07785" lon="1.39895">
        <ele>76.08</ele>
        <time>2013-11-10T10:05:15Z</time>
      </trkpt>
      <trkpt lat="50.07775" lon="1.39868">
        <ele>75.6</ele>
        <time>2013-11-10T10:05:31Z</time>
      </trkpt>
      <trkpt lat="50.07773" lon="1.39842">
        <ele>78.48</ele>
        <time>2013-11-10T10:05:43Z</time>
      </trkpt>
      <trkpt lat="50.07773" lon="1.39838">
        <ele>74.64</ele>
        <time>2013-11-10T10:05:45Z</time>
      </trkpt>
      <trkpt lat="50.07772" lon="1.39837">
        <ele>74.64</ele>
        <time>2013-11-10T10:05:46Z</time>
      </trkpt>
      <trkpt lat="50.07772" lon="1.39834">
        <ele>80.41</ele>
        <time>2013-11-10T10:05:47Z</time>
      </trkpt>
      <trkpt lat="50.07772" lon="1.39832">
        <ele>79.93</ele>
        <time>2013-11-10T10:05:48Z</time>
      </trkpt>
      <trkpt lat="50.07771" lon="1.39828">
        <ele>85.69</ele>
        <time>2013-11-10T10:05:50Z</time>
      </trkpt>
      <trkpt lat="50.0777" lon="1.39826">
        <ele>85.21</ele>
        <time>2013-11-10T10:05:51Z</time>
      </trkpt>
      <trkpt lat="50.07769" lon="1.39823">
        <ele>90.02</ele>
        <time>2013-11-10T10:05:53Z</time>
      </trkpt>
      <trkpt lat="50.07768" lon="1.39821">
        <ele>89.54</ele>
        <time>2013-11-10T10:05:54Z</time>
      </trkpt>
      <trkpt lat="50.07768" lon="1.39819">
        <ele>93.87</ele>
        <time>2013-11-10T10:05:55Z</time>
      </trkpt>
      <trkpt lat="50.07764" lon="1.39812">
        <ele>94.35</ele>
        <time>2013-11-10T10:05:59Z</time>
      </trkpt>
      <trkpt lat="50.07763" lon="1.39808">
        <ele>89.06</ele>
        <time>2013-11-10T10:06:01Z</time>
      </trkpt>
      <trkpt lat="50.07762" lon="1.39806">
        <ele>91.94</ele>
        <time>2013-11-10T10:06:02Z</time>
      </trkpt>
      <trkpt lat="50.07761" lon="1.39802">
        <ele>86.66</ele>
        <time>2013-11-10T10:06:04Z</time>
      </trkpt>
      <trkpt lat="50.07761" lon="1.39801">
        <ele>86.66</ele>
        <time>2013-11-10T10:06:05Z</time>
      </trkpt>
      <trkpt lat="50.0776" lon="1.39797">
        <ele>81.85</ele>
        <time>2013-11-10T10:06:07Z</time>
      </trkpt>
      <trkpt lat="50.07759" lon="1.39796">
        <ele>81.85</ele>
        <time>2013-11-10T10:06:08Z</time>
      </trkpt>
      <trkpt lat="50.07754" lon="1.39785">
        <ele>82.81</ele>
        <time>2013-11-10T10:06:15Z</time>
      </trkpt>
      <trkpt lat="50.07747" lon="1.39772">
        <ele>80.89</ele>
        <time>2013-11-10T10:06:24Z</time>
      </trkpt>
      <trkpt lat="50.07739" lon="1.39761">
        <ele>81.37</ele>
        <time>2013-11-10T10:06:33Z</time>
      </trkpt>
      <trkpt lat="50.07723" lon="1.39736">
        <ele>81.37</ele>
        <time>2013-11-10T10:06:50Z</time>
      </trkpt>
      <trkpt lat="50.07713" lon="1.39711">
        <ele>85.21</ele>
        <time>2013-11-10T10:07:04Z</time>
      </trkpt>
      <trkpt lat="50.07711" lon="1.39707">
        <ele>81.37</ele>
        <time>2013-11-10T10:07:07Z</time>
      </trkpt>
      <trkpt lat="50.07698" lon="1.39679">
        <ele>80.41</ele>
        <time>2013-11-10T10:07:25Z</time>
      </trkpt>
      <trkpt lat="50.07682" lon="1.39649">
        <ele>79.93</ele>
        <time>2013-11-10T10:07:44Z</time>
      </trkpt>
      <trkpt lat="50.07661" lon="1.39618">
        <ele>79.45</ele>
        <time>2013-11-10T10:08:07Z</time>
      </trkpt>
      <trkpt lat="50.07657" lon="1.39613">
        <ele>81.37</ele>
        <time>2013-11-10T10:08:12Z</time>
      </trkpt>
      <trkpt lat="50.07639" lon="1.39585">
        <ele>80.41</ele>
        <time>2013-11-10T10:08:32Z</time>
      </trkpt>
      <trkpt lat="50.07633" lon="1.39564">
        <ele>82.81</ele>
        <time>2013-11-10T10:08:43Z</time>
      </trkpt>
      <trkpt lat="50.07621" lon="1.39542">
        <ele>80.41</ele>
        <time>2013-11-10T10:08:58Z</time>
      </trkpt>
      <trkpt lat="50.07606" lon="1.39511">
        <ele>80.89</ele>
        <time>2013-11-10T10:09:18Z</time>
      </trkpt>
      <trkpt lat="50.07597" lon="1.39489">
        <ele>79.45</ele>
        <time>2013-11-10T10:09:31Z</time>
      </trkpt>
      <trkpt lat="50.0759" lon="1.3946">
        <ele>79.45</ele>
        <time>2013-11-10T10:09:47Z</time>
      </trkpt>
      <trkpt lat="50.07583" lon="1.39443">
        <ele>79.93</ele>
        <time>2013-11-10T10:09:58Z</time>
      </trkpt>
      <trkpt lat="50.07582" lon="1.39441">
        <ele>79.45</ele>
        <time>2013-11-10T10:09:59Z</time>
      </trkpt>
      <trkpt lat="50.07582" lon="1.39439">
        <ele>79.45</ele>
        <time>2013-11-10T10:10:00Z</time>
      </trkpt>
      <trkpt lat="50.07582" lon="1.39437">
        <ele>79.45</ele>
        <time>2013-11-10T10:10:01Z</time>
      </trkpt>
      <trkpt lat="50.07581" lon="1.39435">
        <ele>79.93</ele>
        <time>2013-11-10T10:10:02Z</time>
      </trkpt>
      <trkpt lat="50.0758" lon="1.39433">
        <ele>79.45</ele>
        <time>2013-11-10T10:10:03Z</time>
      </trkpt>
      <trkpt lat="50.07579" lon="1.3943">
        <ele>79.93</ele>
        <time>2013-11-10T10:10:05Z</time>
      </trkpt>
      <trkpt lat="50.07579" lon="1.39428">
        <ele>79.45</ele>
        <time>2013-11-10T10:10:06Z</time>
      </trkpt>
      <trkpt lat="50.07579" lon="1.39427">
        <ele>79.93</ele>
        <time>2013-11-10T10:10:07Z</time>
      </trkpt>
      <trkpt lat="50.07578" lon="1.39425">
        <ele>79.45</ele>
        <time>2013-11-10T10:10:08Z</time>
      </trkpt>
      <trkpt lat="50.07577" lon="1.39424">
        <ele>79.45</ele>
        <time>2013-11-10T10:10:09Z</time>
      </trkpt>
      <trkpt lat="50.07571" lon="1.39416">
        <ele>80.41</ele>
        <time>2013-11-10T10:10:18Z</time>
      </trkpt>
      <trkpt lat="50.07562" lon="1.39398">
        <ele>80.41</ele>
        <time>2013-11-10T10:10:32Z</time>
      </trkpt>
      <trkpt lat="50.0755" lon="1.39381">
        <ele>79.45</ele>
        <time>2013-11-10T10:10:46Z</time>
      </trkpt>
      <trkpt lat="50.07535" lon="1.39358">
        <ele>80.89</ele>
        <time>2013-11-10T10:11:04Z</time>
      </trkpt>
      <trkpt lat="50.07522" lon="1.39331">
        <ele>80.89</ele>
        <time>2013-11-10T10:11:22Z</time>
      </trkpt>
      <trkpt lat="50.0751" lon="1.39307">
        <ele>80.89</ele>
        <time>2013-11-10T10:11:38Z</time>
      </trkpt>
      <trkpt lat="50.075" lon="1.39283">
        <ele>80.89</ele>
        <time>2013-11-10T10:11:54Z</time>
      </trkpt>
      <trkpt lat="50.07483" lon="1.3927">
        <ele>81.37</ele>
        <time>2013-11-10T10:12:11Z</time>
      </trkpt>
      <trkpt lat="50.07476" lon="1.3926">
        <ele>81.85</ele>
        <time>2013-11-10T10:12:18Z</time>
      </trkpt>
      <trkpt lat="50.07473" lon="1.39246">
        <ele>80.89</ele>
        <time>2013-11-10T10:12:24Z</time>
      </trkpt>
      <trkpt lat="50.07463" lon="1.39235">
        <ele>82.33</ele>
        <time>2013-11-10T10:12:38Z</time>
      </trkpt>
      <trkpt lat="50.07454" lon="1.39227">
        <ele>85.21</ele>
        <time>2013-11-10T10:12:52Z</time>
      </trkpt>
      <trkpt lat="50.07453" lon="1.39224">
        <ele>83.77</ele>
        <time>2013-11-10T10:12:55Z</time>
      </trkpt>
      <trkpt lat="50.07454" lon="1.39223">
        <ele>89.06</ele>
        <time>2013-11-10T10:12:56Z</time>
      </trkpt>
      <trkpt lat="50.07454" lon="1.39222">
        <ele>85.21</ele>
        <time>2013-11-10T10:12:57Z</time>
      </trkpt>
      <trkpt lat="50.07454" lon="1.39222">
        <ele>83.77</ele>
        <time>2013-11-10T10:12:59Z</time>
      </trkpt>
      <trkpt lat="50.07454" lon="1.39221">
        <ele>87.14</ele>
        <time>2013-11-10T10:13:01Z</time>
      </trkpt>
      <trkpt lat="50.07456" lon="1.39224">
        <ele>83.29</ele>
        <time>2013-11-10T10:13:08Z</time>
      </trkpt>
      <trkpt lat="50.07456" lon="1.39224">
        <ele>85.21</ele>
        <time>2013-11-10T10:13:09Z</time>
      </trkpt>
      <trkpt lat="50.07456" lon="1.39223">
        <ele>87.14</ele>
        <time>2013-11-10T10:13:12Z</time>
      </trkpt>
      <trkpt lat="50.07454" lon="1.39222">
        <ele>89.54</ele>
        <time>2013-11-10T10:13:21Z</time>
      </trkpt>
      <trkpt lat="50.07454" lon="1.39222">
        <ele>85.69</ele>
        <time>2013-11-10T10:13:23Z</time>
      </trkpt>
      <trkpt lat="50.07455" lon="1.39222">
        <ele>86.66</ele>
        <time>2013-11-10T10:13:24Z</time>
      </trkpt>
      <trkpt lat="50.07454" lon="1.3922">
        <ele>90.5</ele>
        <time>2013-11-10T10:13:30Z</time>
      </trkpt>
      <trkpt lat="50.07454" lon="1.39221">
        <ele>87.62</ele>
        <time>2013-11-10T10:13:34Z</time>
      </trkpt>
      <trkpt lat="50.07454" lon="1.39221">
        <ele>90.02</ele>
        <time>2013-11-10T10:13:37Z</time>
      </trkpt>
      <trkpt lat="50.07452" lon="1.39218">
        <ele>88.58</ele>
        <time>2013-11-10T10:13:55Z</time>
      </trkpt>
      <trkpt lat="50.07452" lon="1.39217">
        <ele>91.94</ele>
        <time>2013-11-10T10:13:56Z</time>
      </trkpt>
      <trkpt lat="50.07452" lon="1.39217">
        <ele>91.94</ele>
        <time>2013-11-10T10:13:57Z</time>
      </trkpt>
      <trkpt lat="50.07453" lon="1.39218">
        <ele>97.71</ele>
        <time>2013-11-10T10:14:01Z</time>
      </trkpt>
      <trkpt lat="50.07453" lon="1.39218">
        <ele>95.31</ele>
        <time>2013-11-10T10:14:02Z</time>
      </trkpt>
      <trkpt lat="50.07451" lon="1.39215">
        <ele>101.08</ele>
        <time>2013-11-10T10:14:05Z</time>
      </trkpt>
      <trkpt lat="50.0745" lon="1.39212">
        <ele>103</ele>
        <time>2013-11-10T10:14:07Z</time>
      </trkpt>
      <trkpt lat="50.07447" lon="1.39206">
        <ele>98.19</ele>
        <time>2013-11-10T10:14:11Z</time>
      </trkpt>
      <trkpt lat="50.07446" lon="1.39205">
        <ele>95.31</ele>
        <time>2013-11-10T10:14:12Z</time>
      </trkpt>
      <trkpt lat="50.07445" lon="1.39204">
        <ele>95.79</ele>
        <time>2013-11-10T10:14:13Z</time>
      </trkpt>
      <trkpt lat="50.07443" lon="1.39202">
        <ele>91.46</ele>
        <time>2013-11-10T10:14:15Z</time>
      </trkpt>
      <trkpt lat="50.07426" lon="1.39186">
        <ele>88.1</ele>
        <time>2013-11-10T10:14:29Z</time>
      </trkpt>
      <trkpt lat="50.07424" lon="1.39184">
        <ele>87.14</ele>
        <time>2013-11-10T10:14:31Z</time>
      </trkpt>
      <trkpt lat="50.0741" lon="1.39164">
        <ele>85.21</ele>
        <time>2013-11-10T10:14:45Z</time>
      </trkpt>
      <trkpt lat="50.07406" lon="1.39157">
        <ele>81.85</ele>
        <time>2013-11-10T10:14:50Z</time>
      </trkpt>
      <trkpt lat="50.07404" lon="1.39154">
        <ele>86.66</ele>
        <time>2013-11-10T10:14:52Z</time>
      </trkpt>
      <trkpt lat="50.07403" lon="1.39152">
        <ele>84.73</ele>
        <time>2013-11-10T10:14:53Z</time>
      </trkpt>
      <trkpt lat="50.074" lon="1.39149">
        <ele>89.06</ele>
        <time>2013-11-10T10:14:56Z</time>
      </trkpt>
      <trkpt lat="50.07392" lon="1.39136">
        <ele>86.18</ele>
        <time>2013-11-10T10:15:04Z</time>
      </trkpt>
      <trkpt lat="50.07391" lon="1.39133">
        <ele>89.54</ele>
        <time>2013-11-10T10:15:06Z</time>
      </trkpt>
      <trkpt lat="50.07388" lon="1.39129">
        <ele>91.46</ele>
        <time>2013-11-10T10:15:09Z</time>
      </trkpt>
      <trkpt lat="50.07386" lon="1.39126">
        <ele>87.62</ele>
        <time>2013-11-10T10:15:11Z</time>
      </trkpt>
      <trkpt lat="50.07385" lon="1.39125">
        <ele>86.66</ele>
        <time>2013-11-10T10:15:12Z</time>
      </trkpt>
      <trkpt lat="50.07383" lon="1.39122">
        <ele>86.18</ele>
        <time>2013-11-10T10:15:14Z</time>
      </trkpt>
      <trkpt lat="50.07379" lon="1.39117">
        <ele>82.81</ele>
        <time>2013-11-10T10:15:18Z</time>
      </trkpt>
      <trkpt lat="50.0737" lon="1.39102">
        <ele>81.37</ele>
        <time>2013-11-10T10:15:28Z</time>
      </trkpt>
      <trkpt lat="50.07357" lon="1.39074">
        <ele>85.21</ele>
        <time>2013-11-10T10:15:45Z</time>
      </trkpt>
      <trkpt lat="50.07356" lon="1.39072">
        <ele>84.73</ele>
        <time>2013-11-10T10:15:46Z</time>
      </trkpt>
      <trkpt lat="50.07354" lon="1.39067">
        <ele>81.37</ele>
        <time>2013-11-10T10:15:49Z</time>
      </trkpt>
      <trkpt lat="50.07353" lon="1.39066">
        <ele>81.37</ele>
        <time>2013-11-10T10:15:50Z</time>
      </trkpt>
      <trkpt lat="50.07342" lon="1.39046">
        <ele>80.89</ele>
        <time>2013-11-10T10:16:03Z</time>
      </trkpt>
      <trkpt lat="50.07336" lon="1.39032">
        <ele>77.52</ele>
        <time>2013-11-10T10:16:12Z</time>
      </trkpt>
      <trkpt lat="50.07333" lon="1.39026">
        <ele>79.93</ele>
        <time>2013-11-10T10:16:19Z</time>
      </trkpt>
      <trkpt lat="50.07333" lon="1.39025">
        <ele>88.1</ele>
        <time>2013-11-10T10:16:28Z</time>
      </trkpt>
      <trkpt lat="50.07333" lon="1.39025">
        <ele>87.14</ele>
        <time>2013-11-10T10:16:29Z</time>
      </trkpt>
      <trkpt lat="50.07333" lon="1.39025">
        <ele>83.77</ele>
        <time>2013-11-10T10:16:30Z</time>
      </trkpt>
      <trkpt lat="50.07334" lon="1.39025">
        <ele>78.48</ele>
        <time>2013-11-10T10:16:33Z</time>
      </trkpt>
      <trkpt lat="50.07334" lon="1.39025">
        <ele>79.45</ele>
        <time>2013-11-10T10:16:34Z</time>
      </trkpt>
      <trkpt lat="50.07333" lon="1.39026">
        <ele>84.25</ele>
        <time>2013-11-10T10:16:45Z</time>
      </trkpt>
      <trkpt lat="50.07334" lon="1.39027">
        <ele>91.46</ele>
        <time>2013-11-10T10:16:48Z</time>
      </trkpt>
      <trkpt lat="50.07334" lon="1.39029">
        <ele>85.21</ele>
        <time>2013-11-10T10:16:50Z</time>
      </trkpt>
      <trkpt lat="50.07333" lon="1.39029">
        <ele>86.18</ele>
        <time>2013-11-10T10:16:51Z</time>
      </trkpt>
      <trkpt lat="50.0733" lon="1.39029">
        <ele>83.29</ele>
        <time>2013-11-10T10:16:57Z</time>
      </trkpt>
      <trkpt lat="50.07328" lon="1.39025">
        <ele>89.54</ele>
        <time>2013-11-10T10:17:03Z</time>
      </trkpt>
      <trkpt lat="50.07328" lon="1.39025">
        <ele>84.25</ele>
        <time>2013-11-10T10:17:04Z</time>
      </trkpt>
      <trkpt lat="50.07328" lon="1.39025">
        <ele>83.77</ele>
        <time>2013-11-10T10:17:05Z</time>
      </trkpt>
      <trkpt lat="50.07328" lon="1.39025">
        <ele>87.14</ele>
        <time>2013-11-10T10:17:08Z</time>
      </trkpt>
      <trkpt lat="50.07328" lon="1.39025">
        <ele>85.69</ele>
        <time>2013-11-10T10:17:09Z</time>
      </trkpt>
      <trkpt lat="50.07328" lon="1.39025">
        <ele>84.73</ele>
        <time>2013-11-10T10:17:11Z</time>
      </trkpt>
      <trkpt lat="50.07328" lon="1.39025">
        <ele>88.58</ele>
        <time>2013-11-10T10:17:12Z</time>
      </trkpt>
      <trkpt lat="50.07328" lon="1.39025">
        <ele>86.18</ele>
        <time>2013-11-10T10:17:13Z</time>
      </trkpt>
      <trkpt lat="50.07326" lon="1.39025">
        <ele>89.54</ele>
        <time>2013-11-10T10:17:17Z</time>
      </trkpt>
      <trkpt lat="50.07326" lon="1.39025">
        <ele>83.29</ele>
        <time>2013-11-10T10:17:18Z</time>
      </trkpt>
      <trkpt lat="50.07326" lon="1.39026">
        <ele>86.18</ele>
        <time>2013-11-10T10:17:19Z</time>
      </trkpt>
      <trkpt lat="50.07326" lon="1.39026">
        <ele>89.54</ele>
        <time>2013-11-10T10:17:21Z</time>
      </trkpt>
      <trkpt lat="50.07326" lon="1.39026">
        <ele>83.29</ele>
        <time>2013-11-10T10:17:22Z</time>
      </trkpt>
      <trkpt lat="50.07326" lon="1.39026">
        <ele>84.73</ele>
        <time>2013-11-10T10:17:23Z</time>
      </trkpt>
      <trkpt lat="50.07326" lon="1.39026">
        <ele>88.58</ele>
        <time>2013-11-10T10:17:24Z</time>
      </trkpt>
      <trkpt lat="50.07325" lon="1.39026">
        <ele>91.94</ele>
        <time>2013-11-10T10:17:25Z</time>
      </trkpt>
      <trkpt lat="50.07325" lon="1.39026">
        <ele>87.62</ele>
        <time>2013-11-10T10:17:26Z</time>
      </trkpt>
      <trkpt lat="50.07325" lon="1.39026">
        <ele>83.77</ele>
        <time>2013-11-10T10:17:29Z</time>
      </trkpt>
      <trkpt lat="50.07325" lon="1.39026">
        <ele>85.21</ele>
        <time>2013-11-10T10:17:30Z</time>
      </trkpt>
      <trkpt lat="50.07324" lon="1.39025">
        <ele>80.41</ele>
        <time>2013-11-10T10:17:31Z</time>
      </trkpt>
      <trkpt lat="50.07321" lon="1.39022">
        <ele>86.66</ele>
        <time>2013-11-10T10:17:34Z</time>
      </trkpt>
      <trkpt lat="50.07321" lon="1.39019">
        <ele>81.85</ele>
        <time>2013-11-10T10:17:36Z</time>
      </trkpt>
      <trkpt lat="50.07321" lon="1.39017">
        <ele>85.69</ele>
        <time>2013-11-10T10:17:38Z</time>
      </trkpt>
      <trkpt lat="50.07321" lon="1.39017">
        <ele>85.69</ele>
        <time>2013-11-10T10:17:39Z</time>
      </trkpt>
      <trkpt lat="50.07319" lon="1.39016">
        <ele>84.25</ele>
        <time>2013-11-10T10:17:46Z</time>
      </trkpt>
      <trkpt lat="50.07318" lon="1.39016">
        <ele>84.73</ele>
        <time>2013-11-10T10:18:01Z</time>
      </trkpt>
      <trkpt lat="50.07315" lon="1.3901">
        <ele>81.85</ele>
        <time>2013-11-10T10:18:05Z</time>
      </trkpt>
      <trkpt lat="50.07311" lon="1.39003">
        <ele>79.93</ele>
        <time>2013-11-10T10:18:09Z</time>
      </trkpt>
      <trkpt lat="50.0731" lon="1.39003">
        <ele>79.93</ele>
        <time>2013-11-10T10:18:10Z</time>
      </trkpt>
      <trkpt lat="50.07302" lon="1.38998">
        <ele>77.04</ele>
        <time>2013-11-10T10:18:16Z</time>
      </trkpt>
      <trkpt lat="50.07298" lon="1.38996">
        <ele>76.08</ele>
        <time>2013-11-10T10:18:19Z</time>
      </trkpt>
      <trkpt lat="50.07295" lon="1.38991">
        <ele>78.48</ele>
        <time>2013-11-10T10:18:23Z</time>
      </trkpt>
      <trkpt lat="50.07291" lon="1.38987">
        <ele>73.2</ele>
        <time>2013-11-10T10:18:26Z</time>
      </trkpt>
      <trkpt lat="50.07283" lon="1.38982">
        <ele>70.79</ele>
        <time>2013-11-10T10:18:35Z</time>
      </trkpt>
      <trkpt lat="50.07281" lon="1.38978">
        <ele>71.27</ele>
        <time>2013-11-10T10:18:40Z</time>
      </trkpt>
      <trkpt lat="50.07277" lon="1.38973">
        <ele>70.31</ele>
        <time>2013-11-10T10:18:43Z</time>
      </trkpt>
      <trkpt lat="50.07268" lon="1.38962">
        <ele>69.35</ele>
        <time>2013-11-10T10:18:52Z</time>
      </trkpt>
      <trkpt lat="50.07268" lon="1.3896">
        <ele>68.39</ele>
        <time>2013-11-10T10:19:10Z</time>
      </trkpt>
      <trkpt lat="50.07261" lon="1.38956">
        <ele>67.43</ele>
        <time>2013-11-10T10:19:27Z</time>
      </trkpt>
      <trkpt lat="50.07259" lon="1.38953">
        <ele>66.47</ele>
        <time>2013-11-10T10:19:42Z</time>
      </trkpt>
      <trkpt lat="50.07256" lon="1.38955">
        <ele>64.55</ele>
        <time>2013-11-10T10:19:53Z</time>
      </trkpt>
      <trkpt lat="50.07255" lon="1.38955">
        <ele>65.03</ele>
        <time>2013-11-10T10:19:54Z</time>
      </trkpt>
      <trkpt lat="50.07254" lon="1.38955">
        <ele>65.03</ele>
        <time>2013-11-10T10:19:55Z</time>
      </trkpt>
      <trkpt lat="50.07253" lon="1.38954">
        <ele>65.03</ele>
        <time>2013-11-10T10:19:56Z</time>
      </trkpt>
      <trkpt lat="50.07251" lon="1.38955">
        <ele>64.55</ele>
        <time>2013-11-10T10:19:58Z</time>
      </trkpt>
      <trkpt lat="50.0725" lon="1.38955">
        <ele>64.07</ele>
        <time>2013-11-10T10:19:59Z</time>
      </trkpt>
      <trkpt lat="50.07249" lon="1.38956">
        <ele>64.07</ele>
        <time>2013-11-10T10:20:00Z</time>
      </trkpt>
      <trkpt lat="50.07248" lon="1.38955">
        <ele>63.58</ele>
        <time>2013-11-10T10:20:01Z</time>
      </trkpt>
      <trkpt lat="50.07246" lon="1.38954">
        <ele>64.07</ele>
        <time>2013-11-10T10:20:02Z</time>
      </trkpt>
      <trkpt lat="50.07245" lon="1.38954">
        <ele>64.55</ele>
        <time>2013-11-10T10:20:03Z</time>
      </trkpt>
      <trkpt lat="50.07235" lon="1.38952">
        <ele>60.7</ele>
        <time>2013-11-10T10:20:12Z</time>
      </trkpt>
      <trkpt lat="50.07231" lon="1.38951">
        <ele>58.3</ele>
        <time>2013-11-10T10:20:15Z</time>
      </trkpt>
      <trkpt lat="50.07219" lon="1.38937">
        <ele>58.78</ele>
        <time>2013-11-10T10:20:29Z</time>
      </trkpt>
      <trkpt lat="50.07215" lon="1.38933">
        <ele>57.82</ele>
        <time>2013-11-10T10:20:38Z</time>
      </trkpt>
      <trkpt lat="50.07214" lon="1.38932">
        <ele>57.34</ele>
        <time>2013-11-10T10:20:39Z</time>
      </trkpt>
      <trkpt lat="50.07213" lon="1.38931">
        <ele>56.86</ele>
        <time>2013-11-10T10:20:40Z</time>
      </trkpt>
      <trkpt lat="50.07206" lon="1.38922">
        <ele>54.93</ele>
        <time>2013-11-10T10:20:47Z</time>
      </trkpt>
      <trkpt lat="50.07195" lon="1.38907">
        <ele>51.57</ele>
        <time>2013-11-10T10:21:00Z</time>
      </trkpt>
      <trkpt lat="50.07188" lon="1.38897">
        <ele>54.93</ele>
        <time>2013-11-10T10:21:09Z</time>
      </trkpt>
      <trkpt lat="50.07182" lon="1.3889">
        <ele>56.37</ele>
        <time>2013-11-10T10:21:15Z</time>
      </trkpt>
      <trkpt lat="50.07179" lon="1.38885">
        <ele>53.97</ele>
        <time>2013-11-10T10:21:19Z</time>
      </trkpt>
      <trkpt lat="50.07177" lon="1.38883">
        <ele>55.41</ele>
        <time>2013-11-10T10:21:21Z</time>
      </trkpt>
      <trkpt lat="50.07162" lon="1.3887">
        <ele>51.57</ele>
        <time>2013-11-10T10:21:37Z</time>
      </trkpt>
      <trkpt lat="50.07146" lon="1.38857">
        <ele>48.68</ele>
        <time>2013-11-10T10:21:50Z</time>
      </trkpt>
      <trkpt lat="50.07139" lon="1.3885">
        <ele>47.24</ele>
        <time>2013-11-10T10:21:58Z</time>
      </trkpt>
      <trkpt lat="50.07137" lon="1.3885">
        <ele>46.76</ele>
        <time>2013-11-10T10:22:00Z</time>
      </trkpt>
      <trkpt lat="50.07122" lon="1.38844">
        <ele>43.4</ele>
        <time>2013-11-10T10:22:12Z</time>
      </trkpt>
      <trkpt lat="50.0711" lon="1.3884">
        <ele>45.32</ele>
        <time>2013-11-10T10:22:23Z</time>
      </trkpt>
      <trkpt lat="50.07107" lon="1.3884">
        <ele>42.44</ele>
        <time>2013-11-10T10:22:25Z</time>
      </trkpt>
      <trkpt lat="50.07106" lon="1.38841">
        <ele>42.92</ele>
        <time>2013-11-10T10:22:26Z</time>
      </trkpt>
      <trkpt lat="50.07086" lon="1.38855">
        <ele>40.51</ele>
        <time>2013-11-10T10:22:44Z</time>
      </trkpt>
      <trkpt lat="50.07085" lon="1.38855">
        <ele>40.51</ele>
        <time>2013-11-10T10:22:45Z</time>
      </trkpt>
      <trkpt lat="50.07084" lon="1.38854">
        <ele>40.51</ele>
        <time>2013-11-10T10:22:46Z</time>
      </trkpt>
      <trkpt lat="50.07083" lon="1.38853">
        <ele>40.99</ele>
        <time>2013-11-10T10:22:47Z</time>
      </trkpt>
      <trkpt lat="50.07082" lon="1.38851">
        <ele>41.95</ele>
        <time>2013-11-10T10:22:48Z</time>
      </trkpt>
      <trkpt lat="50.07081" lon="1.3885">
        <ele>42.44</ele>
        <time>2013-11-10T10:22:49Z</time>
      </trkpt>
      <trkpt lat="50.0708" lon="1.38849">
        <ele>42.44</ele>
        <time>2013-11-10T10:22:50Z</time>
      </trkpt>
      <trkpt lat="50.07079" lon="1.38847">
        <ele>42.92</ele>
        <time>2013-11-10T10:22:51Z</time>
      </trkpt>
      <trkpt lat="50.07068" lon="1.38834">
        <ele>39.55</ele>
        <time>2013-11-10T10:23:02Z</time>
      </trkpt>
      <trkpt lat="50.07058" lon="1.38823">
        <ele>36.19</ele>
        <time>2013-11-10T10:23:12Z</time>
      </trkpt>
      <trkpt lat="50.07042" lon="1.38806">
        <ele>33.3</ele>
        <time>2013-11-10T10:23:29Z</time>
      </trkpt>
      <trkpt lat="50.07041" lon="1.38805">
        <ele>32.82</ele>
        <time>2013-11-10T10:23:30Z</time>
      </trkpt>
      <trkpt lat="50.07025" lon="1.38784">
        <ele>29.94</ele>
        <time>2013-11-10T10:23:48Z</time>
      </trkpt>
      <trkpt lat="50.07023" lon="1.38782">
        <ele>28.98</ele>
        <time>2013-11-10T10:23:50Z</time>
      </trkpt>
      <trkpt lat="50.07014" lon="1.38763">
        <ele>27.05</ele>
        <time>2013-11-10T10:24:11Z</time>
      </trkpt>
      <trkpt lat="50.07006" lon="1.38745">
        <ele>23.69</ele>
        <time>2013-11-10T10:24:26Z</time>
      </trkpt>
      <trkpt lat="50.06994" lon="1.38729">
        <ele>24.65</ele>
        <time>2013-11-10T10:24:44Z</time>
      </trkpt>
      <trkpt lat="50.06993" lon="1.38729">
        <ele>23.69</ele>
        <time>2013-11-10T10:24:56Z</time>
      </trkpt>
      <trkpt lat="50.06993" lon="1.38729">
        <ele>25.13</ele>
        <time>2013-11-10T10:25:01Z</time>
      </trkpt>
      <trkpt lat="50.06991" lon="1.38732">
        <ele>24.65</ele>
        <time>2013-11-10T10:25:10Z</time>
      </trkpt>
      <trkpt lat="50.0699" lon="1.38732">
        <ele>24.65</ele>
        <time>2013-11-10T10:25:11Z</time>
      </trkpt>
      <trkpt lat="50.06985" lon="1.38731">
        <ele>23.21</ele>
        <time>2013-11-10T10:25:17Z</time>
      </trkpt>
      <trkpt lat="50.06983" lon="1.38731">
        <ele>27.05</ele>
        <time>2013-11-10T10:25:19Z</time>
      </trkpt>
      <trkpt lat="50.06979" lon="1.38729">
        <ele>24.17</ele>
        <time>2013-11-10T10:25:27Z</time>
      </trkpt>
      <trkpt lat="50.06979" lon="1.38728">
        <ele>24.17</ele>
        <time>2013-11-10T10:25:32Z</time>
      </trkpt>
      <trkpt lat="50.06978" lon="1.38729">
        <ele>23.69</ele>
        <time>2013-11-10T10:25:37Z</time>
      </trkpt>
      <trkpt lat="50.06977" lon="1.3873">
        <ele>23.69</ele>
        <time>2013-11-10T10:25:38Z</time>
      </trkpt>
      <trkpt lat="50.06975" lon="1.3873">
        <ele>24.65</ele>
        <time>2013-11-10T10:25:39Z</time>
      </trkpt>
      <trkpt lat="50.06974" lon="1.3873">
        <ele>24.65</ele>
        <time>2013-11-10T10:25:40Z</time>
      </trkpt>
      <trkpt lat="50.06973" lon="1.38731">
        <ele>23.21</ele>
        <time>2013-11-10T10:25:41Z</time>
      </trkpt>
      <trkpt lat="50.06972" lon="1.38731">
        <ele>22.73</ele>
        <time>2013-11-10T10:25:42Z</time>
      </trkpt>
      <trkpt lat="50.06956" lon="1.38724">
        <ele>21.77</ele>
        <time>2013-11-10T10:25:56Z</time>
      </trkpt>
      <trkpt lat="50.06931" lon="1.38725">
        <ele>19.36</ele>
        <time>2013-11-10T10:26:18Z</time>
      </trkpt>
      <trkpt lat="50.0691" lon="1.38735">
        <ele>18.4</ele>
        <time>2013-11-10T10:26:37Z</time>
      </trkpt>
      <trkpt lat="50.06891" lon="1.38748">
        <ele>15.52</ele>
        <time>2013-11-10T10:26:55Z</time>
      </trkpt>
      <trkpt lat="50.06886" lon="1.38746">
        <ele>12.15</ele>
        <time>2013-11-10T10:27:03Z</time>
      </trkpt>
      <trkpt lat="50.06887" lon="1.38736">
        <ele>13.6</ele>
        <time>2013-11-10T10:27:15Z</time>
      </trkpt>
      <trkpt lat="50.0689" lon="1.38729">
        <ele>9.27</ele>
        <time>2013-11-10T10:27:26Z</time>
      </trkpt>
      <trkpt lat="50.06894" lon="1.38722">
        <ele>9.75</ele>
        <time>2013-11-10T10:27:36Z</time>
      </trkpt>
      <trkpt lat="50.06897" lon="1.38718">
        <ele>5.42</ele>
        <time>2013-11-10T10:27:43Z</time>
      </trkpt>
      <trkpt lat="50.06897" lon="1.38718">
        <ele>5.42</ele>
        <time>2013-11-10T10:27:44Z</time>
      </trkpt>
      <trkpt lat="50.06903" lon="1.3871">
        <ele>7.83</ele>
        <time>2013-11-10T10:27:58Z</time>
      </trkpt>
      <trkpt lat="50.06907" lon="1.38703">
        <ele>5.91</ele>
        <time>2013-11-10T10:28:05Z</time>
      </trkpt>
      <trkpt lat="50.06918" lon="1.38699">
        <ele>4.94</ele>
        <time>2013-11-10T10:28:19Z</time>
      </trkpt>
      <trkpt lat="50.06922" lon="1.38697">
        <ele>3.02</ele>
        <time>2013-11-10T10:28:23Z</time>
      </trkpt>
      <trkpt lat="50.06931" lon="1.38692">
        <ele>-1.3</ele>
        <time>2013-11-10T10:28:35Z</time>
      </trkpt>
      <trkpt lat="50.06931" lon="1.38689">
        <ele>-1.79</ele>
        <time>2013-11-10T10:28:41Z</time>
      </trkpt>
      <trkpt lat="50.06931" lon="1.38687">
        <ele>-2.27</ele>
        <time>2013-11-10T10:28:43Z</time>
      </trkpt>
      <trkpt lat="50.06931" lon="1.38685">
        <ele>-1.79</ele>
        <time>2013-11-10T10:28:44Z</time>
      </trkpt>
      <trkpt lat="50.06931" lon="1.38684">
        <ele>-2.27</ele>
        <time>2013-11-10T10:28:45Z</time>
      </trkpt>
      <trkpt lat="50.06931" lon="1.38681">
        <ele>-2.27</ele>
        <time>2013-11-10T10:28:46Z</time>
      </trkpt>
      <trkpt lat="50.06931" lon="1.38678">
        <ele>0.62</ele>
        <time>2013-11-10T10:28:47Z</time>
      </trkpt>
      <trkpt lat="50.06931" lon="1.38675">
        <ele>-0.82</ele>
        <time>2013-11-10T10:28:48Z</time>
      </trkpt>
      <trkpt lat="50.06931" lon="1.38672">
        <ele>-4.19</ele>
        <time>2013-11-10T10:28:50Z</time>
      </trkpt>
      <trkpt lat="50.0693" lon="1.38665">
        <ele>-3.71</ele>
        <time>2013-11-10T10:28:54Z</time>
      </trkpt>
      <trkpt lat="50.06936" lon="1.38649">
        <ele>-1.79</ele>
        <time>2013-11-10T10:29:08Z</time>
      </trkpt>
      <trkpt lat="50.06939" lon="1.38643">
        <ele>-5.15</ele>
        <time>2013-11-10T10:29:16Z</time>
      </trkpt>
      <trkpt lat="50.06942" lon="1.38637">
        <ele>-5.15</ele>
        <time>2013-11-10T10:29:21Z</time>
      </trkpt>
      <trkpt lat="50.06944" lon="1.38632">
        <ele>-3.71</ele>
        <time>2013-11-10T10:29:28Z</time>
      </trkpt>
      <trkpt lat="50.06946" lon="1.38624">
        <ele>-4.67</ele>
        <time>2013-11-10T10:29:34Z</time>
      </trkpt>
      <trkpt lat="50.06935" lon="1.38607">
        <ele>-5.15</ele>
        <time>2013-11-10T10:29:45Z</time>
      </trkpt>
      <trkpt lat="50.06925" lon="1.38599">
        <ele>-5.15</ele>
        <time>2013-11-10T10:29:55Z</time>
      </trkpt>
      <trkpt lat="50.06908" lon="1.38591">
        <ele>-6.11</ele>
        <time>2013-11-10T10:30:09Z</time>
      </trkpt>
      <trkpt lat="50.06884" lon="1.38573">
        <ele>-5.63</ele>
        <time>2013-11-10T10:30:30Z</time>
      </trkpt>
      <trkpt lat="50.06866" lon="1.38558">
        <ele>-6.11</ele>
        <time>2013-11-10T10:30:47Z</time>
      </trkpt>
      <trkpt lat="50.06845" lon="1.38536">
        <ele>-4.67</ele>
        <time>2013-11-10T10:31:08Z</time>
      </trkpt>
      <trkpt lat="50.06844" lon="1.38536">
        <ele>-5.15</ele>
        <time>2013-11-10T10:31:15Z</time>
      </trkpt>
      <trkpt lat="50.06842" lon="1.38535">
        <ele>-4.19</ele>
        <time>2013-11-10T10:31:17Z</time>
      </trkpt>
      <trkpt lat="50.06836" lon="1.38527">
        <ele>-4.67</ele>
        <time>2013-11-10T10:31:23Z</time>
      </trkpt>
      <trkpt lat="50.06815" lon="1.38505">
        <ele>-4.67</ele>
        <time>2013-11-10T10:31:43Z</time>
      </trkpt>
      <trkpt lat="50.06797" lon="1.38484">
        <ele>-5.63</ele>
        <time>2013-11-10T10:32:01Z</time>
      </trkpt>
      <trkpt lat="50.0678" lon="1.38468">
        <ele>-3.23</ele>
        <time>2013-11-10T10:32:17Z</time>
      </trkpt>
      <trkpt lat="50.06774" lon="1.38458">
        <ele>-3.71</ele>
        <time>2013-11-10T10:32:25Z</time>
      </trkpt>
      <trkpt lat="50.06753" lon="1.38438">
        <ele>-3.71</ele>
        <time>2013-11-10T10:32:45Z</time>
      </trkpt>
      <trkpt lat="50.06731" lon="1.38417">
        <ele>-2.75</ele>
        <time>2013-11-10T10:33:06Z</time>
      </trkpt>
      <trkpt lat="50.0671" lon="1.38384">
        <ele>-3.23</ele>
        <time>2013-11-10T10:33:29Z</time>
      </trkpt>
      <trkpt lat="50.0669" lon="1.38359">
        <ele>-5.63</ele>
        <time>2013-11-10T10:33:49Z</time>
      </trkpt>
      <trkpt lat="50.06671" lon="1.38334">
        <ele>-4.67</ele>
        <time>2013-11-10T10:34:09Z</time>
      </trkpt>
      <trkpt lat="50.06669" lon="1.38331">
        <ele>-4.19</ele>
        <time>2013-11-10T10:34:11Z</time>
      </trkpt>
      <trkpt lat="50.06665" lon="1.38321">
        <ele>-4.19</ele>
        <time>2013-11-10T10:34:17Z</time>
      </trkpt>
      <trkpt lat="50.06674" lon="1.38309">
        <ele>-3.23</ele>
        <time>2013-11-10T10:34:28Z</time>
      </trkpt>
      <trkpt lat="50.06667" lon="1.38304">
        <ele>-2.75</ele>
        <time>2013-11-10T10:34:34Z</time>
      </trkpt>
      <trkpt lat="50.06661" lon="1.383">
        <ele>-0.82</ele>
        <time>2013-11-10T10:34:51Z</time>
      </trkpt>
      <trkpt lat="50.06659" lon="1.38299">
        <ele>-3.23</ele>
        <time>2013-11-10T10:35:05Z</time>
      </trkpt>
      <trkpt lat="50.06658" lon="1.38298">
        <ele>-1.79</ele>
        <time>2013-11-10T10:35:07Z</time>
      </trkpt>
      <trkpt lat="50.06632" lon="1.38271">
        <ele>-0.82</ele>
        <time>2013-11-10T10:35:32Z</time>
      </trkpt>
      <trkpt lat="50.06613" lon="1.38241">
        <ele>-1.79</ele>
        <time>2013-11-10T10:35:53Z</time>
      </trkpt>
      <trkpt lat="50.06595" lon="1.38212">
        <ele>-2.75</ele>
        <time>2013-11-10T10:36:15Z</time>
      </trkpt>
      <trkpt lat="50.0659" lon="1.38205">
        <ele>-3.23</ele>
        <time>2013-11-10T10:36:20Z</time>
      </trkpt>
      <trkpt lat="50.06579" lon="1.38184">
        <ele>-1.79</ele>
        <time>2013-11-10T10:36:39Z</time>
      </trkpt>
      <trkpt lat="50.06583" lon="1.38172">
        <ele>-1.79</ele>
        <time>2013-11-10T10:37:01Z</time>
      </trkpt>
      <trkpt lat="50.06567" lon="1.38149">
        <ele>-2.27</ele>
        <time>2013-11-10T10:37:24Z</time>
      </trkpt>
      <trkpt lat="50.06555" lon="1.38132">
        <ele>-2.27</ele>
        <time>2013-11-10T10:37:39Z</time>
      </trkpt>
      <trkpt lat="50.06548" lon="1.38118">
        <ele>-1.79</ele>
        <time>2013-11-10T10:37:56Z</time>
      </trkpt>
      <trkpt lat="50.06549" lon="1.3811">
        <ele>-2.27</ele>
        <time>2013-11-10T10:38:21Z</time>
      </trkpt>
      <trkpt lat="50.06529" lon="1.38085">
        <ele>-2.75</ele>
        <time>2013-11-10T10:38:43Z</time>
      </trkpt>
      <trkpt lat="50.06512" lon="1.3806">
        <ele>-1.3</ele>
        <time>2013-11-10T10:39:05Z</time>
      </trkpt>
      <trkpt lat="50.06497" lon="1.38036">
        <ele>-2.27</ele>
        <time>2013-11-10T10:39:25Z</time>
      </trkpt>
      <trkpt lat="50.06479" lon="1.38006">
        <ele>-2.75</ele>
        <time>2013-11-10T10:39:48Z</time>
      </trkpt>
      <trkpt lat="50.06462" lon="1.37978">
        <ele>-2.27</ele>
        <time>2013-11-10T10:40:10Z</time>
      </trkpt>
      <trkpt lat="50.06458" lon="1.3797">
        <ele>-1.3</ele>
        <time>2013-11-10T10:40:16Z</time>
      </trkpt>
      <trkpt lat="50.06443" lon="1.37948">
        <ele>0.14</ele>
        <time>2013-11-10T10:40:34Z</time>
      </trkpt>
      <trkpt lat="50.06448" lon="1.37933">
        <ele>0.14</ele>
        <time>2013-11-10T10:40:50Z</time>
      </trkpt>
      <trkpt lat="50.06434" lon="1.37917">
        <ele>0.14</ele>
        <time>2013-11-10T10:41:05Z</time>
      </trkpt>
      <trkpt lat="50.06418" lon="1.37883">
        <ele>-0.82</ele>
        <time>2013-11-10T10:41:27Z</time>
      </trkpt>
      <trkpt lat="50.06409" lon="1.37859">
        <ele>-1.3</ele>
        <time>2013-11-10T10:41:40Z</time>
      </trkpt>
      <trkpt lat="50.064" lon="1.37828">
        <ele>2.54</ele>
        <time>2013-11-10T10:41:58Z</time>
      </trkpt>
      <trkpt lat="50.064" lon="1.37827">
        <ele>3.02</ele>
        <time>2013-11-10T10:41:59Z</time>
      </trkpt>
      <trkpt lat="50.06399" lon="1.37826">
        <ele>2.54</ele>
        <time>2013-11-10T10:42:00Z</time>
      </trkpt>
      <trkpt lat="50.06398" lon="1.37818">
        <ele>0.62</ele>
        <time>2013-11-10T10:42:04Z</time>
      </trkpt>
      <trkpt lat="50.06391" lon="1.37795">
        <ele>0.62</ele>
        <time>2013-11-10T10:42:19Z</time>
      </trkpt>
      <trkpt lat="50.06383" lon="1.37764">
        <ele>1.1</ele>
        <time>2013-11-10T10:42:37Z</time>
      </trkpt>
      <trkpt lat="50.06373" lon="1.37731">
        <ele>-0.34</ele>
        <time>2013-11-10T10:42:58Z</time>
      </trkpt>
      <trkpt lat="50.06364" lon="1.377">
        <ele>0.62</ele>
        <time>2013-11-10T10:43:16Z</time>
      </trkpt>
      <trkpt lat="50.06356" lon="1.37667">
        <ele>0.14</ele>
        <time>2013-11-10T10:43:36Z</time>
      </trkpt>
      <trkpt lat="50.06347" lon="1.37631">
        <ele>1.58</ele>
        <time>2013-11-10T10:43:57Z</time>
      </trkpt>
      <trkpt lat="50.06345" lon="1.37593">
        <ele>1.58</ele>
        <time>2013-11-10T10:44:14Z</time>
      </trkpt>
      <trkpt lat="50.06343" lon="1.37564">
        <ele>1.58</ele>
        <time>2013-11-10T10:44:31Z</time>
      </trkpt>
      <trkpt lat="50.06337" lon="1.37533">
        <ele>2.06</ele>
        <time>2013-11-10T10:44:49Z</time>
      </trkpt>
      <trkpt lat="50.06337" lon="1.3753">
        <ele>2.06</ele>
        <time>2013-11-10T10:44:50Z</time>
      </trkpt>
      <trkpt lat="50.06336" lon="1.37529">
        <ele>1.58</ele>
        <time>2013-11-10T10:44:51Z</time>
      </trkpt>
      <trkpt lat="50.06328" lon="1.37504">
        <ele>2.06</ele>
        <time>2013-11-10T10:45:07Z</time>
      </trkpt>
      <trkpt lat="50.06323" lon="1.37488">
        <ele>1.58</ele>
        <time>2013-11-10T10:45:18Z</time>
      </trkpt>
      <trkpt lat="50.06322" lon="1.37488">
        <ele>1.58</ele>
        <time>2013-11-10T10:45:19Z</time>
      </trkpt>
      <trkpt lat="50.06316" lon="1.37486">
        <ele>0.62</ele>
        <time>2013-11-10T10:45:24Z</time>
      </trkpt>
      <trkpt lat="50.06315" lon="1.37487">
        <ele>0.62</ele>
        <time>2013-11-10T10:45:25Z</time>
      </trkpt>
      <trkpt lat="50.06313" lon="1.37489">
        <ele>0.62</ele>
        <time>2013-11-10T10:45:27Z</time>
      </trkpt>
      <trkpt lat="50.06306" lon="1.37508">
        <ele>1.1</ele>
        <time>2013-11-10T10:45:38Z</time>
      </trkpt>
      <trkpt lat="50.06305" lon="1.37521">
        <ele>0.62</ele>
        <time>2013-11-10T10:45:45Z</time>
      </trkpt>
      <trkpt lat="50.0629" lon="1.37518">
        <ele>2.54</ele>
        <time>2013-11-10T10:45:59Z</time>
      </trkpt>
      <trkpt lat="50.06288" lon="1.37522">
        <ele>1.1</ele>
        <time>2013-11-10T10:46:02Z</time>
      </trkpt>
      <trkpt lat="50.06276" lon="1.37552">
        <ele>2.54</ele>
        <time>2013-11-10T10:46:20Z</time>
      </trkpt>
      <trkpt lat="50.06273" lon="1.37556">
        <ele>0.14</ele>
        <time>2013-11-10T10:46:24Z</time>
      </trkpt>
      <trkpt lat="50.06274" lon="1.3756">
        <ele>-1.3</ele>
        <time>2013-11-10T10:46:37Z</time>
      </trkpt>
      <trkpt lat="50.06273" lon="1.37562">
        <ele>2.06</ele>
        <time>2013-11-10T10:46:42Z</time>
      </trkpt>
      <trkpt lat="50.06251" lon="1.37566">
        <ele>1.58</ele>
        <time>2013-11-10T10:46:59Z</time>
      </trkpt>
      <trkpt lat="50.06238" lon="1.37574">
        <ele>2.06</ele>
        <time>2013-11-10T10:47:12Z</time>
      </trkpt>
      <trkpt lat="50.06237" lon="1.37575">
        <ele>1.58</ele>
        <time>2013-11-10T10:47:13Z</time>
      </trkpt>
      <trkpt lat="50.06236" lon="1.37576">
        <ele>1.1</ele>
        <time>2013-11-10T10:47:14Z</time>
      </trkpt>
      <trkpt lat="50.06235" lon="1.37576">
        <ele>1.1</ele>
        <time>2013-11-10T10:47:15Z</time>
      </trkpt>
      <trkpt lat="50.0623" lon="1.37592">
        <ele>3.98</ele>
        <time>2013-11-10T10:47:27Z</time>
      </trkpt>
      <trkpt lat="50.06228" lon="1.37593">
        <ele>7.35</ele>
        <time>2013-11-10T10:47:30Z</time>
      </trkpt>
      <trkpt lat="50.06227" lon="1.37597">
        <ele>3.98</ele>
        <time>2013-11-10T10:47:36Z</time>
      </trkpt>
      <trkpt lat="50.06226" lon="1.37597">
        <ele>3.5</ele>
        <time>2013-11-10T10:47:43Z</time>
      </trkpt>
      <trkpt lat="50.06221" lon="1.376">
        <ele>2.54</ele>
        <time>2013-11-10T10:47:54Z</time>
      </trkpt>
      <trkpt lat="50.06214" lon="1.37609">
        <ele>2.06</ele>
        <time>2013-11-10T10:48:04Z</time>
      </trkpt>
      <trkpt lat="50.06217" lon="1.37624">
        <ele>1.58</ele>
        <time>2013-11-10T10:48:13Z</time>
      </trkpt>
      <trkpt lat="50.06223" lon="1.37648">
        <ele>2.54</ele>
        <time>2013-11-10T10:48:31Z</time>
      </trkpt>
      <trkpt lat="50.06224" lon="1.37656">
        <ele>2.06</ele>
        <time>2013-11-10T10:48:44Z</time>
      </trkpt>
      <trkpt lat="50.06226" lon="1.37664">
        <ele>2.06</ele>
        <time>2013-11-10T10:48:58Z</time>
      </trkpt>
      <trkpt lat="50.06227" lon="1.37668">
        <ele>2.06</ele>
        <time>2013-11-10T10:49:01Z</time>
      </trkpt>
      <trkpt lat="50.06232" lon="1.37695">
        <ele>0.62</ele>
        <time>2013-11-10T10:49:17Z</time>
      </trkpt>
      <trkpt lat="50.06236" lon="1.37719">
        <ele>1.1</ele>
        <time>2013-11-10T10:49:34Z</time>
      </trkpt>
      <trkpt lat="50.06235" lon="1.37722">
        <ele>1.1</ele>
        <time>2013-11-10T10:49:36Z</time>
      </trkpt>
      <trkpt lat="50.06234" lon="1.37724">
        <ele>1.1</ele>
        <time>2013-11-10T10:49:37Z</time>
      </trkpt>
      <trkpt lat="50.06227" lon="1.37729">
        <ele>1.1</ele>
        <time>2013-11-10T10:49:43Z</time>
      </trkpt>
      <trkpt lat="50.06226" lon="1.3773">
        <ele>-0.34</ele>
        <time>2013-11-10T10:49:44Z</time>
      </trkpt>
      <trkpt lat="50.06226" lon="1.37731">
        <ele>0.62</ele>
        <time>2013-11-10T10:49:45Z</time>
      </trkpt>
      <trkpt lat="50.06221" lon="1.37735">
        <ele>-0.34</ele>
        <time>2013-11-10T10:49:52Z</time>
      </trkpt>
      <trkpt lat="50.06215" lon="1.3774">
        <ele>0.14</ele>
        <time>2013-11-10T10:50:01Z</time>
      </trkpt>
      <trkpt lat="50.06214" lon="1.3774">
        <ele>-0.34</ele>
        <time>2013-11-10T10:50:02Z</time>
      </trkpt>
      <trkpt lat="50.06208" lon="1.37742">
        <ele>2.06</ele>
        <time>2013-11-10T10:50:08Z</time>
      </trkpt>
      <trkpt lat="50.06207" lon="1.37743">
        <ele>1.58</ele>
        <time>2013-11-10T10:50:09Z</time>
      </trkpt>
      <trkpt lat="50.06205" lon="1.37743">
        <ele>1.58</ele>
        <time>2013-11-10T10:50:10Z</time>
      </trkpt>
      <trkpt lat="50.06191" lon="1.37748">
        <ele>1.1</ele>
        <time>2013-11-10T10:50:26Z</time>
      </trkpt>
      <trkpt lat="50.06183" lon="1.3775">
        <ele>2.54</ele>
        <time>2013-11-10T10:50:46Z</time>
      </trkpt>
      <trkpt lat="50.06182" lon="1.37751">
        <ele>2.06</ele>
        <time>2013-11-10T10:50:47Z</time>
      </trkpt>
      <trkpt lat="50.0618" lon="1.37752">
        <ele>1.58</ele>
        <time>2013-11-10T10:50:48Z</time>
      </trkpt>
      <trkpt lat="50.06166" lon="1.37755">
        <ele>0.62</ele>
        <time>2013-11-10T10:51:00Z</time>
      </trkpt>
      <trkpt lat="50.06165" lon="1.37754">
        <ele>0.62</ele>
        <time>2013-11-10T10:51:01Z</time>
      </trkpt>
      <trkpt lat="50.06165" lon="1.37752">
        <ele>0.14</ele>
        <time>2013-11-10T10:51:02Z</time>
      </trkpt>
      <trkpt lat="50.06165" lon="1.3775">
        <ele>1.1</ele>
        <time>2013-11-10T10:51:03Z</time>
      </trkpt>
      <trkpt lat="50.06165" lon="1.37748">
        <ele>-3.23</ele>
        <time>2013-11-10T10:51:04Z</time>
      </trkpt>
      <trkpt lat="50.06165" lon="1.37738">
        <ele>-1.3</ele>
        <time>2013-11-10T10:51:08Z</time>
      </trkpt>
      <trkpt lat="50.06165" lon="1.37724">
        <ele>-4.19</ele>
        <time>2013-11-10T10:51:15Z</time>
      </trkpt>
      <trkpt lat="50.06165" lon="1.37723">
        <ele>-4.19</ele>
        <time>2013-11-10T10:51:16Z</time>
      </trkpt>
      <trkpt lat="50.06165" lon="1.37722">
        <ele>-0.34</ele>
        <time>2013-11-10T10:51:18Z</time>
      </trkpt>
      <trkpt lat="50.06164" lon="1.37724">
        <ele>0.62</ele>
        <time>2013-11-10T10:51:20Z</time>
      </trkpt>
      <trkpt lat="50.06164" lon="1.37731">
        <ele>0.14</ele>
        <time>2013-11-10T10:51:24Z</time>
      </trkpt>
      <trkpt lat="50.06163" lon="1.37753">
        <ele>3.5</ele>
        <time>2013-11-10T10:51:36Z</time>
      </trkpt>
      <trkpt lat="50.06161" lon="1.37758">
        <ele>1.1</ele>
        <time>2013-11-10T10:51:43Z</time>
      </trkpt>
      <trkpt lat="50.06159" lon="1.37763">
        <ele>2.06</ele>
        <time>2013-11-10T10:51:47Z</time>
      </trkpt>
      <trkpt lat="50.06158" lon="1.37764">
        <ele>2.54</ele>
        <time>2013-11-10T10:51:48Z</time>
      </trkpt>
      <trkpt lat="50.06157" lon="1.37765">
        <ele>3.98</ele>
        <time>2013-11-10T10:51:49Z</time>
      </trkpt>
      <trkpt lat="50.06156" lon="1.37766">
        <ele>3.5</ele>
        <time>2013-11-10T10:51:50Z</time>
      </trkpt>
      <trkpt lat="50.06152" lon="1.3777">
        <ele>1.1</ele>
        <time>2013-11-10T10:51:53Z</time>
      </trkpt>
      <trkpt lat="50.06144" lon="1.37778">
        <ele>2.54</ele>
        <time>2013-11-10T10:52:01Z</time>
      </trkpt>
      <trkpt lat="50.06142" lon="1.37779">
        <ele>1.1</ele>
        <time>2013-11-10T10:52:03Z</time>
      </trkpt>
      <trkpt lat="50.06139" lon="1.37779">
        <ele>-0.82</ele>
        <time>2013-11-10T10:52:05Z</time>
      </trkpt>
      <trkpt lat="50.06137" lon="1.3778">
        <ele>2.06</ele>
        <time>2013-11-10T10:52:06Z</time>
      </trkpt>
      <trkpt lat="50.06133" lon="1.37781">
        <ele>-0.82</ele>
        <time>2013-11-10T10:52:09Z</time>
      </trkpt>
      <trkpt lat="50.06115" lon="1.37792">
        <ele>1.1</ele>
        <time>2013-11-10T10:52:26Z</time>
      </trkpt>
      <trkpt lat="50.06109" lon="1.37797">
        <ele>-1.3</ele>
        <time>2013-11-10T10:52:32Z</time>
      </trkpt>
      <trkpt lat="50.06091" lon="1.37805">
        <ele>-0.34</ele>
        <time>2013-11-10T10:52:46Z</time>
      </trkpt>
      <trkpt lat="50.06076" lon="1.3779">
        <ele>0.14</ele>
        <time>2013-11-10T10:53:03Z</time>
      </trkpt>
      <trkpt lat="50.06073" lon="1.37789">
        <ele>0.62</ele>
        <time>2013-11-10T10:53:06Z</time>
      </trkpt>
      <trkpt lat="50.06071" lon="1.37789">
        <ele>0.14</ele>
        <time>2013-11-10T10:53:07Z</time>
      </trkpt>
      <trkpt lat="50.0607" lon="1.37787">
        <ele>0.14</ele>
        <time>2013-11-10T10:53:08Z</time>
      </trkpt>
      <trkpt lat="50.0607" lon="1.37786">
        <ele>0.14</ele>
        <time>2013-11-10T10:53:09Z</time>
      </trkpt>
      <trkpt lat="50.06069" lon="1.37784">
        <ele>0.14</ele>
        <time>2013-11-10T10:53:10Z</time>
      </trkpt>
      <trkpt lat="50.06067" lon="1.37773">
        <ele>-0.34</ele>
        <time>2013-11-10T10:53:16Z</time>
      </trkpt>
      <trkpt lat="50.06066" lon="1.37771">
        <ele>-0.34</ele>
        <time>2013-11-10T10:53:17Z</time>
      </trkpt>
      <trkpt lat="50.0606" lon="1.37754">
        <ele>-0.34</ele>
        <time>2013-11-10T10:53:32Z</time>
      </trkpt>
      <trkpt lat="50.06056" lon="1.3775">
        <ele>-0.82</ele>
        <time>2013-11-10T10:54:04Z</time>
      </trkpt>
      <trkpt lat="50.06054" lon="1.37751">
        <ele>-0.34</ele>
        <time>2013-11-10T10:54:06Z</time>
      </trkpt>
      <trkpt lat="50.06045" lon="1.37756">
        <ele>-0.34</ele>
        <time>2013-11-10T10:54:22Z</time>
      </trkpt>
      <trkpt lat="50.06036" lon="1.37754">
        <ele>-0.82</ele>
        <time>2013-11-10T10:54:36Z</time>
      </trkpt>
      <trkpt lat="50.06037" lon="1.37746">
        <ele>-0.34</ele>
        <time>2013-11-10T10:54:40Z</time>
      </trkpt>
      <trkpt lat="50.06037" lon="1.37744">
        <ele>0.14</ele>
        <time>2013-11-10T10:54:41Z</time>
      </trkpt>
      <trkpt lat="50.06036" lon="1.37732">
        <ele>0.14</ele>
        <time>2013-11-10T10:54:50Z</time>
      </trkpt>
      <trkpt lat="50.06035" lon="1.37726">
        <ele>-2.75</ele>
        <time>2013-11-10T10:54:53Z</time>
      </trkpt>
      <trkpt lat="50.06035" lon="1.37724">
        <ele>-2.27</ele>
        <time>2013-11-10T10:54:54Z</time>
      </trkpt>
      <trkpt lat="50.06035" lon="1.37722">
        <ele>-2.27</ele>
        <time>2013-11-10T10:54:55Z</time>
      </trkpt>
      <trkpt lat="50.06036" lon="1.37717">
        <ele>-0.82</ele>
        <time>2013-11-10T10:54:58Z</time>
      </trkpt>
      <trkpt lat="50.06035" lon="1.37719">
        <ele>-0.34</ele>
        <time>2013-11-10T10:55:01Z</time>
      </trkpt>
      <trkpt lat="50.06035" lon="1.37722">
        <ele>-0.34</ele>
        <time>2013-11-10T10:55:02Z</time>
      </trkpt>
      <trkpt lat="50.0603" lon="1.37734">
        <ele>-0.34</ele>
        <time>2013-11-10T10:55:12Z</time>
      </trkpt>
      <trkpt lat="50.06029" lon="1.37734">
        <ele>-0.34</ele>
        <time>2013-11-10T10:55:13Z</time>
      </trkpt>
      <trkpt lat="50.06014" lon="1.37729">
        <ele>-0.82</ele>
        <time>2013-11-10T10:55:30Z</time>
      </trkpt>
      <trkpt lat="50.06004" lon="1.3772">
        <ele>-1.3</ele>
        <time>2013-11-10T10:55:42Z</time>
      </trkpt>
      <trkpt lat="50.06001" lon="1.3772">
        <ele>-1.3</ele>
        <time>2013-11-10T10:55:44Z</time>
      </trkpt>
      <trkpt lat="50.06" lon="1.37719">
        <ele>-0.82</ele>
        <time>2013-11-10T10:55:45Z</time>
      </trkpt>
      <trkpt lat="50.06" lon="1.37716">
        <ele>-0.34</ele>
        <time>2013-11-10T10:55:46Z</time>
      </trkpt>
      <trkpt lat="50.05999" lon="1.37714">
        <ele>-0.82</ele>
        <time>2013-11-10T10:55:47Z</time>
      </trkpt>
      <trkpt lat="50.05999" lon="1.37712">
        <ele>-0.82</ele>
        <time>2013-11-10T10:55:48Z</time>
      </trkpt>
      <trkpt lat="50.05999" lon="1.37688">
        <ele>-0.82</ele>
        <time>2013-11-10T10:56:05Z</time>
      </trkpt>
      <trkpt lat="50.06003" lon="1.37701">
        <ele>-0.82</ele>
        <time>2013-11-10T10:56:18Z</time>
      </trkpt>
      <trkpt lat="50.06003" lon="1.37699">
        <ele>-0.82</ele>
        <time>2013-11-10T10:56:37Z</time>
      </trkpt>
      <trkpt lat="50.06" lon="1.37688">
        <ele>-0.34</ele>
        <time>2013-11-10T10:56:49Z</time>
      </trkpt>
      <trkpt lat="50.06001" lon="1.37656">
        <ele>-0.34</ele>
        <time>2013-11-10T10:57:06Z</time>
      </trkpt>
      <trkpt lat="50.06002" lon="1.37643">
        <ele>0.62</ele>
        <time>2013-11-10T10:57:13Z</time>
      </trkpt>
      <trkpt lat="50.06003" lon="1.37604">
        <ele>0.14</ele>
        <time>2013-11-10T10:57:33Z</time>
      </trkpt>
      <trkpt lat="50.06009" lon="1.37572">
        <ele>-0.34</ele>
        <time>2013-11-10T10:57:50Z</time>
      </trkpt>
      <trkpt lat="50.06012" lon="1.37534">
        <ele>0.14</ele>
        <time>2013-11-10T10:58:10Z</time>
      </trkpt>
      <trkpt lat="50.06019" lon="1.37503">
        <ele>1.1</ele>
        <time>2013-11-10T10:58:28Z</time>
      </trkpt>
      <trkpt lat="50.06019" lon="1.37502">
        <ele>1.58</ele>
        <time>2013-11-10T10:58:29Z</time>
      </trkpt>
      <trkpt lat="50.06024" lon="1.37481">
        <ele>3.5</ele>
        <time>2013-11-10T10:58:42Z</time>
      </trkpt>
      <trkpt lat="50.06024" lon="1.3748">
        <ele>1.58</ele>
        <time>2013-11-10T10:58:43Z</time>
      </trkpt>
      <trkpt lat="50.06024" lon="1.37478">
        <ele>1.58</ele>
        <time>2013-11-10T10:58:44Z</time>
      </trkpt>
      <trkpt lat="50.06025" lon="1.37471">
        <ele>0.62</ele>
        <time>2013-11-10T10:58:48Z</time>
      </trkpt>
      <trkpt lat="50.06031" lon="1.37451">
        <ele>-0.34</ele>
        <time>2013-11-10T10:59:05Z</time>
      </trkpt>
      <trkpt lat="50.06034" lon="1.37444">
        <ele>-0.34</ele>
        <time>2013-11-10T10:59:21Z</time>
      </trkpt>
      <trkpt lat="50.0604" lon="1.37413">
        <ele>-1.3</ele>
        <time>2013-11-10T10:59:39Z</time>
      </trkpt>
      <trkpt lat="50.06043" lon="1.37409">
        <ele>-0.82</ele>
        <time>2013-11-10T10:59:53Z</time>
      </trkpt>
      <trkpt lat="50.06045" lon="1.37413">
        <ele>-2.27</ele>
        <time>2013-11-10T11:00:21Z</time>
      </trkpt>
      <trkpt lat="50.06047" lon="1.37419">
        <ele>-1.79</ele>
        <time>2013-11-10T11:00:37Z</time>
      </trkpt>
      <trkpt lat="50.06046" lon="1.37405">
        <ele>-1.79</ele>
        <time>2013-11-10T11:00:56Z</time>
      </trkpt>
      <trkpt lat="50.06047" lon="1.37387">
        <ele>-1.3</ele>
        <time>2013-11-10T11:01:15Z</time>
      </trkpt>
      <trkpt lat="50.06049" lon="1.37382">
        <ele>-0.82</ele>
        <time>2013-11-10T11:01:33Z</time>
      </trkpt>
      <trkpt lat="50.0605" lon="1.37381">
        <ele>-0.34</ele>
        <time>2013-11-10T11:01:34Z</time>
      </trkpt>
      <trkpt lat="50.0605" lon="1.37379">
        <ele>-0.34</ele>
        <time>2013-11-10T11:01:35Z</time>
      </trkpt>
      <trkpt lat="50.06052" lon="1.37377">
        <ele>-1.3</ele>
        <time>2013-11-10T11:01:36Z</time>
      </trkpt>
      <trkpt lat="50.06053" lon="1.37375">
        <ele>-0.82</ele>
        <time>2013-11-10T11:01:37Z</time>
      </trkpt>
      <trkpt lat="50.06062" lon="1.37346">
        <ele>-1.3</ele>
        <time>2013-11-10T11:01:56Z</time>
      </trkpt>
      <trkpt lat="50.06062" lon="1.37341">
        <ele>-1.3</ele>
        <time>2013-11-10T11:02:09Z</time>
      </trkpt>
      <trkpt lat="50.06067" lon="1.37335">
        <ele>-1.79</ele>
        <time>2013-11-10T11:02:23Z</time>
      </trkpt>
      <trkpt lat="50.06075" lon="1.37305">
        <ele>-1.3</ele>
        <time>2013-11-10T11:02:42Z</time>
      </trkpt>
      <trkpt lat="50.0608" lon="1.37286">
        <ele>-1.3</ele>
        <time>2013-11-10T11:02:57Z</time>
      </trkpt>
      <trkpt lat="50.06084" lon="1.37278">
        <ele>-0.82</ele>
        <time>2013-11-10T11:03:10Z</time>
      </trkpt>
      <trkpt lat="50.06085" lon="1.37281">
        <ele>-0.82</ele>
        <time>2013-11-10T11:03:25Z</time>
      </trkpt>
      <trkpt lat="50.06084" lon="1.3728">
        <ele>-0.34</ele>
        <time>2013-11-10T11:03:36Z</time>
      </trkpt>
      <trkpt lat="50.06085" lon="1.37277">
        <ele>-1.3</ele>
        <time>2013-11-10T11:03:38Z</time>
      </trkpt>
      <trkpt lat="50.06092" lon="1.3726">
        <ele>-1.79</ele>
        <time>2013-11-10T11:03:56Z</time>
      </trkpt>
      <trkpt lat="50.06094" lon="1.3726">
        <ele>-1.3</ele>
        <time>2013-11-10T11:04:13Z</time>
      </trkpt>
      <trkpt lat="50.06093" lon="1.37253">
        <ele>-0.82</ele>
        <time>2013-11-10T11:04:33Z</time>
      </trkpt>
      <trkpt lat="50.06092" lon="1.37251">
        <ele>-0.82</ele>
        <time>2013-11-10T11:04:34Z</time>
      </trkpt>
      <trkpt lat="50.06092" lon="1.37249">
        <ele>-0.34</ele>
        <time>2013-11-10T11:04:35Z</time>
      </trkpt>
      <trkpt lat="50.06093" lon="1.37233">
        <ele>-0.34</ele>
        <time>2013-11-10T11:04:50Z</time>
      </trkpt>
      <trkpt lat="50.06098" lon="1.37225">
        <ele>-0.82</ele>
        <time>2013-11-10T11:05:06Z</time>
      </trkpt>
      <trkpt lat="50.06101" lon="1.37219">
        <ele>-0.82</ele>
        <time>2013-11-10T11:05:19Z</time>
      </trkpt>
      <trkpt lat="50.06109" lon="1.37211">
        <ele>-0.34</ele>
        <time>2013-11-10T11:05:34Z</time>
      </trkpt>
      <trkpt lat="50.06112" lon="1.37212">
        <ele>-0.82</ele>
        <time>2013-11-10T11:05:53Z</time>
      </trkpt>
      <trkpt lat="50.06115" lon="1.37209">
        <ele>-0.34</ele>
        <time>2013-11-10T11:05:56Z</time>
      </trkpt>
      <trkpt lat="50.06116" lon="1.37208">
        <ele>-0.82</ele>
        <time>2013-11-10T11:05:57Z</time>
      </trkpt>
      <trkpt lat="50.06123" lon="1.37188">
        <ele>0.14</ele>
        <time>2013-11-10T11:06:12Z</time>
      </trkpt>
      <trkpt lat="50.06127" lon="1.37173">
        <ele>-0.34</ele>
        <time>2013-11-10T11:06:26Z</time>
      </trkpt>
      <trkpt lat="50.06133" lon="1.37167">
        <ele>-2.27</ele>
        <time>2013-11-10T11:06:34Z</time>
      </trkpt>
      <trkpt lat="50.06145" lon="1.37159">
        <ele>-0.82</ele>
        <time>2013-11-10T11:06:47Z</time>
      </trkpt>
      <trkpt lat="50.06163" lon="1.37131">
        <ele>-0.34</ele>
        <time>2013-11-10T11:07:09Z</time>
      </trkpt>
      <trkpt lat="50.06189" lon="1.37127">
        <ele>-0.34</ele>
        <time>2013-11-10T11:07:31Z</time>
      </trkpt>
      <trkpt lat="50.06192" lon="1.37128">
        <ele>-0.82</ele>
        <time>2013-11-10T11:07:33Z</time>
      </trkpt>
      <trkpt lat="50.06199" lon="1.37126">
        <ele>0.62</ele>
        <time>2013-11-10T11:07:40Z</time>
      </trkpt>
      <trkpt lat="50.06205" lon="1.3712">
        <ele>-0.34</ele>
        <time>2013-11-10T11:07:57Z</time>
      </trkpt>
      <trkpt lat="50.0622" lon="1.37108">
        <ele>-0.82</ele>
        <time>2013-11-10T11:08:18Z</time>
      </trkpt>
      <trkpt lat="50.06242" lon="1.37086">
        <ele>0.14</ele>
        <time>2013-11-10T11:08:39Z</time>
      </trkpt>
      <trkpt lat="50.06259" lon="1.3708">
        <ele>1.1</ele>
        <time>2013-11-10T11:08:59Z</time>
      </trkpt>
      <trkpt lat="50.06262" lon="1.37078">
        <ele>1.58</ele>
        <time>2013-11-10T11:09:18Z</time>
      </trkpt>
      <trkpt lat="50.0626" lon="1.37072">
        <ele>2.54</ele>
        <time>2013-11-10T11:09:43Z</time>
      </trkpt>
      <trkpt lat="50.06259" lon="1.37062">
        <ele>2.54</ele>
        <time>2013-11-10T11:10:03Z</time>
      </trkpt>
      <trkpt lat="50.06252" lon="1.37055">
        <ele>1.58</ele>
        <time>2013-11-10T11:10:13Z</time>
      </trkpt>
      <trkpt lat="50.06245" lon="1.37039">
        <ele>0.14</ele>
        <time>2013-11-10T11:10:27Z</time>
      </trkpt>
      <trkpt lat="50.06235" lon="1.37031">
        <ele>1.1</ele>
        <time>2013-11-10T11:10:42Z</time>
      </trkpt>
      <trkpt lat="50.06234" lon="1.37026">
        <ele>0.62</ele>
        <time>2013-11-10T11:10:45Z</time>
      </trkpt>
      <trkpt lat="50.06236" lon="1.3702">
        <ele>0.62</ele>
        <time>2013-11-10T11:10:49Z</time>
      </trkpt>
      <trkpt lat="50.06243" lon="1.37007">
        <ele>1.1</ele>
        <time>2013-11-10T11:11:04Z</time>
      </trkpt>
      <trkpt lat="50.06254" lon="1.3699">
        <ele>0.62</ele>
        <time>2013-11-10T11:11:20Z</time>
      </trkpt>
      <trkpt lat="50.06267" lon="1.36977">
        <ele>1.1</ele>
        <time>2013-11-10T11:11:35Z</time>
      </trkpt>
      <trkpt lat="50.06269" lon="1.36968">
        <ele>1.1</ele>
        <time>2013-11-10T11:11:48Z</time>
      </trkpt>
      <trkpt lat="50.0627" lon="1.36965">
        <ele>0.62</ele>
        <time>2013-11-10T11:11:50Z</time>
      </trkpt>
      <trkpt lat="50.06273" lon="1.36944">
        <ele>-0.34</ele>
        <time>2013-11-10T11:12:07Z</time>
      </trkpt>
      <trkpt lat="50.06275" lon="1.36943">
        <ele>1.58</ele>
        <time>2013-11-10T11:12:20Z</time>
      </trkpt>
      <trkpt lat="50.06276" lon="1.36949">
        <ele>0.14</ele>
        <time>2013-11-10T11:12:24Z</time>
      </trkpt>
      <trkpt lat="50.06271" lon="1.36971">
        <ele>3.5</ele>
        <time>2013-11-10T11:12:38Z</time>
      </trkpt>
      <trkpt lat="50.06269" lon="1.36973">
        <ele>2.06</ele>
        <time>2013-11-10T11:12:51Z</time>
      </trkpt>
      <trkpt lat="50.06268" lon="1.3698">
        <ele>1.1</ele>
        <time>2013-11-10T11:13:03Z</time>
      </trkpt>
      <trkpt lat="50.06266" lon="1.36987">
        <ele>2.54</ele>
        <time>2013-11-10T11:13:08Z</time>
      </trkpt>
      <trkpt lat="50.06248" lon="1.37007">
        <ele>0.62</ele>
        <time>2013-11-10T11:13:27Z</time>
      </trkpt>
      <trkpt lat="50.06233" lon="1.37028">
        <ele>0.14</ele>
        <time>2013-11-10T11:13:45Z</time>
      </trkpt>
      <trkpt lat="50.06216" lon="1.37048">
        <ele>-0.34</ele>
        <time>2013-11-10T11:14:03Z</time>
      </trkpt>
      <trkpt lat="50.06213" lon="1.3705">
        <ele>-0.34</ele>
        <time>2013-11-10T11:14:19Z</time>
      </trkpt>
      <trkpt lat="50.062" lon="1.37067">
        <ele>-0.34</ele>
        <time>2013-11-10T11:14:35Z</time>
      </trkpt>
      <trkpt lat="50.06189" lon="1.37082">
        <ele>-0.82</ele>
        <time>2013-11-10T11:14:51Z</time>
      </trkpt>
      <trkpt lat="50.06186" lon="1.37084">
        <ele>-0.82</ele>
        <time>2013-11-10T11:14:58Z</time>
      </trkpt>
      <trkpt lat="50.06185" lon="1.37087">
        <ele>-0.34</ele>
        <time>2013-11-10T11:15:01Z</time>
      </trkpt>
      <trkpt lat="50.06174" lon="1.37098">
        <ele>0.14</ele>
        <time>2013-11-10T11:15:14Z</time>
      </trkpt>
      <trkpt lat="50.06166" lon="1.37112">
        <ele>0.14</ele>
        <time>2013-11-10T11:15:28Z</time>
      </trkpt>
      <trkpt lat="50.06159" lon="1.37109">
        <ele>-0.34</ele>
        <time>2013-11-10T11:15:41Z</time>
      </trkpt>
      <trkpt lat="50.06151" lon="1.37087">
        <ele>1.1</ele>
        <time>2013-11-10T11:15:57Z</time>
      </trkpt>
      <trkpt lat="50.06142" lon="1.37063">
        <ele>0.62</ele>
        <time>2013-11-10T11:16:15Z</time>
      </trkpt>
      <trkpt lat="50.06135" lon="1.37069">
        <ele>1.1</ele>
        <time>2013-11-10T11:16:31Z</time>
      </trkpt>
      <trkpt lat="50.06136" lon="1.37067">
        <ele>1.1</ele>
        <time>2013-11-10T11:16:51Z</time>
      </trkpt>
      <trkpt lat="50.06136" lon="1.37054">
        <ele>1.1</ele>
        <time>2013-11-10T11:17:06Z</time>
      </trkpt>
      <trkpt lat="50.06139" lon="1.37061">
        <ele>1.58</ele>
        <time>2013-11-10T11:17:25Z</time>
      </trkpt>
      <trkpt lat="50.06138" lon="1.37055">
        <ele>1.1</ele>
        <time>2013-11-10T11:17:32Z</time>
      </trkpt>
      <trkpt lat="50.0614" lon="1.37044">
        <ele>0.62</ele>
        <time>2013-11-10T11:17:46Z</time>
      </trkpt>
      <trkpt lat="50.06139" lon="1.37048">
        <ele>0.62</ele>
        <time>2013-11-10T11:18:02Z</time>
      </trkpt>
      <trkpt lat="50.06138" lon="1.37047">
        <ele>1.1</ele>
        <time>2013-11-10T11:18:27Z</time>
      </trkpt>
      <trkpt lat="50.06136" lon="1.37046">
        <ele>1.1</ele>
        <time>2013-11-10T11:18:54Z</time>
      </trkpt>
      <trkpt lat="50.06132" lon="1.37041">
        <ele>1.58</ele>
        <time>2013-11-10T11:19:20Z</time>
      </trkpt>
      <trkpt lat="50.06138" lon="1.37039">
        <ele>1.58</ele>
        <time>2013-11-10T11:19:44Z</time>
      </trkpt>
      <trkpt lat="50.06146" lon="1.37039">
        <ele>1.58</ele>
        <time>2013-11-10T11:19:53Z</time>
      </trkpt>
      <trkpt lat="50.06143" lon="1.37042">
        <ele>2.06</ele>
        <time>2013-11-10T11:20:14Z</time>
      </trkpt>
      <trkpt lat="50.06138" lon="1.37054">
        <ele>2.06</ele>
        <time>2013-11-10T11:20:38Z</time>
      </trkpt>
      <trkpt lat="50.06146" lon="1.37064">
        <ele>2.06</ele>
        <time>2013-11-10T11:20:49Z</time>
      </trkpt>
      <trkpt lat="50.06151" lon="1.37055">
        <ele>2.06</ele>
        <time>2013-11-10T11:21:10Z</time>
      </trkpt>
      <trkpt lat="50.06148" lon="1.37045">
        <ele>2.54</ele>
        <time>2013-11-10T11:21:37Z</time>
      </trkpt>
      <trkpt lat="50.0614" lon="1.37045">
        <ele>2.54</ele>
        <time>2013-11-10T11:21:59Z</time>
      </trkpt>
      <trkpt lat="50.06141" lon="1.37047">
        <ele>2.54</ele>
        <time>2013-11-10T11:22:21Z</time>
      </trkpt>
      <trkpt lat="50.06141" lon="1.37048">
        <ele>2.54</ele>
        <time>2013-11-10T11:22:23Z</time>
      </trkpt>
      <trkpt lat="50.06145" lon="1.37067">
        <ele>3.02</ele>
        <time>2013-11-10T11:22:39Z</time>
      </trkpt>
      <trkpt lat="50.06149" lon="1.37066">
        <ele>3.5</ele>
        <time>2013-11-10T11:22:54Z</time>
      </trkpt>
      <trkpt lat="50.0615" lon="1.37067">
        <ele>2.54</ele>
        <time>2013-11-10T11:23:14Z</time>
      </trkpt>
      <trkpt lat="50.0614" lon="1.37061">
        <ele>3.02</ele>
        <time>2013-11-10T11:23:28Z</time>
      </trkpt>
      <trkpt lat="50.06139" lon="1.37061">
        <ele>2.06</ele>
        <time>2013-11-10T11:23:43Z</time>
      </trkpt>
      <trkpt lat="50.06137" lon="1.3706">
        <ele>2.06</ele>
        <time>2013-11-10T11:24:11Z</time>
      </trkpt>
      <trkpt lat="50.06135" lon="1.37053">
        <ele>2.54</ele>
        <time>2013-11-10T11:24:30Z</time>
      </trkpt>
      <trkpt lat="50.06134" lon="1.37049">
        <ele>2.54</ele>
        <time>2013-11-10T11:24:57Z</time>
      </trkpt>
      <trkpt lat="50.06132" lon="1.37047">
        <ele>2.54</ele>
        <time>2013-11-10T11:25:26Z</time>
      </trkpt>
      <trkpt lat="50.06129" lon="1.37046">
        <ele>2.06</ele>
        <time>2013-11-10T11:25:59Z</time>
      </trkpt>
      <trkpt lat="50.06127" lon="1.37048">
        <ele>3.5</ele>
        <time>2013-11-10T11:26:30Z</time>
      </trkpt>
      <trkpt lat="50.06128" lon="1.37049">
        <ele>2.54</ele>
        <time>2013-11-10T11:26:41Z</time>
      </trkpt>
      <trkpt lat="50.06129" lon="1.37053">
        <ele>5.42</ele>
        <time>2013-11-10T11:26:58Z</time>
      </trkpt>
      <trkpt lat="50.06129" lon="1.37052">
        <ele>3.98</ele>
        <time>2013-11-10T11:26:59Z</time>
      </trkpt>
      <trkpt lat="50.06128" lon="1.37048">
        <ele>2.54</ele>
        <time>2013-11-10T11:27:15Z</time>
      </trkpt>
      <trkpt lat="50.06127" lon="1.37049">
        <ele>4.46</ele>
        <time>2013-11-10T11:27:33Z</time>
      </trkpt>
      <trkpt lat="50.06128" lon="1.37052">
        <ele>3.98</ele>
        <time>2013-11-10T11:27:57Z</time>
      </trkpt>
      <trkpt lat="50.06132" lon="1.37053">
        <ele>3.98</ele>
        <time>2013-11-10T11:28:19Z</time>
      </trkpt>
      <trkpt lat="50.06132" lon="1.37054">
        <ele>5.42</ele>
        <time>2013-11-10T11:28:44Z</time>
      </trkpt>
      <trkpt lat="50.06131" lon="1.37058">
        <ele>4.46</ele>
        <time>2013-11-10T11:29:04Z</time>
      </trkpt>
      <trkpt lat="50.06136" lon="1.3706">
        <ele>4.46</ele>
        <time>2013-11-10T11:29:25Z</time>
      </trkpt>
      <trkpt lat="50.06137" lon="1.37058">
        <ele>4.94</ele>
        <time>2013-11-10T11:29:42Z</time>
      </trkpt>
      <trkpt lat="50.06136" lon="1.37058">
        <ele>5.42</ele>
        <time>2013-11-10T11:29:54Z</time>
      </trkpt>
      <trkpt lat="50.06129" lon="1.37055">
        <ele>5.42</ele>
        <time>2013-11-10T11:30:16Z</time>
      </trkpt>
      <trkpt lat="50.06129" lon="1.37055">
        <ele>4.94</ele>
        <time>2013-11-10T11:30:42Z</time>
      </trkpt>
      <trkpt lat="50.06133" lon="1.37053">
        <ele>4.94</ele>
        <time>2013-11-10T11:31:06Z</time>
      </trkpt>
      <trkpt lat="50.06131" lon="1.37056">
        <ele>5.42</ele>
        <time>2013-11-10T11:31:29Z</time>
      </trkpt>
      <trkpt lat="50.06133" lon="1.3706">
        <ele>5.91</ele>
        <time>2013-11-10T11:32:00Z</time>
      </trkpt>
      <trkpt lat="50.06132" lon="1.37055">
        <ele>5.91</ele>
        <time>2013-11-10T11:32:24Z</time>
      </trkpt>
      <trkpt lat="50.06132" lon="1.37052">
        <ele>6.39</ele>
        <time>2013-11-10T11:32:47Z</time>
      </trkpt>
      <trkpt lat="50.0613" lon="1.37053">
        <ele>6.39</ele>
        <time>2013-11-10T11:33:15Z</time>
      </trkpt>
      <trkpt lat="50.06136" lon="1.3705">
        <ele>6.87</ele>
        <time>2013-11-10T11:33:42Z</time>
      </trkpt>
      <trkpt lat="50.06131" lon="1.37048">
        <ele>6.87</ele>
        <time>2013-11-10T11:34:11Z</time>
      </trkpt>
      <trkpt lat="50.06127" lon="1.37053">
        <ele>6.87</ele>
        <time>2013-11-10T11:34:44Z</time>
      </trkpt>
      <trkpt lat="50.06129" lon="1.37052">
        <ele>7.35</ele>
        <time>2013-11-10T11:35:17Z</time>
      </trkpt>
      <trkpt lat="50.06136" lon="1.37057">
        <ele>7.35</ele>
        <time>2013-11-10T11:35:42Z</time>
      </trkpt>
      <trkpt lat="50.06136" lon="1.37054">
        <ele>7.35</ele>
        <time>2013-11-10T11:36:09Z</time>
      </trkpt>
      <trkpt lat="50.06134" lon="1.3705">
        <ele>8.31</ele>
        <time>2013-11-10T11:36:34Z</time>
      </trkpt>
      <trkpt lat="50.06136" lon="1.37052">
        <ele>7.83</ele>
        <time>2013-11-10T11:36:55Z</time>
      </trkpt>
      <trkpt lat="50.06134" lon="1.37048">
        <ele>7.83</ele>
        <time>2013-11-10T11:37:24Z</time>
      </trkpt>
      <trkpt lat="50.06137" lon="1.37053">
        <ele>7.83</ele>
        <time>2013-11-10T11:37:53Z</time>
      </trkpt>
      <trkpt lat="50.06136" lon="1.37057">
        <ele>8.79</ele>
        <time>2013-11-10T11:38:24Z</time>
      </trkpt>
      <trkpt lat="50.06136" lon="1.37054">
        <ele>8.31</ele>
        <time>2013-11-10T11:38:50Z</time>
      </trkpt>
      <trkpt lat="50.06128" lon="1.37045">
        <ele>9.27</ele>
        <time>2013-11-10T11:39:17Z</time>
      </trkpt>
      <trkpt lat="50.06133" lon="1.37054">
        <ele>9.27</ele>
        <time>2013-11-10T11:39:40Z</time>
      </trkpt>
      <trkpt lat="50.0614" lon="1.37055">
        <ele>9.75</ele>
        <time>2013-11-10T11:40:05Z</time>
      </trkpt>
      <trkpt lat="50.06134" lon="1.37057">
        <ele>9.27</ele>
        <time>2013-11-10T11:40:33Z</time>
      </trkpt>
      <trkpt lat="50.06136" lon="1.37065">
        <ele>9.27</ele>
        <time>2013-11-10T11:41:01Z</time>
      </trkpt>
      <trkpt lat="50.06137" lon="1.37053">
        <ele>9.27</ele>
        <time>2013-11-10T11:41:37Z</time>
      </trkpt>
      <trkpt lat="50.06135" lon="1.37053">
        <ele>9.27</ele>
        <time>2013-11-10T11:42:01Z</time>
      </trkpt>
      <trkpt lat="50.06138" lon="1.37055">
        <ele>9.27</ele>
        <time>2013-11-10T11:42:07Z</time>
      </trkpt>
      <trkpt lat="50.06137" lon="1.37054">
        <ele>9.27</ele>
        <time>2013-11-10T11:42:38Z</time>
      </trkpt>
      <trkpt lat="50.06132" lon="1.37055">
        <ele>9.27</ele>
        <time>2013-11-10T11:43:04Z</time>
      </trkpt>
      <trkpt lat="50.06131" lon="1.37053">
        <ele>9.75</ele>
        <time>2013-11-10T11:43:35Z</time>
      </trkpt>
      <trkpt lat="50.06136" lon="1.3705">
        <ele>8.79</ele>
        <time>2013-11-10T11:43:59Z</time>
      </trkpt>
      <trkpt lat="50.06139" lon="1.37049">
        <ele>9.27</ele>
        <time>2013-11-10T11:44:33Z</time>
      </trkpt>
      <trkpt lat="50.06136" lon="1.37048">
        <ele>9.27</ele>
        <time>2013-11-10T11:45:04Z</time>
      </trkpt>
      <trkpt lat="50.06137" lon="1.37052">
        <ele>9.75</ele>
        <time>2013-11-10T11:45:35Z</time>
      </trkpt>
      <trkpt lat="50.0614" lon="1.37054">
        <ele>9.75</ele>
        <time>2013-11-10T11:46:02Z</time>
      </trkpt>
      <trkpt lat="50.06138" lon="1.37053">
        <ele>10.23</ele>
        <time>2013-11-10T11:46:35Z</time>
      </trkpt>
      <trkpt lat="50.06133" lon="1.37053">
        <ele>11.19</ele>
        <time>2013-11-10T11:46:57Z</time>
      </trkpt>
      <trkpt lat="50.06132" lon="1.37052">
        <ele>11.19</ele>
        <time>2013-11-10T11:47:23Z</time>
      </trkpt>
      <trkpt lat="50.06133" lon="1.37052">
        <ele>10.23</ele>
        <time>2013-11-10T11:47:45Z</time>
      </trkpt>
      <trkpt lat="50.06132" lon="1.37051">
        <ele>11.19</ele>
        <time>2013-11-10T11:48:11Z</time>
      </trkpt>
      <trkpt lat="50.06132" lon="1.37053">
        <ele>11.19</ele>
        <time>2013-11-10T11:48:49Z</time>
      </trkpt>
      <trkpt lat="50.06131" lon="1.3705">
        <ele>11.67</ele>
        <time>2013-11-10T11:49:20Z</time>
      </trkpt>
      <trkpt lat="50.0613" lon="1.37046">
        <ele>11.67</ele>
        <time>2013-11-10T11:49:47Z</time>
      </trkpt>
      <trkpt lat="50.06132" lon="1.37054">
        <ele>12.15</ele>
        <time>2013-11-10T11:50:18Z</time>
      </trkpt>
      <trkpt lat="50.06136" lon="1.37057">
        <ele>13.6</ele>
        <time>2013-11-10T11:50:27Z</time>
      </trkpt>
      <trkpt lat="50.06138" lon="1.37066">
        <ele>12.63</ele>
        <time>2013-11-10T11:50:47Z</time>
      </trkpt>
      <trkpt lat="50.0614" lon="1.37057">
        <ele>12.63</ele>
        <time>2013-11-10T11:51:02Z</time>
      </trkpt>
      <trkpt lat="50.06138" lon="1.37067">
        <ele>12.63</ele>
        <time>2013-11-10T11:51:25Z</time>
      </trkpt>
      <trkpt lat="50.06127" lon="1.3707">
        <ele>13.6</ele>
        <time>2013-11-10T11:51:37Z</time>
      </trkpt>
      <trkpt lat="50.06118" lon="1.37078">
        <ele>12.63</ele>
        <time>2013-11-10T11:51:55Z</time>
      </trkpt>
      <trkpt lat="50.06112" lon="1.37083">
        <ele>13.6</ele>
        <time>2013-11-10T11:52:12Z</time>
      </trkpt>
      <trkpt lat="50.06111" lon="1.37087">
        <ele>13.6</ele>
        <time>2013-11-10T11:52:28Z</time>
      </trkpt>
      <trkpt lat="50.06105" lon="1.37096">
        <ele>13.12</ele>
        <time>2013-11-10T11:52:41Z</time>
      </trkpt>
      <trkpt lat="50.06095" lon="1.37101">
        <ele>14.08</ele>
        <time>2013-11-10T11:52:53Z</time>
      </trkpt>
      <trkpt lat="50.06083" lon="1.37105">
        <ele>15.52</ele>
        <time>2013-11-10T11:53:07Z</time>
      </trkpt>
      <trkpt lat="50.06083" lon="1.37113">
        <ele>15.52</ele>
        <time>2013-11-10T11:53:20Z</time>
      </trkpt>
      <trkpt lat="50.06079" lon="1.37122">
        <ele>16</ele>
        <time>2013-11-10T11:53:36Z</time>
      </trkpt>
      <trkpt lat="50.06078" lon="1.37128">
        <ele>16.48</ele>
        <time>2013-11-10T11:53:59Z</time>
      </trkpt>
      <trkpt lat="50.06091" lon="1.37136">
        <ele>16.96</ele>
        <time>2013-11-10T11:54:18Z</time>
      </trkpt>
      <trkpt lat="50.06092" lon="1.37131">
        <ele>17.44</ele>
        <time>2013-11-10T11:54:40Z</time>
      </trkpt>
      <trkpt lat="50.06094" lon="1.37134">
        <ele>16</ele>
        <time>2013-11-10T11:54:46Z</time>
      </trkpt>
      <trkpt lat="50.06091" lon="1.37152">
        <ele>16.96</ele>
        <time>2013-11-10T11:55:01Z</time>
      </trkpt>
      <trkpt lat="50.06071" lon="1.37184">
        <ele>18.4</ele>
        <time>2013-11-10T11:55:17Z</time>
      </trkpt>
      <trkpt lat="50.06072" lon="1.37185">
        <ele>18.4</ele>
        <time>2013-11-10T11:55:33Z</time>
      </trkpt>
      <trkpt lat="50.06071" lon="1.37196">
        <ele>18.4</ele>
        <time>2013-11-10T11:55:49Z</time>
      </trkpt>
      <trkpt lat="50.06068" lon="1.37203">
        <ele>18.88</ele>
        <time>2013-11-10T11:55:57Z</time>
      </trkpt>
      <trkpt lat="50.06059" lon="1.37224">
        <ele>18.88</ele>
        <time>2013-11-10T11:56:13Z</time>
      </trkpt>
      <trkpt lat="50.06058" lon="1.37251">
        <ele>18.88</ele>
        <time>2013-11-10T11:56:31Z</time>
      </trkpt>
      <trkpt lat="50.06058" lon="1.37252">
        <ele>18.4</ele>
        <time>2013-11-10T11:56:32Z</time>
      </trkpt>
      <trkpt lat="50.06055" lon="1.3726">
        <ele>19.36</ele>
        <time>2013-11-10T11:56:38Z</time>
      </trkpt>
      <trkpt lat="50.06056" lon="1.37268">
        <ele>19.36</ele>
        <time>2013-11-10T11:56:53Z</time>
      </trkpt>
      <trkpt lat="50.06055" lon="1.37271">
        <ele>19.84</ele>
        <time>2013-11-10T11:57:07Z</time>
      </trkpt>
      <trkpt lat="50.06037" lon="1.37272">
        <ele>20.32</ele>
        <time>2013-11-10T11:57:25Z</time>
      </trkpt>
      <trkpt lat="50.06025" lon="1.37264">
        <ele>21.29</ele>
        <time>2013-11-10T11:57:40Z</time>
      </trkpt>
      <trkpt lat="50.06018" lon="1.37259">
        <ele>21.29</ele>
        <time>2013-11-10T11:57:53Z</time>
      </trkpt>
      <trkpt lat="50.06017" lon="1.37264">
        <ele>21.29</ele>
        <time>2013-11-10T11:58:13Z</time>
      </trkpt>
      <trkpt lat="50.06017" lon="1.37264">
        <ele>21.29</ele>
        <time>2013-11-10T11:58:25Z</time>
      </trkpt>
      <trkpt lat="50.06009" lon="1.37256">
        <ele>21.77</ele>
        <time>2013-11-10T11:58:36Z</time>
      </trkpt>
      <trkpt lat="50.06" lon="1.37245">
        <ele>21.29</ele>
        <time>2013-11-10T11:58:49Z</time>
      </trkpt>
      <trkpt lat="50.05985" lon="1.37238">
        <ele>23.69</ele>
        <time>2013-11-10T11:59:05Z</time>
      </trkpt>
      <trkpt lat="50.05973" lon="1.37234">
        <ele>24.17</ele>
        <time>2013-11-10T11:59:19Z</time>
      </trkpt>
      <trkpt lat="50.05972" lon="1.37235">
        <ele>24.65</ele>
        <time>2013-11-10T11:59:21Z</time>
      </trkpt>
      <trkpt lat="50.05963" lon="1.37226">
        <ele>25.13</ele>
        <time>2013-11-10T11:59:38Z</time>
      </trkpt>
      <trkpt lat="50.05959" lon="1.37216">
        <ele>25.13</ele>
        <time>2013-11-10T11:59:53Z</time>
      </trkpt>
      <trkpt lat="50.0595" lon="1.37217">
        <ele>25.61</ele>
        <time>2013-11-10T12:00:12Z</time>
      </trkpt>
      <trkpt lat="50.05946" lon="1.37225">
        <ele>26.09</ele>
        <time>2013-11-10T12:00:27Z</time>
      </trkpt>
      <trkpt lat="50.05945" lon="1.37239">
        <ele>26.09</ele>
        <time>2013-11-10T12:00:41Z</time>
      </trkpt>
      <trkpt lat="50.05943" lon="1.3724">
        <ele>26.57</ele>
        <time>2013-11-10T12:00:44Z</time>
      </trkpt>
      <trkpt lat="50.05941" lon="1.37266">
        <ele>26.57</ele>
        <time>2013-11-10T12:00:59Z</time>
      </trkpt>
      <trkpt lat="50.05942" lon="1.37287">
        <ele>29.46</ele>
        <time>2013-11-10T12:01:14Z</time>
      </trkpt>
      <trkpt lat="50.05942" lon="1.37293">
        <ele>28.98</ele>
        <time>2013-11-10T12:01:18Z</time>
      </trkpt>
      <trkpt lat="50.05947" lon="1.37323">
        <ele>31.38</ele>
        <time>2013-11-10T12:01:33Z</time>
      </trkpt>
      <trkpt lat="50.05949" lon="1.37327">
        <ele>32.82</ele>
        <time>2013-11-10T12:01:51Z</time>
      </trkpt>
      <trkpt lat="50.05959" lon="1.37327">
        <ele>32.82</ele>
        <time>2013-11-10T12:02:09Z</time>
      </trkpt>
      <trkpt lat="50.05973" lon="1.37329">
        <ele>33.78</ele>
        <time>2013-11-10T12:02:29Z</time>
      </trkpt>
      <trkpt lat="50.0598" lon="1.37337">
        <ele>35.23</ele>
        <time>2013-11-10T12:02:46Z</time>
      </trkpt>
      <trkpt lat="50.05986" lon="1.37343">
        <ele>34.26</ele>
        <time>2013-11-10T12:02:59Z</time>
      </trkpt>
      <trkpt lat="50.05988" lon="1.37344">
        <ele>35.71</ele>
        <time>2013-11-10T12:03:01Z</time>
      </trkpt>
      <trkpt lat="50.05991" lon="1.37343">
        <ele>33.78</ele>
        <time>2013-11-10T12:03:06Z</time>
      </trkpt>
      <trkpt lat="50.05997" lon="1.37343">
        <ele>32.34</ele>
        <time>2013-11-10T12:03:16Z</time>
      </trkpt>
      <trkpt lat="50.05998" lon="1.37343">
        <ele>34.26</ele>
        <time>2013-11-10T12:03:17Z</time>
      </trkpt>
      <trkpt lat="50.05987" lon="1.37345">
        <ele>33.78</ele>
        <time>2013-11-10T12:05:27Z</time>
      </trkpt>
      <trkpt lat="50.0599" lon="1.37335">
        <ele>32.82</ele>
        <time>2013-11-10T12:05:40Z</time>
      </trkpt>
      <trkpt lat="50.05991" lon="1.37334">
        <ele>32.82</ele>
        <time>2013-11-10T12:05:41Z</time>
      </trkpt>
      <trkpt lat="50.0599" lon="1.37324">
        <ele>32.82</ele>
        <time>2013-11-10T12:05:54Z</time>
      </trkpt>
      <trkpt lat="50.05995" lon="1.37324">
        <ele>33.3</ele>
        <time>2013-11-10T12:05:59Z</time>
      </trkpt>
      <trkpt lat="50.05998" lon="1.37325">
        <ele>31.38</ele>
        <time>2013-11-10T12:06:02Z</time>
      </trkpt>
      <trkpt lat="50.06012" lon="1.37331">
        <ele>30.9</ele>
        <time>2013-11-10T12:06:23Z</time>
      </trkpt>
      <trkpt lat="50.06006" lon="1.37328">
        <ele>31.86</ele>
        <time>2013-11-10T12:06:40Z</time>
      </trkpt>
      <trkpt lat="50.06001" lon="1.37325">
        <ele>29.94</ele>
        <time>2013-11-10T12:06:57Z</time>
      </trkpt>
      <trkpt lat="50.06001" lon="1.37325">
        <ele>31.86</ele>
        <time>2013-11-10T12:06:58Z</time>
      </trkpt>
      <trkpt lat="50.06012" lon="1.37334">
        <ele>28.98</ele>
        <time>2013-11-10T12:07:05Z</time>
      </trkpt>
      <trkpt lat="50.06016" lon="1.37342">
        <ele>25.61</ele>
        <time>2013-11-10T12:07:19Z</time>
      </trkpt>
      <trkpt lat="50.06021" lon="1.37339">
        <ele>25.13</ele>
        <time>2013-11-10T12:07:35Z</time>
      </trkpt>
      <trkpt lat="50.06023" lon="1.37338">
        <ele>22.73</ele>
        <time>2013-11-10T12:07:44Z</time>
      </trkpt>
      <trkpt lat="50.06024" lon="1.37336">
        <ele>21.77</ele>
        <time>2013-11-10T12:07:49Z</time>
      </trkpt>
      <trkpt lat="50.06026" lon="1.37332">
        <ele>19.36</ele>
        <time>2013-11-10T12:07:56Z</time>
      </trkpt>
      <trkpt lat="50.06025" lon="1.37322">
        <ele>18.88</ele>
        <time>2013-11-10T12:08:02Z</time>
      </trkpt>
      <trkpt lat="50.06026" lon="1.37317">
        <ele>17.44</ele>
        <time>2013-11-10T12:08:05Z</time>
      </trkpt>
      <trkpt lat="50.06036" lon="1.37301">
        <ele>16.48</ele>
        <time>2013-11-10T12:08:23Z</time>
      </trkpt>
      <trkpt lat="50.06043" lon="1.37291">
        <ele>14.08</ele>
        <time>2013-11-10T12:08:38Z</time>
      </trkpt>
      <trkpt lat="50.06042" lon="1.37283">
        <ele>15.52</ele>
        <time>2013-11-10T12:08:42Z</time>
      </trkpt>
      <trkpt lat="50.06044" lon="1.37294">
        <ele>16</ele>
        <time>2013-11-10T12:08:51Z</time>
      </trkpt>
      <trkpt lat="50.06042" lon="1.37307">
        <ele>13.12</ele>
        <time>2013-11-10T12:08:59Z</time>
      </trkpt>
      <trkpt lat="50.06036" lon="1.37336">
        <ele>9.75</ele>
        <time>2013-11-10T12:09:17Z</time>
      </trkpt>
      <trkpt lat="50.06036" lon="1.37338">
        <ele>9.75</ele>
        <time>2013-11-10T12:09:18Z</time>
      </trkpt>
      <trkpt lat="50.06034" lon="1.3737">
        <ele>7.83</ele>
        <time>2013-11-10T12:09:37Z</time>
      </trkpt>
      <trkpt lat="50.06029" lon="1.37389">
        <ele>6.39</ele>
        <time>2013-11-10T12:09:48Z</time>
      </trkpt>
      <trkpt lat="50.06027" lon="1.37415">
        <ele>5.91</ele>
        <time>2013-11-10T12:10:04Z</time>
      </trkpt>
      <trkpt lat="50.06025" lon="1.37422">
        <ele>6.39</ele>
        <time>2013-11-10T12:10:08Z</time>
      </trkpt>
      <trkpt lat="50.06022" lon="1.37432">
        <ele>6.87</ele>
        <time>2013-11-10T12:10:15Z</time>
      </trkpt>
      <trkpt lat="50.0602" lon="1.37441">
        <ele>6.87</ele>
        <time>2013-11-10T12:10:22Z</time>
      </trkpt>
      <trkpt lat="50.06015" lon="1.37471">
        <ele>6.87</ele>
        <time>2013-11-10T12:10:41Z</time>
      </trkpt>
      <trkpt lat="50.06009" lon="1.37495">
        <ele>7.83</ele>
        <time>2013-11-10T12:10:56Z</time>
      </trkpt>
      <trkpt lat="50.06002" lon="1.37523">
        <ele>7.83</ele>
        <time>2013-11-10T12:11:14Z</time>
      </trkpt>
      <trkpt lat="50.05999" lon="1.37543">
        <ele>7.35</ele>
        <time>2013-11-10T12:11:30Z</time>
      </trkpt>
      <trkpt lat="50.06" lon="1.37548">
        <ele>6.87</ele>
        <time>2013-11-10T12:11:45Z</time>
      </trkpt>
      <trkpt lat="50.05999" lon="1.37567">
        <ele>7.83</ele>
        <time>2013-11-10T12:11:58Z</time>
      </trkpt>
      <trkpt lat="50.05992" lon="1.37599">
        <ele>6.87</ele>
        <time>2013-11-10T12:12:18Z</time>
      </trkpt>
      <trkpt lat="50.05994" lon="1.37604">
        <ele>7.35</ele>
        <time>2013-11-10T12:12:22Z</time>
      </trkpt>
      <trkpt lat="50.05996" lon="1.37615">
        <ele>7.83</ele>
        <time>2013-11-10T12:12:29Z</time>
      </trkpt>
      <trkpt lat="50.05992" lon="1.37633">
        <ele>7.35</ele>
        <time>2013-11-10T12:12:44Z</time>
      </trkpt>
      <trkpt lat="50.0599" lon="1.37646">
        <ele>7.35</ele>
        <time>2013-11-10T12:12:52Z</time>
      </trkpt>
      <trkpt lat="50.05988" lon="1.37681">
        <ele>6.87</ele>
        <time>2013-11-10T12:13:13Z</time>
      </trkpt>
      <trkpt lat="50.05988" lon="1.37688">
        <ele>6.39</ele>
        <time>2013-11-10T12:13:17Z</time>
      </trkpt>
      <trkpt lat="50.05988" lon="1.37714">
        <ele>7.35</ele>
        <time>2013-11-10T12:13:32Z</time>
      </trkpt>
      <trkpt lat="50.05989" lon="1.37717">
        <ele>5.91</ele>
        <time>2013-11-10T12:13:43Z</time>
      </trkpt>
      <trkpt lat="50.05995" lon="1.37715">
        <ele>5.91</ele>
        <time>2013-11-10T12:13:49Z</time>
      </trkpt>
      <trkpt lat="50.06002" lon="1.37716">
        <ele>6.39</ele>
        <time>2013-11-10T12:13:56Z</time>
      </trkpt>
      <trkpt lat="50.06005" lon="1.37716">
        <ele>5.91</ele>
        <time>2013-11-10T12:13:59Z</time>
      </trkpt>
      <trkpt lat="50.06008" lon="1.37715">
        <ele>6.39</ele>
        <time>2013-11-10T12:14:13Z</time>
      </trkpt>
      <trkpt lat="50.06015" lon="1.37718">
        <ele>5.91</ele>
        <time>2013-11-10T12:14:21Z</time>
      </trkpt>
      <trkpt lat="50.06016" lon="1.37724">
        <ele>6.39</ele>
        <time>2013-11-10T12:14:34Z</time>
      </trkpt>
      <trkpt lat="50.06012" lon="1.37724">
        <ele>6.39</ele>
        <time>2013-11-10T12:14:37Z</time>
      </trkpt>
      <trkpt lat="50.06013" lon="1.37719">
        <ele>5.42</ele>
        <time>2013-11-10T12:14:40Z</time>
      </trkpt>
      <trkpt lat="50.06014" lon="1.37704">
        <ele>6.39</ele>
        <time>2013-11-10T12:14:48Z</time>
      </trkpt>
      <trkpt lat="50.06018" lon="1.37693">
        <ele>5.42</ele>
        <time>2013-11-10T12:14:59Z</time>
      </trkpt>
      <trkpt lat="50.06017" lon="1.37686">
        <ele>5.42</ele>
        <time>2013-11-10T12:15:15Z</time>
      </trkpt>
      <trkpt lat="50.06018" lon="1.37671">
        <ele>6.39</ele>
        <time>2013-11-10T12:15:24Z</time>
      </trkpt>
      <trkpt lat="50.06023" lon="1.37669">
        <ele>6.39</ele>
        <time>2013-11-10T12:15:29Z</time>
      </trkpt>
      <trkpt lat="50.06026" lon="1.37668">
        <ele>5.91</ele>
        <time>2013-11-10T12:15:32Z</time>
      </trkpt>
      <trkpt lat="50.06043" lon="1.37668">
        <ele>6.39</ele>
        <time>2013-11-10T12:15:48Z</time>
      </trkpt>
      <trkpt lat="50.06048" lon="1.37665">
        <ele>6.39</ele>
        <time>2013-11-10T12:15:58Z</time>
      </trkpt>
      <trkpt lat="50.06049" lon="1.37651">
        <ele>6.39</ele>
        <time>2013-11-10T12:16:05Z</time>
      </trkpt>
      <trkpt lat="50.0605" lon="1.37609">
        <ele>6.87</ele>
        <time>2013-11-10T12:16:27Z</time>
      </trkpt>
      <trkpt lat="50.06047" lon="1.37578">
        <ele>7.83</ele>
        <time>2013-11-10T12:16:45Z</time>
      </trkpt>
      <trkpt lat="50.06044" lon="1.37545">
        <ele>7.83</ele>
        <time>2013-11-10T12:17:03Z</time>
      </trkpt>
      <trkpt lat="50.06045" lon="1.37542">
        <ele>7.83</ele>
        <time>2013-11-10T12:17:05Z</time>
      </trkpt>
      <trkpt lat="50.06066" lon="1.37533">
        <ele>8.31</ele>
        <time>2013-11-10T12:17:22Z</time>
      </trkpt>
      <trkpt lat="50.06069" lon="1.3753">
        <ele>8.31</ele>
        <time>2013-11-10T12:17:25Z</time>
      </trkpt>
      <trkpt lat="50.06079" lon="1.37536">
        <ele>7.35</ele>
        <time>2013-11-10T12:17:40Z</time>
      </trkpt>
      <trkpt lat="50.06082" lon="1.37537">
        <ele>5.91</ele>
        <time>2013-11-10T12:17:49Z</time>
      </trkpt>
      <trkpt lat="50.06102" lon="1.37555">
        <ele>5.91</ele>
        <time>2013-11-10T12:18:08Z</time>
      </trkpt>
      <trkpt lat="50.06119" lon="1.3757">
        <ele>5.42</ele>
        <time>2013-11-10T12:18:26Z</time>
      </trkpt>
      <trkpt lat="50.06129" lon="1.37582">
        <ele>6.39</ele>
        <time>2013-11-10T12:18:42Z</time>
      </trkpt>
      <trkpt lat="50.0613" lon="1.37583">
        <ele>6.87</ele>
        <time>2013-11-10T12:18:43Z</time>
      </trkpt>
      <trkpt lat="50.06144" lon="1.37601">
        <ele>5.42</ele>
        <time>2013-11-10T12:19:00Z</time>
      </trkpt>
      <trkpt lat="50.0615" lon="1.37607">
        <ele>5.91</ele>
        <time>2013-11-10T12:19:15Z</time>
      </trkpt>
      <trkpt lat="50.06155" lon="1.3761">
        <ele>5.91</ele>
        <time>2013-11-10T12:19:23Z</time>
      </trkpt>
      <trkpt lat="50.06158" lon="1.37626">
        <ele>6.39</ele>
        <time>2013-11-10T12:19:39Z</time>
      </trkpt>
      <trkpt lat="50.06161" lon="1.37653">
        <ele>6.87</ele>
        <time>2013-11-10T12:19:54Z</time>
      </trkpt>
      <trkpt lat="50.06165" lon="1.37684">
        <ele>5.42</ele>
        <time>2013-11-10T12:20:13Z</time>
      </trkpt>
      <trkpt lat="50.06165" lon="1.37685">
        <ele>5.42</ele>
        <time>2013-11-10T12:20:15Z</time>
      </trkpt>
      <trkpt lat="50.0617" lon="1.3772">
        <ele>5.42</ele>
        <time>2013-11-10T12:20:36Z</time>
      </trkpt>
      <trkpt lat="50.06169" lon="1.37727">
        <ele>6.39</ele>
        <time>2013-11-10T12:20:40Z</time>
      </trkpt>
      <trkpt lat="50.0617" lon="1.37731">
        <ele>7.35</ele>
        <time>2013-11-10T12:20:42Z</time>
      </trkpt>
      <trkpt lat="50.0617" lon="1.37738">
        <ele>8.79</ele>
        <time>2013-11-10T12:20:46Z</time>
      </trkpt>
      <trkpt lat="50.06171" lon="1.37741">
        <ele>6.87</ele>
        <time>2013-11-10T12:20:48Z</time>
      </trkpt>
      <trkpt lat="50.06172" lon="1.37753">
        <ele>6.87</ele>
        <time>2013-11-10T12:20:56Z</time>
      </trkpt>
      <trkpt lat="50.06184" lon="1.37747">
        <ele>6.87</ele>
        <time>2013-11-10T12:21:11Z</time>
      </trkpt>
      <trkpt lat="50.06195" lon="1.37744">
        <ele>7.35</ele>
        <time>2013-11-10T12:21:30Z</time>
      </trkpt>
      <trkpt lat="50.06208" lon="1.37738">
        <ele>6.87</ele>
        <time>2013-11-10T12:21:44Z</time>
      </trkpt>
      <trkpt lat="50.06216" lon="1.37735">
        <ele>6.39</ele>
        <time>2013-11-10T12:21:52Z</time>
      </trkpt>
      <trkpt lat="50.06221" lon="1.37711">
        <ele>6.87</ele>
        <time>2013-11-10T12:22:07Z</time>
      </trkpt>
      <trkpt lat="50.06214" lon="1.37681">
        <ele>6.87</ele>
        <time>2013-11-10T12:22:27Z</time>
      </trkpt>
      <trkpt lat="50.06207" lon="1.37648">
        <ele>7.35</ele>
        <time>2013-11-10T12:22:47Z</time>
      </trkpt>
      <trkpt lat="50.06202" lon="1.37619">
        <ele>7.83</ele>
        <time>2013-11-10T12:23:05Z</time>
      </trkpt>
      <trkpt lat="50.06217" lon="1.37598">
        <ele>7.83</ele>
        <time>2013-11-10T12:23:21Z</time>
      </trkpt>
      <trkpt lat="50.06219" lon="1.37597">
        <ele>8.79</ele>
        <time>2013-11-10T12:23:23Z</time>
      </trkpt>
      <trkpt lat="50.06224" lon="1.37595">
        <ele>6.87</ele>
        <time>2013-11-10T12:23:29Z</time>
      </trkpt>
      <trkpt lat="50.06233" lon="1.37591">
        <ele>11.19</ele>
        <time>2013-11-10T12:23:38Z</time>
      </trkpt>
      <trkpt lat="50.06234" lon="1.37591">
        <ele>10.71</ele>
        <time>2013-11-10T12:23:39Z</time>
      </trkpt>
      <trkpt lat="50.06236" lon="1.37591">
        <ele>7.35</ele>
        <time>2013-11-10T12:23:41Z</time>
      </trkpt>
      <trkpt lat="50.06249" lon="1.37602">
        <ele>4.94</ele>
        <time>2013-11-10T12:23:52Z</time>
      </trkpt>
      <trkpt lat="50.06259" lon="1.37612">
        <ele>5.91</ele>
        <time>2013-11-10T12:24:08Z</time>
      </trkpt>
      <trkpt lat="50.06264" lon="1.37612">
        <ele>5.91</ele>
        <time>2013-11-10T12:24:13Z</time>
      </trkpt>
      <trkpt lat="50.06272" lon="1.37611">
        <ele>6.39</ele>
        <time>2013-11-10T12:24:25Z</time>
      </trkpt>
      <trkpt lat="50.06276" lon="1.3763">
        <ele>5.91</ele>
        <time>2013-11-10T12:24:47Z</time>
      </trkpt>
      <trkpt lat="50.06271" lon="1.37636">
        <ele>5.91</ele>
        <time>2013-11-10T12:25:11Z</time>
      </trkpt>
      <trkpt lat="50.06267" lon="1.37642">
        <ele>5.91</ele>
        <time>2013-11-10T12:25:17Z</time>
      </trkpt>
      <trkpt lat="50.0627" lon="1.37609">
        <ele>5.91</ele>
        <time>2013-11-10T12:25:33Z</time>
      </trkpt>
      <trkpt lat="50.06268" lon="1.37606">
        <ele>5.91</ele>
        <time>2013-11-10T12:25:36Z</time>
      </trkpt>
      <trkpt lat="50.06269" lon="1.37597">
        <ele>6.39</ele>
        <time>2013-11-10T12:25:42Z</time>
      </trkpt>
      <trkpt lat="50.06283" lon="1.37591">
        <ele>6.39</ele>
        <time>2013-11-10T12:25:57Z</time>
      </trkpt>
      <trkpt lat="50.06298" lon="1.37592">
        <ele>5.42</ele>
        <time>2013-11-10T12:26:10Z</time>
      </trkpt>
      <trkpt lat="50.06306" lon="1.37594">
        <ele>5.91</ele>
        <time>2013-11-10T12:26:24Z</time>
      </trkpt>
      <trkpt lat="50.06318" lon="1.37603">
        <ele>5.91</ele>
        <time>2013-11-10T12:26:38Z</time>
      </trkpt>
      <trkpt lat="50.06328" lon="1.37629">
        <ele>5.91</ele>
        <time>2013-11-10T12:26:56Z</time>
      </trkpt>
      <trkpt lat="50.06337" lon="1.37656">
        <ele>6.39</ele>
        <time>2013-11-10T12:27:14Z</time>
      </trkpt>
      <trkpt lat="50.06343" lon="1.37673">
        <ele>4.94</ele>
        <time>2013-11-10T12:27:25Z</time>
      </trkpt>
      <trkpt lat="50.06355" lon="1.37706">
        <ele>6.39</ele>
        <time>2013-11-10T12:27:45Z</time>
      </trkpt>
      <trkpt lat="50.06366" lon="1.37742">
        <ele>6.87</ele>
        <time>2013-11-10T12:28:07Z</time>
      </trkpt>
      <trkpt lat="50.06368" lon="1.37756">
        <ele>7.83</ele>
        <time>2013-11-10T12:28:23Z</time>
      </trkpt>
      <trkpt lat="50.06377" lon="1.37787">
        <ele>6.39</ele>
        <time>2013-11-10T12:28:43Z</time>
      </trkpt>
      <trkpt lat="50.06386" lon="1.37814">
        <ele>6.39</ele>
        <time>2013-11-10T12:29:03Z</time>
      </trkpt>
      <trkpt lat="50.06387" lon="1.37813">
        <ele>6.87</ele>
        <time>2013-11-10T12:29:19Z</time>
      </trkpt>
      <trkpt lat="50.06394" lon="1.37815">
        <ele>7.35</ele>
        <time>2013-11-10T12:29:25Z</time>
      </trkpt>
      <trkpt lat="50.06407" lon="1.37855">
        <ele>8.31</ele>
        <time>2013-11-10T12:29:50Z</time>
      </trkpt>
      <trkpt lat="50.06418" lon="1.37891">
        <ele>7.83</ele>
        <time>2013-11-10T12:30:11Z</time>
      </trkpt>
      <trkpt lat="50.06429" lon="1.37921">
        <ele>5.91</ele>
        <time>2013-11-10T12:30:32Z</time>
      </trkpt>
      <trkpt lat="50.06431" lon="1.37924">
        <ele>6.39</ele>
        <time>2013-11-10T12:30:55Z</time>
      </trkpt>
      <trkpt lat="50.06432" lon="1.37925">
        <ele>5.91</ele>
        <time>2013-11-10T12:31:04Z</time>
      </trkpt>
      <trkpt lat="50.06447" lon="1.37942">
        <ele>5.91</ele>
        <time>2013-11-10T12:31:23Z</time>
      </trkpt>
      <trkpt lat="50.06464" lon="1.3796">
        <ele>4.94</ele>
        <time>2013-11-10T12:31:41Z</time>
      </trkpt>
      <trkpt lat="50.06466" lon="1.37963">
        <ele>3.5</ele>
        <time>2013-11-10T12:31:43Z</time>
      </trkpt>
      <trkpt lat="50.06483" lon="1.37989">
        <ele>3.98</ele>
        <time>2013-11-10T12:32:04Z</time>
      </trkpt>
      <trkpt lat="50.065" lon="1.3802">
        <ele>4.46</ele>
        <time>2013-11-10T12:32:26Z</time>
      </trkpt>
      <trkpt lat="50.06515" lon="1.38046">
        <ele>4.46</ele>
        <time>2013-11-10T12:32:47Z</time>
      </trkpt>
      <trkpt lat="50.06518" lon="1.38051">
        <ele>4.46</ele>
        <time>2013-11-10T12:32:51Z</time>
      </trkpt>
      <trkpt lat="50.06531" lon="1.38074">
        <ele>4.46</ele>
        <time>2013-11-10T12:33:09Z</time>
      </trkpt>
      <trkpt lat="50.06541" lon="1.38087">
        <ele>5.42</ele>
        <time>2013-11-10T12:33:23Z</time>
      </trkpt>
      <trkpt lat="50.06557" lon="1.38118">
        <ele>5.42</ele>
        <time>2013-11-10T12:33:45Z</time>
      </trkpt>
      <trkpt lat="50.06572" lon="1.38145">
        <ele>5.91</ele>
        <time>2013-11-10T12:34:05Z</time>
      </trkpt>
      <trkpt lat="50.06586" lon="1.38167">
        <ele>5.91</ele>
        <time>2013-11-10T12:34:23Z</time>
      </trkpt>
      <trkpt lat="50.06601" lon="1.38192">
        <ele>5.91</ele>
        <time>2013-11-10T12:34:42Z</time>
      </trkpt>
      <trkpt lat="50.06614" lon="1.38216">
        <ele>5.91</ele>
        <time>2013-11-10T12:35:00Z</time>
      </trkpt>
      <trkpt lat="50.06628" lon="1.38238">
        <ele>6.39</ele>
        <time>2013-11-10T12:35:18Z</time>
      </trkpt>
      <trkpt lat="50.06641" lon="1.38261">
        <ele>5.91</ele>
        <time>2013-11-10T12:35:36Z</time>
      </trkpt>
      <trkpt lat="50.06659" lon="1.38288">
        <ele>5.91</ele>
        <time>2013-11-10T12:35:57Z</time>
      </trkpt>
      <trkpt lat="50.06678" lon="1.38314">
        <ele>5.42</ele>
        <time>2013-11-10T12:36:18Z</time>
      </trkpt>
      <trkpt lat="50.06698" lon="1.38339">
        <ele>4.94</ele>
        <time>2013-11-10T12:36:39Z</time>
      </trkpt>
      <trkpt lat="50.06715" lon="1.38361">
        <ele>5.42</ele>
        <time>2013-11-10T12:37:00Z</time>
      </trkpt>
      <trkpt lat="50.06715" lon="1.3836">
        <ele>5.42</ele>
        <time>2013-11-10T12:37:05Z</time>
      </trkpt>
      <trkpt lat="50.06727" lon="1.38376">
        <ele>5.91</ele>
        <time>2013-11-10T12:37:20Z</time>
      </trkpt>
      <trkpt lat="50.06744" lon="1.38397">
        <ele>6.39</ele>
        <time>2013-11-10T12:37:38Z</time>
      </trkpt>
      <trkpt lat="50.06759" lon="1.38419">
        <ele>5.91</ele>
        <time>2013-11-10T12:37:56Z</time>
      </trkpt>
      <trkpt lat="50.06775" lon="1.38438">
        <ele>6.39</ele>
        <time>2013-11-10T12:38:14Z</time>
      </trkpt>
      <trkpt lat="50.06793" lon="1.38458">
        <ele>6.39</ele>
        <time>2013-11-10T12:38:32Z</time>
      </trkpt>
      <trkpt lat="50.06806" lon="1.38477">
        <ele>5.91</ele>
        <time>2013-11-10T12:38:49Z</time>
      </trkpt>
      <trkpt lat="50.0681" lon="1.38483">
        <ele>5.91</ele>
        <time>2013-11-10T12:39:00Z</time>
      </trkpt>
      <trkpt lat="50.06822" lon="1.38491">
        <ele>6.39</ele>
        <time>2013-11-10T12:39:14Z</time>
      </trkpt>
      <trkpt lat="50.06835" lon="1.38507">
        <ele>5.91</ele>
        <time>2013-11-10T12:39:32Z</time>
      </trkpt>
      <trkpt lat="50.06854" lon="1.38522">
        <ele>5.91</ele>
        <time>2013-11-10T12:39:52Z</time>
      </trkpt>
      <trkpt lat="50.06874" lon="1.38542">
        <ele>5.91</ele>
        <time>2013-11-10T12:40:12Z</time>
      </trkpt>
      <trkpt lat="50.06892" lon="1.38561">
        <ele>5.91</ele>
        <time>2013-11-10T12:40:32Z</time>
      </trkpt>
      <trkpt lat="50.06911" lon="1.38578">
        <ele>5.42</ele>
        <time>2013-11-10T12:40:51Z</time>
      </trkpt>
      <trkpt lat="50.06929" lon="1.38595">
        <ele>5.91</ele>
        <time>2013-11-10T12:41:10Z</time>
      </trkpt>
      <trkpt lat="50.06937" lon="1.38604">
        <ele>5.91</ele>
        <time>2013-11-10T12:41:19Z</time>
      </trkpt>
      <trkpt lat="50.0694" lon="1.38606">
        <ele>5.91</ele>
        <time>2013-11-10T12:41:23Z</time>
      </trkpt>
      <trkpt lat="50.06942" lon="1.38609">
        <ele>6.39</ele>
        <time>2013-11-10T12:41:25Z</time>
      </trkpt>
      <trkpt lat="50.06962" lon="1.38628">
        <ele>5.91</ele>
        <time>2013-11-10T12:41:44Z</time>
      </trkpt>
      <trkpt lat="50.06971" lon="1.38637">
        <ele>6.87</ele>
        <time>2013-11-10T12:42:02Z</time>
      </trkpt>
      <trkpt lat="50.06985" lon="1.38648">
        <ele>6.87</ele>
        <time>2013-11-10T12:42:17Z</time>
      </trkpt>
      <trkpt lat="50.06983" lon="1.38649">
        <ele>6.87</ele>
        <time>2013-11-10T12:42:31Z</time>
      </trkpt>
      <trkpt lat="50.06997" lon="1.38657">
        <ele>6.87</ele>
        <time>2013-11-10T12:42:50Z</time>
      </trkpt>
      <trkpt lat="50.07008" lon="1.38666">
        <ele>5.91</ele>
        <time>2013-11-10T12:43:04Z</time>
      </trkpt>
      <trkpt lat="50.07019" lon="1.3867">
        <ele>6.87</ele>
        <time>2013-11-10T12:43:18Z</time>
      </trkpt>
      <trkpt lat="50.0703" lon="1.38637">
        <ele>7.83</ele>
        <time>2013-11-10T12:43:41Z</time>
      </trkpt>
      <trkpt lat="50.07036" lon="1.38628">
        <ele>7.35</ele>
        <time>2013-11-10T12:43:56Z</time>
      </trkpt>
      <trkpt lat="50.07033" lon="1.38635">
        <ele>7.83</ele>
        <time>2013-11-10T12:44:09Z</time>
      </trkpt>
      <trkpt lat="50.07021" lon="1.38669">
        <ele>7.35</ele>
        <time>2013-11-10T12:44:32Z</time>
      </trkpt>
      <trkpt lat="50.07019" lon="1.38677">
        <ele>5.91</ele>
        <time>2013-11-10T12:44:38Z</time>
      </trkpt>
      <trkpt lat="50.07005" lon="1.38674">
        <ele>6.39</ele>
        <time>2013-11-10T12:44:53Z</time>
      </trkpt>
      <trkpt lat="50.07003" lon="1.38674">
        <ele>6.39</ele>
        <time>2013-11-10T12:44:55Z</time>
      </trkpt>
      <trkpt lat="50.06984" lon="1.38679">
        <ele>6.39</ele>
        <time>2013-11-10T12:45:13Z</time>
      </trkpt>
      <trkpt lat="50.0698" lon="1.3868">
        <ele>4.94</ele>
        <time>2013-11-10T12:45:17Z</time>
      </trkpt>
      <trkpt lat="50.06962" lon="1.38676">
        <ele>5.42</ele>
        <time>2013-11-10T12:45:35Z</time>
      </trkpt>
      <trkpt lat="50.06943" lon="1.38673">
        <ele>6.87</ele>
        <time>2013-11-10T12:45:50Z</time>
      </trkpt>
      <trkpt lat="50.06934" lon="1.38681">
        <ele>10.23</ele>
        <time>2013-11-10T12:46:05Z</time>
      </trkpt>
      <trkpt lat="50.06934" lon="1.38686">
        <ele>8.79</ele>
        <time>2013-11-10T12:46:08Z</time>
      </trkpt>
      <trkpt lat="50.06932" lon="1.38696">
        <ele>9.75</ele>
        <time>2013-11-10T12:46:21Z</time>
      </trkpt>
      <trkpt lat="50.0692" lon="1.38702">
        <ele>12.15</ele>
        <time>2013-11-10T12:46:36Z</time>
      </trkpt>
      <trkpt lat="50.06912" lon="1.38708">
        <ele>13.6</ele>
        <time>2013-11-10T12:46:49Z</time>
      </trkpt>
      <trkpt lat="50.06912" lon="1.38708">
        <ele>13.6</ele>
        <time>2013-11-10T12:46:50Z</time>
      </trkpt>
      <trkpt lat="50.06904" lon="1.38714">
        <ele>14.56</ele>
        <time>2013-11-10T12:47:00Z</time>
      </trkpt>
      <trkpt lat="50.06897" lon="1.38724">
        <ele>18.4</ele>
        <time>2013-11-10T12:47:14Z</time>
      </trkpt>
      <trkpt lat="50.06893" lon="1.38728">
        <ele>18.88</ele>
        <time>2013-11-10T12:47:32Z</time>
      </trkpt>
      <trkpt lat="50.06889" lon="1.38736">
        <ele>23.21</ele>
        <time>2013-11-10T12:47:45Z</time>
      </trkpt>
      <trkpt lat="50.06891" lon="1.38745">
        <ele>24.17</ele>
        <time>2013-11-10T12:48:00Z</time>
      </trkpt>
      <trkpt lat="50.0689" lon="1.38746">
        <ele>25.61</ele>
        <time>2013-11-10T12:48:12Z</time>
      </trkpt>
      <trkpt lat="50.06892" lon="1.38744">
        <ele>25.61</ele>
        <time>2013-11-10T12:48:14Z</time>
      </trkpt>
      <trkpt lat="50.06902" lon="1.38738">
        <ele>27.53</ele>
        <time>2013-11-10T12:48:24Z</time>
      </trkpt>
      <trkpt lat="50.06923" lon="1.38731">
        <ele>26.09</ele>
        <time>2013-11-10T12:48:43Z</time>
      </trkpt>
      <trkpt lat="50.06942" lon="1.38723">
        <ele>27.05</ele>
        <time>2013-11-10T12:49:02Z</time>
      </trkpt>
      <trkpt lat="50.06952" lon="1.38724">
        <ele>29.94</ele>
        <time>2013-11-10T12:49:10Z</time>
      </trkpt>
      <trkpt lat="50.06968" lon="1.38727">
        <ele>31.38</ele>
        <time>2013-11-10T12:49:26Z</time>
      </trkpt>
      <trkpt lat="50.06988" lon="1.38728">
        <ele>31.38</ele>
        <time>2013-11-10T12:49:43Z</time>
      </trkpt>
      <trkpt lat="50.07006" lon="1.38739">
        <ele>32.34</ele>
        <time>2013-11-10T12:50:00Z</time>
      </trkpt>
      <trkpt lat="50.07017" lon="1.38761">
        <ele>34.74</ele>
        <time>2013-11-10T12:50:16Z</time>
      </trkpt>
      <trkpt lat="50.07028" lon="1.38784">
        <ele>38.11</ele>
        <time>2013-11-10T12:50:34Z</time>
      </trkpt>
      <trkpt lat="50.07043" lon="1.388">
        <ele>40.99</ele>
        <time>2013-11-10T12:50:52Z</time>
      </trkpt>
      <trkpt lat="50.07059" lon="1.38819">
        <ele>43.88</ele>
        <time>2013-11-10T12:51:12Z</time>
      </trkpt>
      <trkpt lat="50.07077" lon="1.38837">
        <ele>45.8</ele>
        <time>2013-11-10T12:51:31Z</time>
      </trkpt>
      <trkpt lat="50.0708" lon="1.38842">
        <ele>49.16</ele>
        <time>2013-11-10T12:51:35Z</time>
      </trkpt>
      <trkpt lat="50.07091" lon="1.38849">
        <ele>46.76</ele>
        <time>2013-11-10T12:51:47Z</time>
      </trkpt>
      <trkpt lat="50.07095" lon="1.3884">
        <ele>46.76</ele>
        <time>2013-11-10T12:52:01Z</time>
      </trkpt>
      <trkpt lat="50.07114" lon="1.38836">
        <ele>49.16</ele>
        <time>2013-11-10T12:52:18Z</time>
      </trkpt>
      <trkpt lat="50.07125" lon="1.3884">
        <ele>50.13</ele>
        <time>2013-11-10T12:52:28Z</time>
      </trkpt>
      <trkpt lat="50.07131" lon="1.38848">
        <ele>50.13</ele>
        <time>2013-11-10T12:52:44Z</time>
      </trkpt>
      <trkpt lat="50.0713" lon="1.38848">
        <ele>52.05</ele>
        <time>2013-11-10T12:52:57Z</time>
      </trkpt>
      <trkpt lat="50.0713" lon="1.38845">
        <ele>50.61</ele>
        <time>2013-11-10T12:53:15Z</time>
      </trkpt>
      <trkpt lat="50.07133" lon="1.38844">
        <ele>51.09</ele>
        <time>2013-11-10T12:53:21Z</time>
      </trkpt>
      <trkpt lat="50.07149" lon="1.38851">
        <ele>52.53</ele>
        <time>2013-11-10T12:53:35Z</time>
      </trkpt>
      <trkpt lat="50.07157" lon="1.38855">
        <ele>52.05</ele>
        <time>2013-11-10T12:53:42Z</time>
      </trkpt>
      <trkpt lat="50.07161" lon="1.38858">
        <ele>53.01</ele>
        <time>2013-11-10T12:53:46Z</time>
      </trkpt>
      <trkpt lat="50.07174" lon="1.38874">
        <ele>55.89</ele>
        <time>2013-11-10T12:54:04Z</time>
      </trkpt>
      <trkpt lat="50.07182" lon="1.38885">
        <ele>56.86</ele>
        <time>2013-11-10T12:54:13Z</time>
      </trkpt>
      <trkpt lat="50.07196" lon="1.38902">
        <ele>59.74</ele>
        <time>2013-11-10T12:54:30Z</time>
      </trkpt>
      <trkpt lat="50.07197" lon="1.38903">
        <ele>61.18</ele>
        <time>2013-11-10T12:54:32Z</time>
      </trkpt>
      <trkpt lat="50.07203" lon="1.3891">
        <ele>62.14</ele>
        <time>2013-11-10T12:54:39Z</time>
      </trkpt>
      <trkpt lat="50.07215" lon="1.38926">
        <ele>62.14</ele>
        <time>2013-11-10T12:54:56Z</time>
      </trkpt>
      <trkpt lat="50.07222" lon="1.38939">
        <ele>64.07</ele>
        <time>2013-11-10T12:55:12Z</time>
      </trkpt>
      <trkpt lat="50.07225" lon="1.3894">
        <ele>64.07</ele>
        <time>2013-11-10T12:55:17Z</time>
      </trkpt>
      <trkpt lat="50.07229" lon="1.38946">
        <ele>65.99</ele>
        <time>2013-11-10T12:55:26Z</time>
      </trkpt>
      <trkpt lat="50.07242" lon="1.3895">
        <ele>68.87</ele>
        <time>2013-11-10T12:55:40Z</time>
      </trkpt>
      <trkpt lat="50.07243" lon="1.3895">
        <ele>69.35</ele>
        <time>2013-11-10T12:55:41Z</time>
      </trkpt>
      <trkpt lat="50.07248" lon="1.38951">
        <ele>70.79</ele>
        <time>2013-11-10T12:55:46Z</time>
      </trkpt>
      <trkpt lat="50.07256" lon="1.38954">
        <ele>69.83</ele>
        <time>2013-11-10T12:55:54Z</time>
      </trkpt>
      <trkpt lat="50.07259" lon="1.38956">
        <ele>69.83</ele>
        <time>2013-11-10T12:55:57Z</time>
      </trkpt>
      <trkpt lat="50.07268" lon="1.38961">
        <ele>72.24</ele>
        <time>2013-11-10T12:56:10Z</time>
      </trkpt>
      <trkpt lat="50.07269" lon="1.38963">
        <ele>73.2</ele>
        <time>2013-11-10T12:56:12Z</time>
      </trkpt>
      <trkpt lat="50.07274" lon="1.38968">
        <ele>74.16</ele>
        <time>2013-11-10T12:56:25Z</time>
      </trkpt>
      <trkpt lat="50.07275" lon="1.38969">
        <ele>73.68</ele>
        <time>2013-11-10T12:56:50Z</time>
      </trkpt>
      <trkpt lat="50.07284" lon="1.38978">
        <ele>75.12</ele>
        <time>2013-11-10T12:57:01Z</time>
      </trkpt>
      <trkpt lat="50.07287" lon="1.3898">
        <ele>75.6</ele>
        <time>2013-11-10T12:57:03Z</time>
      </trkpt>
      <trkpt lat="50.07297" lon="1.38989">
        <ele>78.97</ele>
        <time>2013-11-10T12:57:14Z</time>
      </trkpt>
      <trkpt lat="50.07304" lon="1.38994">
        <ele>80.89</ele>
        <time>2013-11-10T12:57:21Z</time>
      </trkpt>
      <trkpt lat="50.07305" lon="1.38995">
        <ele>79.93</ele>
        <time>2013-11-10T12:57:22Z</time>
      </trkpt>
      <trkpt lat="50.07308" lon="1.38997">
        <ele>83.77</ele>
        <time>2013-11-10T12:57:25Z</time>
      </trkpt>
      <trkpt lat="50.07317" lon="1.39007">
        <ele>80.89</ele>
        <time>2013-11-10T12:57:35Z</time>
      </trkpt>
      <trkpt lat="50.07332" lon="1.39022">
        <ele>80.89</ele>
        <time>2013-11-10T12:57:50Z</time>
      </trkpt>
      <trkpt lat="50.07333" lon="1.39025">
        <ele>84.25</ele>
        <time>2013-11-10T12:57:54Z</time>
      </trkpt>
      <trkpt lat="50.07333" lon="1.39025">
        <ele>88.1</ele>
        <time>2013-11-10T12:57:55Z</time>
      </trkpt>
      <trkpt lat="50.07332" lon="1.39025">
        <ele>87.62</ele>
        <time>2013-11-10T12:57:56Z</time>
      </trkpt>
      <trkpt lat="50.07332" lon="1.39026">
        <ele>88.58</ele>
        <time>2013-11-10T12:58:00Z</time>
      </trkpt>
      <trkpt lat="50.07332" lon="1.39026">
        <ele>84.73</ele>
        <time>2013-11-10T12:58:03Z</time>
      </trkpt>
      <trkpt lat="50.07342" lon="1.39042">
        <ele>84.25</ele>
        <time>2013-11-10T12:58:16Z</time>
      </trkpt>
      <trkpt lat="50.07358" lon="1.3907">
        <ele>87.62</ele>
        <time>2013-11-10T12:58:37Z</time>
      </trkpt>
      <trkpt lat="50.07369" lon="1.39094">
        <ele>87.62</ele>
        <time>2013-11-10T12:58:52Z</time>
      </trkpt>
      <trkpt lat="50.0737" lon="1.39096">
        <ele>88.58</ele>
        <time>2013-11-10T12:58:54Z</time>
      </trkpt>
      <trkpt lat="50.07375" lon="1.39109">
        <ele>89.06</ele>
        <time>2013-11-10T12:59:02Z</time>
      </trkpt>
      <trkpt lat="50.07393" lon="1.39137">
        <ele>88.58</ele>
        <time>2013-11-10T12:59:23Z</time>
      </trkpt>
      <trkpt lat="50.07412" lon="1.39159">
        <ele>88.58</ele>
        <time>2013-11-10T12:59:44Z</time>
      </trkpt>
      <trkpt lat="50.07412" lon="1.3916">
        <ele>87.62</ele>
        <time>2013-11-10T12:59:49Z</time>
      </trkpt>
      <trkpt lat="50.07418" lon="1.39169">
        <ele>88.1</ele>
        <time>2013-11-10T12:59:56Z</time>
      </trkpt>
      <trkpt lat="50.07432" lon="1.39198">
        <ele>89.54</ele>
        <time>2013-11-10T13:00:15Z</time>
      </trkpt>
      <trkpt lat="50.07443" lon="1.39226">
        <ele>89.06</ele>
        <time>2013-11-10T13:00:33Z</time>
      </trkpt>
      <trkpt lat="50.07459" lon="1.39247">
        <ele>87.62</ele>
        <time>2013-11-10T13:00:51Z</time>
      </trkpt>
      <trkpt lat="50.07463" lon="1.39249">
        <ele>88.1</ele>
        <time>2013-11-10T13:00:55Z</time>
      </trkpt>
      <trkpt lat="50.07481" lon="1.39261">
        <ele>87.62</ele>
        <time>2013-11-10T13:01:11Z</time>
      </trkpt>
      <trkpt lat="50.07496" lon="1.39276">
        <ele>88.58</ele>
        <time>2013-11-10T13:01:27Z</time>
      </trkpt>
      <trkpt lat="50.07511" lon="1.39293">
        <ele>87.14</ele>
        <time>2013-11-10T13:01:43Z</time>
      </trkpt>
      <trkpt lat="50.0752" lon="1.3932">
        <ele>85.21</ele>
        <time>2013-11-10T13:01:59Z</time>
      </trkpt>
      <trkpt lat="50.0752" lon="1.39325">
        <ele>85.69</ele>
        <time>2013-11-10T13:02:15Z</time>
      </trkpt>
      <trkpt lat="50.07528" lon="1.39337">
        <ele>85.21</ele>
        <time>2013-11-10T13:02:28Z</time>
      </trkpt>
      <trkpt lat="50.07529" lon="1.39344">
        <ele>85.69</ele>
        <time>2013-11-10T13:02:41Z</time>
      </trkpt>
      <trkpt lat="50.07543" lon="1.39365">
        <ele>85.21</ele>
        <time>2013-11-10T13:02:58Z</time>
      </trkpt>
      <trkpt lat="50.07557" lon="1.39389">
        <ele>84.73</ele>
        <time>2013-11-10T13:03:16Z</time>
      </trkpt>
      <trkpt lat="50.07571" lon="1.39415">
        <ele>84.73</ele>
        <time>2013-11-10T13:03:35Z</time>
      </trkpt>
      <trkpt lat="50.07586" lon="1.39439">
        <ele>84.25</ele>
        <time>2013-11-10T13:03:54Z</time>
      </trkpt>
      <trkpt lat="50.07595" lon="1.39464">
        <ele>85.21</ele>
        <time>2013-11-10T13:04:14Z</time>
      </trkpt>
      <trkpt lat="50.07596" lon="1.39466">
        <ele>86.18</ele>
        <time>2013-11-10T13:04:20Z</time>
      </trkpt>
      <trkpt lat="50.076" lon="1.39488">
        <ele>82.81</ele>
        <time>2013-11-10T13:04:34Z</time>
      </trkpt>
      <trkpt lat="50.07607" lon="1.39504">
        <ele>82.33</ele>
        <time>2013-11-10T13:04:49Z</time>
      </trkpt>
      <trkpt lat="50.07622" lon="1.39538">
        <ele>81.85</ele>
        <time>2013-11-10T13:05:09Z</time>
      </trkpt>
      <trkpt lat="50.07625" lon="1.39544">
        <ele>82.81</ele>
        <time>2013-11-10T13:05:24Z</time>
      </trkpt>
      <trkpt lat="50.07632" lon="1.39559">
        <ele>82.81</ele>
        <time>2013-11-10T13:05:43Z</time>
      </trkpt>
      <trkpt lat="50.07639" lon="1.39574">
        <ele>84.25</ele>
        <time>2013-11-10T13:05:51Z</time>
      </trkpt>
      <trkpt lat="50.0764" lon="1.39577">
        <ele>83.29</ele>
        <time>2013-11-10T13:05:53Z</time>
      </trkpt>
      <trkpt lat="50.07642" lon="1.39582">
        <ele>81.85</ele>
        <time>2013-11-10T13:05:56Z</time>
      </trkpt>
      <trkpt lat="50.07658" lon="1.39611">
        <ele>83.77</ele>
        <time>2013-11-10T13:06:17Z</time>
      </trkpt>
      <trkpt lat="50.07662" lon="1.39615">
        <ele>81.37</ele>
        <time>2013-11-10T13:06:21Z</time>
      </trkpt>
      <trkpt lat="50.07683" lon="1.39645">
        <ele>81.37</ele>
        <time>2013-11-10T13:06:44Z</time>
      </trkpt>
      <trkpt lat="50.07699" lon="1.39674">
        <ele>82.33</ele>
        <time>2013-11-10T13:07:04Z</time>
      </trkpt>
      <trkpt lat="50.07714" lon="1.39704">
        <ele>83.29</ele>
        <time>2013-11-10T13:07:24Z</time>
      </trkpt>
      <trkpt lat="50.07729" lon="1.39738">
        <ele>81.37</ele>
        <time>2013-11-10T13:07:46Z</time>
      </trkpt>
      <trkpt lat="50.07734" lon="1.39748">
        <ele>82.33</ele>
        <time>2013-11-10T13:07:54Z</time>
      </trkpt>
      <trkpt lat="50.07748" lon="1.39766">
        <ele>82.33</ele>
        <time>2013-11-10T13:08:12Z</time>
      </trkpt>
      <trkpt lat="50.07751" lon="1.39769">
        <ele>82.33</ele>
        <time>2013-11-10T13:08:22Z</time>
      </trkpt>
      <trkpt lat="50.07766" lon="1.39801">
        <ele>81.85</ele>
        <time>2013-11-10T13:08:43Z</time>
      </trkpt>
      <trkpt lat="50.07771" lon="1.39814">
        <ele>81.37</ele>
        <time>2013-11-10T13:08:51Z</time>
      </trkpt>
      <trkpt lat="50.0777" lon="1.3982">
        <ele>80.41</ele>
        <time>2013-11-10T13:08:57Z</time>
      </trkpt>
      <trkpt lat="50.07771" lon="1.39823">
        <ele>85.21</ele>
        <time>2013-11-10T13:08:59Z</time>
      </trkpt>
      <trkpt lat="50.07772" lon="1.39824">
        <ele>83.77</ele>
        <time>2013-11-10T13:09:00Z</time>
      </trkpt>
      <trkpt lat="50.07775" lon="1.39832">
        <ele>80.41</ele>
        <time>2013-11-10T13:09:04Z</time>
      </trkpt>
      <trkpt lat="50.07776" lon="1.39835">
        <ele>77.52</ele>
        <time>2013-11-10T13:09:06Z</time>
      </trkpt>
      <trkpt lat="50.07777" lon="1.39847">
        <ele>77.04</ele>
        <time>2013-11-10T13:09:12Z</time>
      </trkpt>
      <trkpt lat="50.0778" lon="1.3987">
        <ele>76.56</ele>
        <time>2013-11-10T13:09:28Z</time>
      </trkpt>
      <trkpt lat="50.07784" lon="1.39888">
        <ele>76.08</ele>
        <time>2013-11-10T13:09:40Z</time>
      </trkpt>
      <trkpt lat="50.07798" lon="1.39919">
        <ele>76.08</ele>
        <time>2013-11-10T13:10:00Z</time>
      </trkpt>
      <trkpt lat="50.07815" lon="1.39947">
        <ele>75.6</ele>
        <time>2013-11-10T13:10:20Z</time>
      </trkpt>
      <trkpt lat="50.07832" lon="1.39975">
        <ele>75.6</ele>
        <time>2013-11-10T13:10:40Z</time>
      </trkpt>
      <trkpt lat="50.07845" lon="1.40002">
        <ele>76.08</ele>
        <time>2013-11-10T13:10:58Z</time>
      </trkpt>
      <trkpt lat="50.0786" lon="1.4003">
        <ele>74.64</ele>
        <time>2013-11-10T13:11:18Z</time>
      </trkpt>
      <trkpt lat="50.07875" lon="1.40054">
        <ele>73.68</ele>
        <time>2013-11-10T13:11:37Z</time>
      </trkpt>
      <trkpt lat="50.0789" lon="1.40079">
        <ele>72.24</ele>
        <time>2013-11-10T13:11:55Z</time>
      </trkpt>
      <trkpt lat="50.07906" lon="1.40091">
        <ele>71.76</ele>
        <time>2013-11-10T13:12:14Z</time>
      </trkpt>
      <trkpt lat="50.07911" lon="1.40091">
        <ele>69.83</ele>
        <time>2013-11-10T13:12:26Z</time>
      </trkpt>
      <trkpt lat="50.07911" lon="1.40096">
        <ele>69.35</ele>
        <time>2013-11-10T13:12:43Z</time>
      </trkpt>
      <trkpt lat="50.07905" lon="1.40103">
        <ele>68.87</ele>
        <time>2013-11-10T13:12:57Z</time>
      </trkpt>
      <trkpt lat="50.07902" lon="1.40107">
        <ele>67.91</ele>
        <time>2013-11-10T13:13:02Z</time>
      </trkpt>
      <trkpt lat="50.07901" lon="1.40105">
        <ele>67.91</ele>
        <time>2013-11-10T13:13:20Z</time>
      </trkpt>
      <trkpt lat="50.07904" lon="1.4011">
        <ele>66.95</ele>
        <time>2013-11-10T13:13:30Z</time>
      </trkpt>
      <trkpt lat="50.0791" lon="1.40124">
        <ele>65.03</ele>
        <time>2013-11-10T13:13:38Z</time>
      </trkpt>
      <trkpt lat="50.07911" lon="1.40128">
        <ele>63.58</ele>
        <time>2013-11-10T13:13:41Z</time>
      </trkpt>
      <trkpt lat="50.07919" lon="1.40136">
        <ele>60.22</ele>
        <time>2013-11-10T13:13:55Z</time>
      </trkpt>
      <trkpt lat="50.07921" lon="1.40137">
        <ele>59.74</ele>
        <time>2013-11-10T13:13:57Z</time>
      </trkpt>
      <trkpt lat="50.07928" lon="1.40165">
        <ele>57.34</ele>
        <time>2013-11-10T13:14:13Z</time>
      </trkpt>
      <trkpt lat="50.07933" lon="1.40191">
        <ele>54.45</ele>
        <time>2013-11-10T13:14:29Z</time>
      </trkpt>
      <trkpt lat="50.07944" lon="1.40216">
        <ele>53.97</ele>
        <time>2013-11-10T13:14:47Z</time>
      </trkpt>
      <trkpt lat="50.07946" lon="1.40224">
        <ele>55.41</ele>
        <time>2013-11-10T13:15:00Z</time>
      </trkpt>
      <trkpt lat="50.07947" lon="1.4023">
        <ele>55.89</ele>
        <time>2013-11-10T13:15:04Z</time>
      </trkpt>
      <trkpt lat="50.07945" lon="1.40241">
        <ele>58.3</ele>
        <time>2013-11-10T13:15:11Z</time>
      </trkpt>
      <trkpt lat="50.07946" lon="1.40249">
        <ele>61.18</ele>
        <time>2013-11-10T13:15:24Z</time>
      </trkpt>
      <trkpt lat="50.07949" lon="1.40253">
        <ele>64.55</ele>
        <time>2013-11-10T13:15:37Z</time>
      </trkpt>
      <trkpt lat="50.07948" lon="1.40255">
        <ele>63.58</ele>
        <time>2013-11-10T13:15:50Z</time>
      </trkpt>
      <trkpt lat="50.07948" lon="1.40256">
        <ele>64.55</ele>
        <time>2013-11-10T13:16:06Z</time>
      </trkpt>
      <trkpt lat="50.07949" lon="1.40261">
        <ele>64.07</ele>
        <time>2013-11-10T13:16:10Z</time>
      </trkpt>
      <trkpt lat="50.07952" lon="1.40263">
        <ele>63.1</ele>
        <time>2013-11-10T13:16:14Z</time>
      </trkpt>
      <trkpt lat="50.07959" lon="1.40276">
        <ele>62.62</ele>
        <time>2013-11-10T13:16:25Z</time>
      </trkpt>
      <trkpt lat="50.07969" lon="1.40288">
        <ele>65.99</ele>
        <time>2013-11-10T13:16:37Z</time>
      </trkpt>
      <trkpt lat="50.07978" lon="1.40309">
        <ele>65.99</ele>
        <time>2013-11-10T13:16:53Z</time>
      </trkpt>
      <trkpt lat="50.07986" lon="1.4033">
        <ele>68.87</ele>
        <time>2013-11-10T13:17:08Z</time>
      </trkpt>
      <trkpt lat="50.07996" lon="1.4035">
        <ele>71.76</ele>
        <time>2013-11-10T13:17:24Z</time>
      </trkpt>
      <trkpt lat="50.07998" lon="1.40361">
        <ele>70.79</ele>
        <time>2013-11-10T13:17:32Z</time>
      </trkpt>
      <trkpt lat="50.07992" lon="1.40375">
        <ele>71.76</ele>
        <time>2013-11-10T13:17:45Z</time>
      </trkpt>
      <trkpt lat="50.07993" lon="1.40403">
        <ele>72.72</ele>
        <time>2013-11-10T13:18:03Z</time>
      </trkpt>
      <trkpt lat="50.07997" lon="1.40432">
        <ele>73.2</ele>
        <time>2013-11-10T13:18:20Z</time>
      </trkpt>
      <trkpt lat="50.08001" lon="1.40462">
        <ele>72.24</ele>
        <time>2013-11-10T13:18:37Z</time>
      </trkpt>
      <trkpt lat="50.08011" lon="1.40489">
        <ele>70.31</ele>
        <time>2013-11-10T13:18:55Z</time>
      </trkpt>
      <trkpt lat="50.08023" lon="1.40505">
        <ele>66.95</ele>
        <time>2013-11-10T13:19:09Z</time>
      </trkpt>
      <trkpt lat="50.0803" lon="1.40525">
        <ele>64.07</ele>
        <time>2013-11-10T13:19:22Z</time>
      </trkpt>
      <trkpt lat="50.08031" lon="1.40544">
        <ele>61.18</ele>
        <time>2013-11-10T13:19:35Z</time>
      </trkpt>
      <trkpt lat="50.08032" lon="1.40546">
        <ele>59.74</ele>
        <time>2013-11-10T13:19:38Z</time>
      </trkpt>
      <trkpt lat="50.08034" lon="1.40555">
        <ele>57.34</ele>
        <time>2013-11-10T13:19:47Z</time>
      </trkpt>
      <trkpt lat="50.08035" lon="1.40559">
        <ele>55.89</ele>
        <time>2013-11-10T13:19:55Z</time>
      </trkpt>
      <trkpt lat="50.08043" lon="1.4059">
        <ele>53.49</ele>
        <time>2013-11-10T13:20:12Z</time>
      </trkpt>
      <trkpt lat="50.08047" lon="1.40602">
        <ele>52.53</ele>
        <time>2013-11-10T13:20:20Z</time>
      </trkpt>
      <trkpt lat="50.08051" lon="1.40607">
        <ele>52.53</ele>
        <time>2013-11-10T13:20:25Z</time>
      </trkpt>
      <trkpt lat="50.08054" lon="1.40611">
        <ele>52.53</ele>
        <time>2013-11-10T13:20:34Z</time>
      </trkpt>
      <trkpt lat="50.08065" lon="1.40624">
        <ele>55.41</ele>
        <time>2013-11-10T13:20:49Z</time>
      </trkpt>
      <trkpt lat="50.08073" lon="1.40634">
        <ele>53.97</ele>
        <time>2013-11-10T13:21:01Z</time>
      </trkpt>
      <trkpt lat="50.08075" lon="1.40636">
        <ele>56.86</ele>
        <time>2013-11-10T13:21:04Z</time>
      </trkpt>
      <trkpt lat="50.08084" lon="1.40649">
        <ele>60.7</ele>
        <time>2013-11-10T13:21:17Z</time>
      </trkpt>
      <trkpt lat="50.08091" lon="1.40657">
        <ele>61.18</ele>
        <time>2013-11-10T13:21:27Z</time>
      </trkpt>
      <trkpt lat="50.08093" lon="1.4066">
        <ele>63.1</ele>
        <time>2013-11-10T13:21:30Z</time>
      </trkpt>
      <trkpt lat="50.08095" lon="1.40663">
        <ele>64.07</ele>
        <time>2013-11-10T13:21:34Z</time>
      </trkpt>
      <trkpt lat="50.08099" lon="1.40668">
        <ele>60.7</ele>
        <time>2013-11-10T13:21:45Z</time>
      </trkpt>
      <trkpt lat="50.081" lon="1.40669">
        <ele>60.7</ele>
        <time>2013-11-10T13:21:46Z</time>
      </trkpt>
      <trkpt lat="50.08103" lon="1.40673">
        <ele>62.62</ele>
        <time>2013-11-10T13:21:49Z</time>
      </trkpt>
      <trkpt lat="50.08113" lon="1.40693">
        <ele>63.58</ele>
        <time>2013-11-10T13:22:04Z</time>
      </trkpt>
      <trkpt lat="50.08123" lon="1.40713">
        <ele>65.03</ele>
        <time>2013-11-10T13:22:19Z</time>
      </trkpt>
      <trkpt lat="50.08125" lon="1.40716">
        <ele>63.58</ele>
        <time>2013-11-10T13:22:21Z</time>
      </trkpt>
      <trkpt lat="50.08133" lon="1.40729">
        <ele>64.55</ele>
        <time>2013-11-10T13:22:31Z</time>
      </trkpt>
      <trkpt lat="50.08142" lon="1.40743">
        <ele>64.55</ele>
        <time>2013-11-10T13:22:42Z</time>
      </trkpt>
      <trkpt lat="50.08151" lon="1.40764">
        <ele>67.43</ele>
        <time>2013-11-10T13:22:55Z</time>
      </trkpt>
      <trkpt lat="50.08155" lon="1.40781">
        <ele>67.43</ele>
        <time>2013-11-10T13:23:05Z</time>
      </trkpt>
      <trkpt lat="50.08157" lon="1.40794">
        <ele>67.43</ele>
        <time>2013-11-10T13:23:14Z</time>
      </trkpt>
      <trkpt lat="50.08171" lon="1.40812">
        <ele>68.87</ele>
        <time>2013-11-10T13:23:31Z</time>
      </trkpt>
      <trkpt lat="50.08183" lon="1.40834">
        <ele>70.31</ele>
        <time>2013-11-10T13:23:47Z</time>
      </trkpt>
      <trkpt lat="50.08186" lon="1.40841">
        <ele>71.27</ele>
        <time>2013-11-10T13:23:52Z</time>
      </trkpt>
      <trkpt lat="50.08196" lon="1.40864">
        <ele>71.27</ele>
        <time>2013-11-10T13:24:07Z</time>
      </trkpt>
      <trkpt lat="50.08209" lon="1.40889">
        <ele>72.24</ele>
        <time>2013-11-10T13:24:24Z</time>
      </trkpt>
      <trkpt lat="50.08222" lon="1.40912">
        <ele>72.24</ele>
        <time>2013-11-10T13:24:41Z</time>
      </trkpt>
      <trkpt lat="50.08237" lon="1.4094">
        <ele>72.24</ele>
        <time>2013-11-10T13:25:00Z</time>
      </trkpt>
      <trkpt lat="50.08249" lon="1.40968">
        <ele>72.24</ele>
        <time>2013-11-10T13:25:18Z</time>
      </trkpt>
      <trkpt lat="50.08251" lon="1.40975">
        <ele>71.76</ele>
        <time>2013-11-10T13:25:22Z</time>
      </trkpt>
      <trkpt lat="50.08264" lon="1.41">
        <ele>72.24</ele>
        <time>2013-11-10T13:25:39Z</time>
      </trkpt>
      <trkpt lat="50.08276" lon="1.41025">
        <ele>71.76</ele>
        <time>2013-11-10T13:25:56Z</time>
      </trkpt>
      <trkpt lat="50.08287" lon="1.41056">
        <ele>70.31</ele>
        <time>2013-11-10T13:26:15Z</time>
      </trkpt>
      <trkpt lat="50.08295" lon="1.41086">
        <ele>69.83</ele>
        <time>2013-11-10T13:26:32Z</time>
      </trkpt>
      <trkpt lat="50.08297" lon="1.41097">
        <ele>68.87</ele>
        <time>2013-11-10T13:26:39Z</time>
      </trkpt>
      <trkpt lat="50.083" lon="1.41106">
        <ele>69.35</ele>
        <time>2013-11-10T13:26:44Z</time>
      </trkpt>
      <trkpt lat="50.08313" lon="1.41131">
        <ele>68.87</ele>
        <time>2013-11-10T13:27:02Z</time>
      </trkpt>
      <trkpt lat="50.08328" lon="1.41162">
        <ele>68.39</ele>
        <time>2013-11-10T13:27:23Z</time>
      </trkpt>
      <trkpt lat="50.08343" lon="1.41188">
        <ele>67.91</ele>
        <time>2013-11-10T13:27:41Z</time>
      </trkpt>
      <trkpt lat="50.08344" lon="1.41192">
        <ele>67.43</ele>
        <time>2013-11-10T13:27:44Z</time>
      </trkpt>
      <trkpt lat="50.08346" lon="1.41214">
        <ele>66.95</ele>
        <time>2013-11-10T13:27:57Z</time>
      </trkpt>
      <trkpt lat="50.08348" lon="1.41223">
        <ele>66.47</ele>
        <time>2013-11-10T13:28:05Z</time>
      </trkpt>
      <trkpt lat="50.08353" lon="1.41238">
        <ele>65.03</ele>
        <time>2013-11-10T13:28:15Z</time>
      </trkpt>
      <trkpt lat="50.08356" lon="1.41264">
        <ele>63.58</ele>
        <time>2013-11-10T13:28:30Z</time>
      </trkpt>
      <trkpt lat="50.08367" lon="1.41287">
        <ele>61.66</ele>
        <time>2013-11-10T13:28:46Z</time>
      </trkpt>
      <trkpt lat="50.08369" lon="1.4129">
        <ele>64.07</ele>
        <time>2013-11-10T13:28:49Z</time>
      </trkpt>
      <trkpt lat="50.08371" lon="1.41292">
        <ele>65.03</ele>
        <time>2013-11-10T13:28:51Z</time>
      </trkpt>
      <trkpt lat="50.08375" lon="1.41298">
        <ele>66.47</ele>
        <time>2013-11-10T13:28:56Z</time>
      </trkpt>
      <trkpt lat="50.08378" lon="1.41303">
        <ele>64.07</ele>
        <time>2013-11-10T13:29:00Z</time>
      </trkpt>
      <trkpt lat="50.08386" lon="1.41317">
        <ele>60.7</ele>
        <time>2013-11-10T13:29:10Z</time>
      </trkpt>
      <trkpt lat="50.08389" lon="1.4132">
        <ele>64.55</ele>
        <time>2013-11-10T13:29:13Z</time>
      </trkpt>
      <trkpt lat="50.0839" lon="1.41322">
        <ele>64.55</ele>
        <time>2013-11-10T13:29:15Z</time>
      </trkpt>
      <trkpt lat="50.08392" lon="1.41326">
        <ele>63.1</ele>
        <time>2013-11-10T13:29:18Z</time>
      </trkpt>
      <trkpt lat="50.08394" lon="1.4133">
        <ele>64.07</ele>
        <time>2013-11-10T13:29:21Z</time>
      </trkpt>
      <trkpt lat="50.08393" lon="1.41339">
        <ele>66.47</ele>
        <time>2013-11-10T13:29:31Z</time>
      </trkpt>
      <trkpt lat="50.08395" lon="1.41342">
        <ele>66.95</ele>
        <time>2013-11-10T13:29:34Z</time>
      </trkpt>
      <trkpt lat="50.08405" lon="1.41362">
        <ele>69.35</ele>
        <time>2013-11-10T13:29:51Z</time>
      </trkpt>
      <trkpt lat="50.08413" lon="1.41388">
        <ele>70.31</ele>
        <time>2013-11-10T13:30:08Z</time>
      </trkpt>
      <trkpt lat="50.08415" lon="1.41392">
        <ele>70.79</ele>
        <time>2013-11-10T13:30:11Z</time>
      </trkpt>
      <trkpt lat="50.08423" lon="1.41414">
        <ele>72.72</ele>
        <time>2013-11-10T13:30:29Z</time>
      </trkpt>
      <trkpt lat="50.08424" lon="1.41422">
        <ele>70.79</ele>
        <time>2013-11-10T13:30:39Z</time>
      </trkpt>
      <trkpt lat="50.08429" lon="1.41443">
        <ele>70.31</ele>
        <time>2013-11-10T13:30:56Z</time>
      </trkpt>
      <trkpt lat="50.08429" lon="1.41444">
        <ele>70.31</ele>
        <time>2013-11-10T13:31:00Z</time>
      </trkpt>
      <trkpt lat="50.08435" lon="1.41468">
        <ele>70.31</ele>
        <time>2013-11-10T13:31:16Z</time>
      </trkpt>
      <trkpt lat="50.08438" lon="1.41479">
        <ele>66.95</ele>
        <time>2013-11-10T13:31:23Z</time>
      </trkpt>
      <trkpt lat="50.0844" lon="1.41499">
        <ele>64.55</ele>
        <time>2013-11-10T13:31:34Z</time>
      </trkpt>
      <trkpt lat="50.08445" lon="1.41508">
        <ele>64.07</ele>
        <time>2013-11-10T13:31:43Z</time>
      </trkpt>
      <trkpt lat="50.08447" lon="1.41509">
        <ele>63.1</ele>
        <time>2013-11-10T13:31:45Z</time>
      </trkpt>
      <trkpt lat="50.08451" lon="1.41532">
        <ele>62.62</ele>
        <time>2013-11-10T13:31:59Z</time>
      </trkpt>
      <trkpt lat="50.08457" lon="1.41544">
        <ele>63.1</ele>
        <time>2013-11-10T13:32:12Z</time>
      </trkpt>
      <trkpt lat="50.08461" lon="1.41554">
        <ele>65.51</ele>
        <time>2013-11-10T13:32:26Z</time>
      </trkpt>
      <trkpt lat="50.08469" lon="1.41561">
        <ele>65.99</ele>
        <time>2013-11-10T13:32:38Z</time>
      </trkpt>
      <trkpt lat="50.08484" lon="1.41577">
        <ele>66.95</ele>
        <time>2013-11-10T13:32:54Z</time>
      </trkpt>
      <trkpt lat="50.08489" lon="1.41585">
        <ele>66.95</ele>
        <time>2013-11-10T13:33:00Z</time>
      </trkpt>
      <trkpt lat="50.0849" lon="1.41585">
        <ele>67.91</ele>
        <time>2013-11-10T13:33:02Z</time>
      </trkpt>
      <trkpt lat="50.08503" lon="1.41596">
        <ele>65.99</ele>
        <time>2013-11-10T13:33:16Z</time>
      </trkpt>
      <trkpt lat="50.08504" lon="1.41597">
        <ele>66.47</ele>
        <time>2013-11-10T13:33:17Z</time>
      </trkpt>
      <trkpt lat="50.08524" lon="1.41619">
        <ele>63.58</ele>
        <time>2013-11-10T13:33:38Z</time>
      </trkpt>
      <trkpt lat="50.08527" lon="1.41622">
        <ele>63.58</ele>
        <time>2013-11-10T13:33:42Z</time>
      </trkpt>
      <trkpt lat="50.08533" lon="1.41635">
        <ele>62.14</ele>
        <time>2013-11-10T13:33:50Z</time>
      </trkpt>
      <trkpt lat="50.08537" lon="1.41639">
        <ele>60.7</ele>
        <time>2013-11-10T13:33:54Z</time>
      </trkpt>
      <trkpt lat="50.08547" lon="1.41647">
        <ele>57.34</ele>
        <time>2013-11-10T13:34:05Z</time>
      </trkpt>
      <trkpt lat="50.08547" lon="1.41648">
        <ele>57.82</ele>
        <time>2013-11-10T13:34:06Z</time>
      </trkpt>
      <trkpt lat="50.0855" lon="1.41655">
        <ele>56.37</ele>
        <time>2013-11-10T13:34:11Z</time>
      </trkpt>
      <trkpt lat="50.08553" lon="1.41662">
        <ele>54.93</ele>
        <time>2013-11-10T13:34:16Z</time>
      </trkpt>
      <trkpt lat="50.08553" lon="1.41667">
        <ele>53.97</ele>
        <time>2013-11-10T13:34:19Z</time>
      </trkpt>
      <trkpt lat="50.08553" lon="1.41684">
        <ele>51.09</ele>
        <time>2013-11-10T13:34:29Z</time>
      </trkpt>
      <trkpt lat="50.08555" lon="1.41694">
        <ele>48.2</ele>
        <time>2013-11-10T13:34:39Z</time>
      </trkpt>
      <trkpt lat="50.08556" lon="1.41695">
        <ele>48.2</ele>
        <time>2013-11-10T13:34:40Z</time>
      </trkpt>
      <trkpt lat="50.08556" lon="1.41698">
        <ele>47.24</ele>
        <time>2013-11-10T13:34:42Z</time>
      </trkpt>
      <trkpt lat="50.08557" lon="1.41708">
        <ele>45.32</ele>
        <time>2013-11-10T13:34:48Z</time>
      </trkpt>
      <trkpt lat="50.08563" lon="1.41718">
        <ele>41.95</ele>
        <time>2013-11-10T13:34:59Z</time>
      </trkpt>
      <trkpt lat="50.08577" lon="1.4173">
        <ele>41.95</ele>
        <time>2013-11-10T13:35:15Z</time>
      </trkpt>
      <trkpt lat="50.08584" lon="1.41733">
        <ele>41.95</ele>
        <time>2013-11-10T13:35:28Z</time>
      </trkpt>
      <trkpt lat="50.08593" lon="1.41742">
        <ele>43.88</ele>
        <time>2013-11-10T13:35:42Z</time>
      </trkpt>
      <trkpt lat="50.08599" lon="1.41749">
        <ele>46.28</ele>
        <time>2013-11-10T13:35:57Z</time>
      </trkpt>
      <trkpt lat="50.08602" lon="1.41758">
        <ele>48.68</ele>
        <time>2013-11-10T13:36:12Z</time>
      </trkpt>
      <trkpt lat="50.08604" lon="1.41758">
        <ele>49.65</ele>
        <time>2013-11-10T13:36:14Z</time>
      </trkpt>
      <trkpt lat="50.0861" lon="1.41767">
        <ele>49.65</ele>
        <time>2013-11-10T13:36:28Z</time>
      </trkpt>
      <trkpt lat="50.08614" lon="1.4177">
        <ele>51.09</ele>
        <time>2013-11-10T13:36:44Z</time>
      </trkpt>
      <trkpt lat="50.08619" lon="1.41776">
        <ele>53.01</ele>
        <time>2013-11-10T13:36:52Z</time>
      </trkpt>
      <trkpt lat="50.08628" lon="1.4179">
        <ele>54.45</ele>
        <time>2013-11-10T13:37:07Z</time>
      </trkpt>
      <trkpt lat="50.08634" lon="1.41797">
        <ele>56.37</ele>
        <time>2013-11-10T13:37:19Z</time>
      </trkpt>
      <trkpt lat="50.08641" lon="1.41808">
        <ele>59.26</ele>
        <time>2013-11-10T13:37:32Z</time>
      </trkpt>
      <trkpt lat="50.08644" lon="1.41811">
        <ele>59.74</ele>
        <time>2013-11-10T13:37:37Z</time>
      </trkpt>
      <trkpt lat="50.0865" lon="1.4182">
        <ele>63.58</ele>
        <time>2013-11-10T13:37:51Z</time>
      </trkpt>
      <trkpt lat="50.08655" lon="1.41828">
        <ele>65.51</ele>
        <time>2013-11-10T13:38:03Z</time>
      </trkpt>
      <trkpt lat="50.08667" lon="1.41831">
        <ele>67.43</ele>
        <time>2013-11-10T13:38:18Z</time>
      </trkpt>
      <trkpt lat="50.0867" lon="1.4183">
        <ele>67.43</ele>
        <time>2013-11-10T13:38:21Z</time>
      </trkpt>
      <trkpt lat="50.08679" lon="1.41829">
        <ele>70.31</ele>
        <time>2013-11-10T13:38:32Z</time>
      </trkpt>
      <trkpt lat="50.08695" lon="1.41824">
        <ele>68.87</ele>
        <time>2013-11-10T13:38:47Z</time>
      </trkpt>
      <trkpt lat="50.08709" lon="1.41814">
        <ele>68.87</ele>
        <time>2013-11-10T13:39:03Z</time>
      </trkpt>
      <trkpt lat="50.0872" lon="1.41808">
        <ele>70.31</ele>
        <time>2013-11-10T13:39:17Z</time>
      </trkpt>
      <trkpt lat="50.08723" lon="1.41807">
        <ele>71.76</ele>
        <time>2013-11-10T13:39:30Z</time>
      </trkpt>
      <trkpt lat="50.08725" lon="1.41808">
        <ele>70.31</ele>
        <time>2013-11-10T13:39:40Z</time>
      </trkpt>
      <trkpt lat="50.08736" lon="1.41824">
        <ele>71.27</ele>
        <time>2013-11-10T13:39:56Z</time>
      </trkpt>
      <trkpt lat="50.08748" lon="1.41842">
        <ele>73.68</ele>
        <time>2013-11-10T13:40:12Z</time>
      </trkpt>
      <trkpt lat="50.0876" lon="1.4187">
        <ele>73.68</ele>
        <time>2013-11-10T13:40:31Z</time>
      </trkpt>
      <trkpt lat="50.08772" lon="1.41895">
        <ele>75.6</ele>
        <time>2013-11-10T13:40:48Z</time>
      </trkpt>
      <trkpt lat="50.08784" lon="1.4192">
        <ele>74.64</ele>
        <time>2013-11-10T13:41:06Z</time>
      </trkpt>
      <trkpt lat="50.08787" lon="1.41924">
        <ele>74.64</ele>
        <time>2013-11-10T13:41:09Z</time>
      </trkpt>
      <trkpt lat="50.08793" lon="1.41936">
        <ele>75.6</ele>
        <time>2013-11-10T13:41:18Z</time>
      </trkpt>
      <trkpt lat="50.08803" lon="1.41955">
        <ele>74.16</ele>
        <time>2013-11-10T13:41:32Z</time>
      </trkpt>
      <trkpt lat="50.08815" lon="1.41976">
        <ele>73.68</ele>
        <time>2013-11-10T13:41:49Z</time>
      </trkpt>
      <trkpt lat="50.0882" lon="1.41986">
        <ele>72.72</ele>
        <time>2013-11-10T13:41:56Z</time>
      </trkpt>
      <trkpt lat="50.08821" lon="1.41988">
        <ele>74.16</ele>
        <time>2013-11-10T13:41:58Z</time>
      </trkpt>
      <trkpt lat="50.08822" lon="1.4199">
        <ele>73.2</ele>
        <time>2013-11-10T13:42:00Z</time>
      </trkpt>
      <trkpt lat="50.08822" lon="1.41991">
        <ele>72.72</ele>
        <time>2013-11-10T13:42:15Z</time>
      </trkpt>
      <trkpt lat="50.0883" lon="1.42005">
        <ele>72.72</ele>
        <time>2013-11-10T13:42:28Z</time>
      </trkpt>
      <trkpt lat="50.08831" lon="1.42008">
        <ele>72.72</ele>
        <time>2013-11-10T13:42:47Z</time>
      </trkpt>
      <trkpt lat="50.08832" lon="1.42009">
        <ele>72.24</ele>
        <time>2013-11-10T13:42:56Z</time>
      </trkpt>
      <trkpt lat="50.08834" lon="1.42018">
        <ele>72.72</ele>
        <time>2013-11-10T13:43:10Z</time>
      </trkpt>
      <trkpt lat="50.08851" lon="1.42047">
        <ele>70.31</ele>
        <time>2013-11-10T13:43:32Z</time>
      </trkpt>
      <trkpt lat="50.08863" lon="1.4207">
        <ele>66.47</ele>
        <time>2013-11-10T13:43:50Z</time>
      </trkpt>
      <trkpt lat="50.08869" lon="1.42089">
        <ele>63.58</ele>
        <time>2013-11-10T13:44:04Z</time>
      </trkpt>
      <trkpt lat="50.08871" lon="1.42094">
        <ele>63.58</ele>
        <time>2013-11-10T13:44:21Z</time>
      </trkpt>
      <trkpt lat="50.08871" lon="1.42095">
        <ele>63.58</ele>
        <time>2013-11-10T13:44:23Z</time>
      </trkpt>
      <trkpt lat="50.08876" lon="1.42105">
        <ele>62.62</ele>
        <time>2013-11-10T13:44:31Z</time>
      </trkpt>
      <trkpt lat="50.08882" lon="1.42132">
        <ele>61.18</ele>
        <time>2013-11-10T13:44:50Z</time>
      </trkpt>
      <trkpt lat="50.08885" lon="1.42142">
        <ele>58.78</ele>
        <time>2013-11-10T13:45:02Z</time>
      </trkpt>
      <trkpt lat="50.08886" lon="1.42146">
        <ele>58.78</ele>
        <time>2013-11-10T13:45:05Z</time>
      </trkpt>
      <trkpt lat="50.08884" lon="1.42152">
        <ele>57.34</ele>
        <time>2013-11-10T13:45:09Z</time>
      </trkpt>
      <trkpt lat="50.08889" lon="1.42164">
        <ele>57.82</ele>
        <time>2013-11-10T13:45:18Z</time>
      </trkpt>
      <trkpt lat="50.08889" lon="1.42176">
        <ele>54.45</ele>
        <time>2013-11-10T13:45:27Z</time>
      </trkpt>
      <trkpt lat="50.08881" lon="1.42185">
        <ele>54.93</ele>
        <time>2013-11-10T13:45:40Z</time>
      </trkpt>
      <trkpt lat="50.08877" lon="1.42191">
        <ele>54.93</ele>
        <time>2013-11-10T13:45:46Z</time>
      </trkpt>
      <trkpt lat="50.08865" lon="1.42214">
        <ele>54.93</ele>
        <time>2013-11-10T13:46:05Z</time>
      </trkpt>
      <trkpt lat="50.0886" lon="1.42232">
        <ele>54.93</ele>
        <time>2013-11-10T13:46:20Z</time>
      </trkpt>
      <trkpt lat="50.08858" lon="1.42249">
        <ele>53.97</ele>
        <time>2013-11-10T13:46:33Z</time>
      </trkpt>
      <trkpt lat="50.08846" lon="1.42277">
        <ele>53.49</ele>
        <time>2013-11-10T13:46:53Z</time>
      </trkpt>
      <trkpt lat="50.08841" lon="1.42301">
        <ele>51.57</ele>
        <time>2013-11-10T13:47:09Z</time>
      </trkpt>
      <trkpt lat="50.08841" lon="1.42306">
        <ele>52.05</ele>
        <time>2013-11-10T13:47:23Z</time>
      </trkpt>
      <trkpt lat="50.08837" lon="1.42317">
        <ele>52.53</ele>
        <time>2013-11-10T13:47:29Z</time>
      </trkpt>
      <trkpt lat="50.0883" lon="1.42348">
        <ele>51.57</ele>
        <time>2013-11-10T13:47:49Z</time>
      </trkpt>
      <trkpt lat="50.0882" lon="1.42368">
        <ele>51.09</ele>
        <time>2013-11-10T13:48:05Z</time>
      </trkpt>
      <trkpt lat="50.08813" lon="1.42393">
        <ele>50.13</ele>
        <time>2013-11-10T13:48:24Z</time>
      </trkpt>
      <trkpt lat="50.08807" lon="1.424">
        <ele>49.65</ele>
        <time>2013-11-10T13:48:46Z</time>
      </trkpt>
      <trkpt lat="50.08805" lon="1.42413">
        <ele>48.2</ele>
        <time>2013-11-10T13:49:09Z</time>
      </trkpt>
      <trkpt lat="50.08804" lon="1.42411">
        <ele>47.24</ele>
        <time>2013-11-10T13:49:22Z</time>
      </trkpt>
      <trkpt lat="50.08815" lon="1.42393">
        <ele>46.28</ele>
        <time>2013-11-10T13:49:37Z</time>
      </trkpt>
      <trkpt lat="50.08825" lon="1.42388">
        <ele>46.28</ele>
        <time>2013-11-10T13:49:50Z</time>
      </trkpt>
      <trkpt lat="50.08842" lon="1.42371">
        <ele>44.84</ele>
        <time>2013-11-10T13:50:09Z</time>
      </trkpt>
      <trkpt lat="50.08854" lon="1.42345">
        <ele>44.36</ele>
        <time>2013-11-10T13:50:28Z</time>
      </trkpt>
      <trkpt lat="50.08857" lon="1.42331">
        <ele>43.4</ele>
        <time>2013-11-10T13:50:43Z</time>
      </trkpt>
      <trkpt lat="50.08863" lon="1.42311">
        <ele>43.88</ele>
        <time>2013-11-10T13:50:59Z</time>
      </trkpt>
      <trkpt lat="50.08864" lon="1.42306">
        <ele>43.4</ele>
        <time>2013-11-10T13:51:02Z</time>
      </trkpt>
      <trkpt lat="50.08866" lon="1.42304">
        <ele>42.92</ele>
        <time>2013-11-10T13:51:04Z</time>
      </trkpt>
      <trkpt lat="50.08879" lon="1.42276">
        <ele>41.47</ele>
        <time>2013-11-10T13:51:22Z</time>
      </trkpt>
      <trkpt lat="50.08891" lon="1.42258">
        <ele>41.47</ele>
        <time>2013-11-10T13:51:38Z</time>
      </trkpt>
      <trkpt lat="50.08894" lon="1.4229">
        <ele>40.03</ele>
        <time>2013-11-10T13:51:56Z</time>
      </trkpt>
      <trkpt lat="50.08894" lon="1.4231">
        <ele>39.07</ele>
        <time>2013-11-10T13:52:14Z</time>
      </trkpt>
      <trkpt lat="50.08893" lon="1.42322">
        <ele>38.59</ele>
        <time>2013-11-10T13:52:24Z</time>
      </trkpt>
      <trkpt lat="50.08893" lon="1.42327">
        <ele>38.59</ele>
        <time>2013-11-10T13:52:28Z</time>
      </trkpt>
      <trkpt lat="50.08894" lon="1.42338">
        <ele>37.15</ele>
        <time>2013-11-10T13:52:34Z</time>
      </trkpt>
      <trkpt lat="50.08896" lon="1.4236">
        <ele>36.19</ele>
        <time>2013-11-10T13:52:54Z</time>
      </trkpt>
      <trkpt lat="50.08896" lon="1.42363">
        <ele>35.71</ele>
        <time>2013-11-10T13:53:05Z</time>
      </trkpt>
      <trkpt lat="50.08896" lon="1.42383">
        <ele>33.78</ele>
        <time>2013-11-10T13:53:16Z</time>
      </trkpt>
      <trkpt lat="50.08888" lon="1.42404">
        <ele>34.74</ele>
        <time>2013-11-10T13:53:30Z</time>
      </trkpt>
      <trkpt lat="50.08886" lon="1.4241">
        <ele>33.78</ele>
        <time>2013-11-10T13:53:35Z</time>
      </trkpt>
      <trkpt lat="50.08872" lon="1.42442">
        <ele>33.3</ele>
        <time>2013-11-10T13:53:56Z</time>
      </trkpt>
      <trkpt lat="50.08861" lon="1.42462">
        <ele>33.3</ele>
        <time>2013-11-10T13:54:12Z</time>
      </trkpt>
      <trkpt lat="50.08856" lon="1.42481">
        <ele>31.86</ele>
        <time>2013-11-10T13:54:30Z</time>
      </trkpt>
      <trkpt lat="50.08858" lon="1.42482">
        <ele>30.9</ele>
        <time>2013-11-10T13:54:33Z</time>
      </trkpt>
      <trkpt lat="50.0887" lon="1.42498">
        <ele>30.42</ele>
        <time>2013-11-10T13:54:51Z</time>
      </trkpt>
      <trkpt lat="50.08885" lon="1.4247">
        <ele>29.46</ele>
        <time>2013-11-10T13:55:13Z</time>
      </trkpt>
      <trkpt lat="50.08899" lon="1.42439">
        <ele>28.5</ele>
        <time>2013-11-10T13:55:34Z</time>
      </trkpt>
      <trkpt lat="50.08908" lon="1.4242">
        <ele>26.57</ele>
        <time>2013-11-10T13:55:48Z</time>
      </trkpt>
      <trkpt lat="50.08917" lon="1.42407">
        <ele>28.02</ele>
        <time>2013-11-10T13:56:01Z</time>
      </trkpt>
      <trkpt lat="50.08917" lon="1.42404">
        <ele>27.05</ele>
        <time>2013-11-10T13:56:03Z</time>
      </trkpt>
      <trkpt lat="50.08915" lon="1.42392">
        <ele>28.98</ele>
        <time>2013-11-10T13:56:17Z</time>
      </trkpt>
      <trkpt lat="50.08917" lon="1.4239">
        <ele>28.98</ele>
        <time>2013-11-10T13:56:48Z</time>
      </trkpt>
      <trkpt lat="50.08917" lon="1.42391">
        <ele>29.46</ele>
        <time>2013-11-10T13:57:11Z</time>
      </trkpt>
      <trkpt lat="50.08916" lon="1.42393">
        <ele>28.5</ele>
        <time>2013-11-10T13:57:13Z</time>
      </trkpt>
      <trkpt lat="50.08919" lon="1.42399">
        <ele>27.53</ele>
        <time>2013-11-10T13:57:20Z</time>
      </trkpt>
      <trkpt lat="50.08919" lon="1.42402">
        <ele>27.53</ele>
        <time>2013-11-10T13:57:35Z</time>
      </trkpt>
      <trkpt lat="50.08924" lon="1.42405">
        <ele>27.53</ele>
        <time>2013-11-10T13:57:52Z</time>
      </trkpt>
      <trkpt lat="50.08929" lon="1.4241">
        <ele>26.57</ele>
        <time>2013-11-10T13:57:58Z</time>
      </trkpt>
      <trkpt lat="50.08932" lon="1.4241">
        <ele>26.57</ele>
        <time>2013-11-10T13:58:00Z</time>
      </trkpt>
      <trkpt lat="50.08935" lon="1.42413">
        <ele>26.57</ele>
        <time>2013-11-10T13:58:12Z</time>
      </trkpt>
      <trkpt lat="50.08948" lon="1.42424">
        <ele>24.17</ele>
        <time>2013-11-10T13:58:26Z</time>
      </trkpt>
      <trkpt lat="50.08955" lon="1.42424">
        <ele>22.25</ele>
        <time>2013-11-10T13:58:34Z</time>
      </trkpt>
      <trkpt lat="50.08951" lon="1.42408">
        <ele>20.81</ele>
        <time>2013-11-10T13:58:45Z</time>
      </trkpt>
      <trkpt lat="50.08959" lon="1.42405">
        <ele>19.84</ele>
        <time>2013-11-10T13:58:53Z</time>
      </trkpt>
      <trkpt lat="50.08969" lon="1.42407">
        <ele>17.92</ele>
        <time>2013-11-10T13:59:02Z</time>
      </trkpt>
      <trkpt lat="50.08976" lon="1.42397">
        <ele>14.56</ele>
        <time>2013-11-10T13:59:15Z</time>
      </trkpt>
      <trkpt lat="50.08982" lon="1.4239">
        <ele>11.19</ele>
        <time>2013-11-10T13:59:28Z</time>
      </trkpt>
      <trkpt lat="50.08986" lon="1.42383">
        <ele>7.35</ele>
        <time>2013-11-10T13:59:38Z</time>
      </trkpt>
      <trkpt lat="50.0899" lon="1.4238">
        <ele>3.5</ele>
        <time>2013-11-10T13:59:47Z</time>
      </trkpt>
      <trkpt lat="50.08993" lon="1.42375">
        <ele>0.14</ele>
        <time>2013-11-10T13:59:56Z</time>
      </trkpt>
      <trkpt lat="50.08995" lon="1.42372">
        <ele>-3.23</ele>
        <time>2013-11-10T14:00:03Z</time>
      </trkpt>
      <trkpt lat="50.08999" lon="1.42367">
        <ele>-5.15</ele>
        <time>2013-11-10T14:00:09Z</time>
      </trkpt>
      <trkpt lat="50.09007" lon="1.42367">
        <ele>-5.63</ele>
        <time>2013-11-10T14:00:18Z</time>
      </trkpt>
      <trkpt lat="50.09017" lon="1.4237">
        <ele>-5.63</ele>
        <time>2013-11-10T14:00:32Z</time>
      </trkpt>
      <trkpt lat="50.09019" lon="1.42367">
        <ele>-6.59</ele>
        <time>2013-11-10T14:00:54Z</time>
      </trkpt>
      <trkpt lat="50.09025" lon="1.42362">
        <ele>-7.55</ele>
        <time>2013-11-10T14:01:09Z</time>
      </trkpt>
      <trkpt lat="50.09023" lon="1.42362">
        <ele>-7.55</ele>
        <time>2013-11-10T14:01:30Z</time>
      </trkpt>
      <trkpt lat="50.09023" lon="1.42367">
        <ele>-7.07</ele>
        <time>2013-11-10T14:01:54Z</time>
      </trkpt>
      <trkpt lat="50.09024" lon="1.42364">
        <ele>-7.07</ele>
        <time>2013-11-10T14:02:18Z</time>
      </trkpt>
      <trkpt lat="50.09015" lon="1.42354">
        <ele>-8.03</ele>
        <time>2013-11-10T14:02:35Z</time>
      </trkpt>
      <trkpt lat="50.09019" lon="1.42356">
        <ele>-7.55</ele>
        <time>2013-11-10T14:02:55Z</time>
      </trkpt>
      <trkpt lat="50.09013" lon="1.42364">
        <ele>-7.55</ele>
        <time>2013-11-10T14:03:13Z</time>
      </trkpt>
      <trkpt lat="50.09011" lon="1.42357">
        <ele>-7.07</ele>
        <time>2013-11-10T14:03:36Z</time>
      </trkpt>
      <trkpt lat="50.09007" lon="1.42361">
        <ele>-5.63</ele>
        <time>2013-11-10T14:03:58Z</time>
      </trkpt>
      <trkpt lat="50.09013" lon="1.42368">
        <ele>-5.63</ele>
        <time>2013-11-10T14:04:18Z</time>
      </trkpt>
      <trkpt lat="50.09011" lon="1.42377">
        <ele>-6.11</ele>
        <time>2013-11-10T14:04:36Z</time>
      </trkpt>
      <trkpt lat="50.09012" lon="1.4238">
        <ele>-4.67</ele>
        <time>2013-11-10T14:05:09Z</time>
      </trkpt>
      <trkpt lat="50.09016" lon="1.42373">
        <ele>-5.15</ele>
        <time>2013-11-10T14:05:26Z</time>
      </trkpt>
      <trkpt lat="50.09017" lon="1.4237">
        <ele>-5.15</ele>
        <time>2013-11-10T14:05:53Z</time>
      </trkpt>
      <trkpt lat="50.09009" lon="1.42374">
        <ele>-5.15</ele>
        <time>2013-11-10T14:06:08Z</time>
      </trkpt>
      <trkpt lat="50.09006" lon="1.42376">
        <ele>-4.67</ele>
        <time>2013-11-10T14:06:24Z</time>
      </trkpt>
      <trkpt lat="50.09005" lon="1.42374">
        <ele>-7.07</ele>
        <time>2013-11-10T14:06:39Z</time>
      </trkpt>
      <trkpt lat="50.09005" lon="1.42374">
        <ele>-3.71</ele>
        <time>2013-11-10T14:06:40Z</time>
      </trkpt>
      <trkpt lat="50.09005" lon="1.42375">
        <ele>-9.48</ele>
        <time>2013-11-10T14:06:43Z</time>
      </trkpt>
      <trkpt lat="50.09005" lon="1.42375">
        <ele>1.58</ele>
        <time>2013-11-10T14:06:44Z</time>
      </trkpt>
      <trkpt lat="50.09005" lon="1.42375">
        <ele>-4.67</ele>
        <time>2013-11-10T14:06:45Z</time>
      </trkpt>
      <trkpt lat="50.09" lon="1.42382">
        <ele>-5.63</ele>
        <time>2013-11-10T14:06:58Z</time>
      </trkpt>
      <trkpt lat="50.09" lon="1.42382">
        <ele>-5.63</ele>
        <time>2013-11-10T14:06:59Z</time>
      </trkpt>
      <trkpt lat="50.08999" lon="1.4238">
        <ele>-4.19</ele>
        <time>2013-11-10T14:07:05Z</time>
      </trkpt>
      <trkpt lat="50.08997" lon="1.42379">
        <ele>-3.23</ele>
        <time>2013-11-10T14:07:22Z</time>
      </trkpt>
      <trkpt lat="50.08997" lon="1.42378">
        <ele>-3.23</ele>
        <time>2013-11-10T14:07:38Z</time>
      </trkpt>
      <trkpt lat="50.08998" lon="1.42369">
        <ele>-4.19</ele>
        <time>2013-11-10T14:07:51Z</time>
      </trkpt>
      <trkpt lat="50.08995" lon="1.42374">
        <ele>-2.27</ele>
        <time>2013-11-10T14:08:09Z</time>
      </trkpt>
      <trkpt lat="50.08995" lon="1.42374">
        <ele>-0.82</ele>
        <time>2013-11-10T14:08:25Z</time>
      </trkpt>
      <trkpt lat="50.08992" lon="1.42378">
        <ele>2.54</ele>
        <time>2013-11-10T14:08:35Z</time>
      </trkpt>
      <trkpt lat="50.08992" lon="1.42379">
        <ele>3.98</ele>
        <time>2013-11-10T14:08:38Z</time>
      </trkpt>
      <trkpt lat="50.08989" lon="1.42384">
        <ele>7.35</ele>
        <time>2013-11-10T14:08:48Z</time>
      </trkpt>
      <trkpt lat="50.08987" lon="1.42386">
        <ele>9.75</ele>
        <time>2013-11-10T14:08:52Z</time>
      </trkpt>
      <trkpt lat="50.08986" lon="1.42389">
        <ele>12.63</ele>
        <time>2013-11-10T14:08:57Z</time>
      </trkpt>
      <trkpt lat="50.08981" lon="1.42396">
        <ele>13.12</ele>
        <time>2013-11-10T14:09:12Z</time>
      </trkpt>
      <trkpt lat="50.08977" lon="1.42401">
        <ele>16</ele>
        <time>2013-11-10T14:09:23Z</time>
      </trkpt>
      <trkpt lat="50.08973" lon="1.42411">
        <ele>17.92</ele>
        <time>2013-11-10T14:09:36Z</time>
      </trkpt>
      <trkpt lat="50.08962" lon="1.42413">
        <ele>19.36</ele>
        <time>2013-11-10T14:09:51Z</time>
      </trkpt>
      <trkpt lat="50.08951" lon="1.42411">
        <ele>20.32</ele>
        <time>2013-11-10T14:10:06Z</time>
      </trkpt>
      <trkpt lat="50.08954" lon="1.42413">
        <ele>21.77</ele>
        <time>2013-11-10T14:10:17Z</time>
      </trkpt>
      <trkpt lat="50.08958" lon="1.42424">
        <ele>23.21</ele>
        <time>2013-11-10T14:10:27Z</time>
      </trkpt>
      <trkpt lat="50.08952" lon="1.4243">
        <ele>23.21</ele>
        <time>2013-11-10T14:10:33Z</time>
      </trkpt>
      <trkpt lat="50.08943" lon="1.42428">
        <ele>25.13</ele>
        <time>2013-11-10T14:10:41Z</time>
      </trkpt>
      <trkpt lat="50.08935" lon="1.42421">
        <ele>26.57</ele>
        <time>2013-11-10T14:10:50Z</time>
      </trkpt>
      <trkpt lat="50.08925" lon="1.42415">
        <ele>26.57</ele>
        <time>2013-11-10T14:11:01Z</time>
      </trkpt>
      <trkpt lat="50.08922" lon="1.42413">
        <ele>26.57</ele>
        <time>2013-11-10T14:11:06Z</time>
      </trkpt>
      <trkpt lat="50.08912" lon="1.42408">
        <ele>28.02</ele>
        <time>2013-11-10T14:11:16Z</time>
      </trkpt>
      <trkpt lat="50.08906" lon="1.42412">
        <ele>28.5</ele>
        <time>2013-11-10T14:11:24Z</time>
      </trkpt>
      <trkpt lat="50.08893" lon="1.4243">
        <ele>28.5</ele>
        <time>2013-11-10T14:11:44Z</time>
      </trkpt>
      <trkpt lat="50.08882" lon="1.42446">
        <ele>29.46</ele>
        <time>2013-11-10T14:12:00Z</time>
      </trkpt>
      <trkpt lat="50.0887" lon="1.42462">
        <ele>30.42</ele>
        <time>2013-11-10T14:12:17Z</time>
      </trkpt>
      <trkpt lat="50.08859" lon="1.42479">
        <ele>30.9</ele>
        <time>2013-11-10T14:12:34Z</time>
      </trkpt>
      <trkpt lat="50.08852" lon="1.42498">
        <ele>30.9</ele>
        <time>2013-11-10T14:12:51Z</time>
      </trkpt>
    </trkseg>
  </trk>
</gpx>